Date StartTime U_cm/s V_cm/s W_cm/s Ustd_cm/s Vstd_cm/s Wstd_cm/s Uvar_(cm/s)^2 Vvar_(cm/s)^2 Wvar_(cm/s)^2 KE_(m/s)^2 TurbulentKE_(m/s)^2 HorizWindSpeed_cm/s FrictionSpeec_cm/s DragCoef SpeedOfSound_m/s SonicTemperature_C Pressure_mb 
09/19/2014  00:00:00        7.153      -11.924       15.667       23.712       18.264       19.122      562.272      333.569      365.664        0.085        0.063       13.905        5.393        0.150      343.083       18.945      860.226
09/19/2014  00:01:00       -8.983       -3.385       14.312       18.842       23.721       16.414      355.002      562.694      269.428        0.074        0.059        9.599       10.125        1.113      343.098       18.971      860.236
09/19/2014  00:02:00       22.744      -37.038       -2.965       17.983       15.956       13.697      323.371      254.589      187.599        0.133        0.038       43.464        9.859        0.051      343.104       18.979      860.255
09/19/2014  00:03:00        1.112      -22.173       -2.268       17.331       11.487       13.287      300.362      131.954      176.550        0.055        0.030       22.201        9.730        0.192      343.124       19.015      860.269
09/19/2014  00:04:00       -8.329       24.194       11.565       17.105       13.324       15.211      292.581      177.524      231.388        0.074        0.035       25.587       13.455        0.277      343.141       19.045      860.279
09/19/2014  00:05:00       28.732       62.990        9.448       29.775       44.948       27.554      886.547     2020.286      759.225        0.427        0.183       69.234       26.179        0.143      343.055       18.898      860.294
09/19/2014  00:06:00       83.791       73.235        1.137       44.766       41.527       35.810     2003.955     1724.513     1282.355        0.870        0.251      111.285       22.440        0.041      342.958       18.731      860.310
09/19/2014  00:07:00      106.708       82.733        9.102       62.053       41.163       34.998     3850.546     1694.377     1224.831        1.254        0.338      135.024       19.915        0.022      342.922       18.670      860.339
09/19/2014  00:08:00      130.965      103.417       12.352       48.871       33.170       38.573     2388.369     1100.269     1487.851        1.649        0.249      166.874       22.579        0.018      342.938       18.698      860.352
09/19/2014  00:09:00       96.671       69.309        5.288       37.432       31.414       19.289     1401.143      986.811      372.056        0.847        0.138      118.950        9.633        0.007      342.929       18.683      860.369
09/19/2014  00:10:00      106.753       68.637       16.824       42.679       34.136       26.474     1821.475     1165.253      700.865        1.004        0.184      126.914       17.714        0.019      342.945       18.709      860.372
09/19/2014  00:11:00       49.589       39.198        4.910       38.251       23.795       16.059     1463.105      566.183      257.882        0.315        0.114       63.210       11.944        0.036      342.933       18.689      860.374
09/19/2014  00:12:00       -8.352       50.570      -11.180       16.080       17.925        8.665      258.581      321.297       75.077        0.170        0.033       51.255        7.625        0.022      342.977       18.764      860.364
09/19/2014  00:13:00      -16.946       50.670       -8.382       29.647       33.748       13.720      878.918     1138.914      188.245        0.257        0.110       53.428       11.867        0.049      342.996       18.798      860.356
09/19/2014  00:14:00      -31.588       17.867       -7.308       15.607       16.533       10.808      243.570      273.347      116.803        0.100        0.032       36.291        9.221        0.065      343.006       18.813      860.349
09/19/2014  00:15:00        2.473       19.041       -9.615       28.838       14.427        9.758      831.605      208.147       95.220        0.080        0.057       19.201       11.744        0.374      343.065       18.915      860.334
09/19/2014  00:16:00       10.602        3.338       -3.902       13.005        4.976       13.633      169.117       24.765      185.859        0.026        0.019       11.114       11.011        0.981      343.117       19.001      860.333
09/19/2014  00:17:00      -31.278      -12.957       -3.463       24.260       14.259       13.099      588.528      203.306      171.583        0.106        0.048       33.855       14.182        0.175      343.082       18.942      860.348
09/19/2014  00:18:00        5.386       12.659      -18.955       22.037       15.320       12.209      485.619      234.711      149.058        0.071        0.043       13.758       10.811        0.617      343.190       19.128      860.369
09/19/2014  00:19:00        2.407        3.242       -1.396       12.350       11.671        7.749      152.528      136.208       60.054        0.018        0.017        4.038        5.098        1.594      343.229       19.193      860.378
09/19/2014  00:20:00      -57.721       19.269       -6.212       27.392       20.031       11.969      750.303      401.232      143.259        0.252        0.065       60.852       10.922        0.032      343.141       19.045      860.390
09/19/2014  00:21:00      -61.753       21.683       -8.878       17.384       13.435        7.843      302.221      180.509       61.513        0.245        0.027       65.449        4.986        0.006      343.151       19.062      860.399
09/19/2014  00:22:00      -65.872       58.886      -17.533       24.009       31.978       11.699      576.438     1022.594      136.866        0.492        0.087       88.356       16.644        0.035      343.140       19.043      860.399
09/19/2014  00:23:00      -68.490       61.134      -10.617       32.094       31.128       18.652     1030.031      968.968      347.895        0.544        0.117       91.806       17.120        0.035      343.183       19.116      860.394
09/19/2014  00:24:00      -84.664      -18.433       -5.927       25.297       36.240       16.603      639.939     1313.355      275.650        0.489        0.111       86.647       14.284        0.027      343.211       19.164      860.379
09/19/2014  00:25:00       10.370      -23.541       27.538       28.165       34.852       20.707      793.242     1214.639      428.762        0.193        0.122       25.724       19.754        0.590      343.200       19.145      860.356
09/19/2014  00:26:00      -66.367      -40.814        2.675       32.980       24.896       16.869     1087.653      619.810      284.570        0.403        0.100       77.912       14.957        0.037      343.185       19.119      860.348
09/19/2014  00:27:00      -39.702      -43.606       10.127       31.674       34.462       20.793     1003.239     1187.641      432.366        0.310        0.131       58.972       18.131        0.095      343.155       19.067      860.339
09/19/2014  00:28:00      -93.042      -30.512       -3.212       32.761       21.148       13.729     1073.315      447.225      188.497        0.565        0.085       97.917       10.949        0.013      343.145       19.052      860.343
09/19/2014  00:29:00     -105.110      -16.486        0.836       42.244       28.911       25.997     1784.525      835.826      675.849        0.731        0.165      106.395       23.986        0.051      343.110       18.990      860.344
09/19/2014  00:30:00     -135.386       14.662        0.213       43.416       34.592       17.097     1884.928     1196.622      292.298        1.096        0.169      136.178        6.386        0.002      343.159       19.073      860.343
09/19/2014  00:31:00     -117.698      -11.976      -12.153       32.394       28.965       21.317     1049.373      838.952      454.430        0.824        0.117      118.306       18.341        0.024      343.103       18.979      860.333
09/19/2014  00:32:00     -113.190      -43.390      -10.195       18.557       23.217       12.274      344.357      539.043      150.653        0.792        0.052      121.222       10.473        0.007      343.123       19.017      860.339
09/19/2014  00:33:00      -59.326      -42.977        8.806       53.085       24.723       22.406     2818.003      611.239      502.017        0.469        0.197       73.258       30.970        0.179      343.151       19.060      860.329
09/19/2014  00:34:00      -33.932      -39.011       12.225       45.811       36.211       26.050     2098.643     1311.217      678.578        0.345        0.204       51.703       24.094        0.217      343.232       19.199      860.323
09/19/2014  00:35:00      -22.178       -2.524        7.826       38.723       27.452       20.589     1499.474      753.625      423.915        0.162        0.134       22.321       23.414        1.100      343.183       19.115      860.337
09/19/2014  00:36:00      -57.727       -7.901       -0.334       23.717       15.528       15.544      562.486      241.115      241.612        0.222        0.052       58.265       15.773        0.073      343.166       19.088      860.335
09/19/2014  00:37:00      -17.314      -41.455        6.022       23.613       26.860       17.333      557.577      721.459      300.423        0.182        0.079       44.925       14.425        0.103      343.200       19.146      860.336
09/19/2014  00:38:00      -41.630      -36.471       -5.277       16.795       22.416       13.669      282.084      502.474      186.855        0.203        0.049       55.346       12.534        0.051      343.209       19.161      860.341
09/19/2014  00:39:00      -18.264      -13.609        4.995       11.826       11.070       11.121      139.862      122.535      123.681        0.046        0.019       22.777        1.875        0.007      343.200       19.143      860.337
09/19/2014  00:40:00      -36.141      -65.024       -0.221       22.465       36.888       13.687      504.676     1360.751      187.339        0.379        0.103       74.393       10.304        0.019      343.215       19.171      860.335
09/19/2014  00:41:00      -50.152      -22.151        2.189       37.826       18.149       18.789     1430.834      329.369      353.031        0.256        0.106       54.826       17.654        0.104      343.223       19.183      860.331
09/19/2014  00:42:00      -59.917      -39.431        5.202       28.343       28.268       18.138      803.321      799.104      328.970        0.355        0.097       71.727       10.956        0.023      343.214       19.169      860.326
09/19/2014  00:43:00      -45.531      -16.983        0.568       35.921       12.025       13.327     1290.326      144.610      177.600        0.199        0.081       48.595       17.605        0.131      343.169       19.093      860.321
09/19/2014  00:44:00      -46.795      -15.114       -0.087       32.543       15.515       12.281     1059.029      240.716      150.823        0.193        0.073       49.175       10.000        0.041      343.252       19.232      860.317
09/19/2014  00:45:00      -42.759      -31.872        6.407       25.549       17.514       15.002      652.760      306.757      225.051        0.203        0.059       53.331       11.880        0.050      343.190       19.126      860.322
09/19/2014  00:46:00       -8.811      -14.846        4.517       15.011       10.853        8.664      225.327      117.791       75.069        0.037        0.021       17.264        5.120        0.088      343.221       19.180      860.333
09/19/2014  00:47:00      -15.909      -39.183       -5.885       15.487       18.385        7.854      239.850      338.016       61.693        0.123        0.032       42.290        9.029        0.046      343.240       19.214      860.337
09/19/2014  00:48:00        2.824      -17.108        1.513       10.969       15.317       10.057      120.316      234.603      101.134        0.038        0.023       17.339        7.010        0.163      343.240       19.214      860.350
09/19/2014  00:49:00       18.130       12.945        7.637       22.264        8.782        6.248      495.694       77.124       39.033        0.058        0.031       22.277        3.482        0.024      343.195       19.135      860.358
09/19/2014  00:50:00       49.954       30.785        0.593       16.995       16.205       16.045      288.820      262.596      257.438        0.213        0.040       58.678        8.911        0.023      343.141       19.043      860.372
09/19/2014  00:51:00       84.590       42.152       -0.240       35.610       30.322       21.400     1268.049      919.433      457.979        0.579        0.132       94.511       17.867        0.036      343.018       18.834      860.383
09/19/2014  00:52:00       92.536       57.262        8.450       23.102       23.028       19.985      533.695      530.312      399.385        0.669        0.073      108.820       12.388        0.013      342.974       18.758      860.391
09/19/2014  00:53:00       60.363       30.333        6.771       28.745       18.608       14.612      826.257      346.240      213.522        0.300        0.069       67.556        5.619        0.007      342.918       18.666      860.404
09/19/2014  00:54:00       97.403       65.816       25.069       28.402       20.180       24.636      806.669      407.219      606.916        0.813        0.091      117.555       12.644        0.012      343.084       18.946      860.410
09/19/2014  00:55:00       44.647       77.689       76.924       39.903       33.872       19.364     1592.283     1147.296      374.970        0.853        0.156       89.605       13.240        0.022      343.037       18.866      860.432
09/19/2014  00:56:00       96.606       84.693       71.443       48.046       27.456       25.203     2308.407      753.854      635.175        1.265        0.185      128.474       13.125        0.010      343.010       18.820      860.458
09/19/2014  00:57:00       37.458       59.382       72.194       51.894       41.110       27.460     2692.991     1690.017      754.043        0.764        0.257       70.209       25.325        0.130      343.028       18.851      860.477
09/19/2014  00:58:00       12.753       50.360       62.728       32.205       35.387       24.045     1037.139     1252.268      578.167        0.475        0.143       51.950       13.541        0.068      343.084       18.947      860.491
09/19/2014  00:59:00       18.293       32.297       62.578       36.793       38.106       25.749     1353.721     1452.084      662.991        0.438        0.173       37.118       25.197        0.461      343.040       18.873      860.487
09/19/2014  01:00:00       36.034       12.954       39.422       33.182       27.640       20.697     1101.035      763.962      428.375        0.266        0.115       38.292       18.635        0.237      342.979       18.768      860.489
09/19/2014  01:01:00       19.284       16.756       39.380       23.972       18.090       16.876      574.677      327.256      284.786        0.169        0.059       25.546       10.752        0.177      342.991       18.788      860.478
09/19/2014  01:02:00       31.841       -5.334       31.033       36.911       32.258       24.426     1362.437     1040.554      596.633        0.250        0.150       32.285       25.547        0.626      343.002       18.806      860.467
09/19/2014  01:03:00       20.011       -9.349       17.523       23.240       22.292       20.338      540.100      496.932      413.619        0.112        0.073       22.087       15.637        0.501      343.010       18.820      860.482
09/19/2014  01:04:00       42.011       46.960       29.287       26.898       18.015       16.167      723.523      324.526      261.377        0.307        0.065       63.009       14.483        0.053      342.977       18.764      860.485
09/19/2014  01:05:00       44.712       26.575       36.823       34.393       27.078       20.612     1182.849      733.243      424.860        0.320        0.117       52.014       16.137        0.096      342.956       18.729      860.494
09/19/2014  01:06:00       61.448       42.096       31.175       42.345       28.569       22.715     1793.073      816.201      515.987        0.482        0.156       74.485       16.799        0.051      342.941       18.703      860.507
09/19/2014  01:07:00       31.361       33.300       36.648       27.199       21.169       19.920      739.808      448.115      396.809        0.251        0.079       45.743       18.389        0.162      342.959       18.735      860.517
09/19/2014  01:08:00       39.014       20.798       18.581       28.374       18.970       23.349      805.056      359.854      545.170        0.200        0.086       44.211       18.155        0.169      342.978       18.767      860.534
09/19/2014  01:09:00        5.315       -4.397       16.730       12.407       15.119        9.827      153.944      228.590       96.563        0.040        0.024        6.898        9.914        2.066      342.971       18.755      860.533
09/19/2014  01:10:00       -4.515        1.126        3.719        8.810        9.338        6.599       77.624       87.194       43.543        0.012        0.010        4.654        3.108        0.446      342.999       18.801      860.532
09/19/2014  01:11:00       -5.382       32.591        0.158        9.013       12.453       11.415       81.240      155.075      130.304        0.073        0.018       33.032        3.568        0.012      342.925       18.677      860.530
09/19/2014  01:12:00       -5.654       26.100       -4.150        5.891        5.510        6.592       34.710       30.357       43.452        0.042        0.005       26.705        2.922        0.012      342.945       18.710      860.522
09/19/2014  01:13:00       -3.597        2.839        3.109        6.299       17.164        6.141       39.678      294.595       37.715        0.020        0.019        4.582        4.325        0.891      342.992       18.789      860.529
09/19/2014  01:14:00      -36.845        2.532       -0.875       40.384       19.643       16.021     1630.839      385.832      256.688        0.182        0.114       36.932       21.482        0.338      343.089       18.955      860.538
09/19/2014  01:15:00      -62.083       42.662       -7.686       26.298       32.182       16.313      691.566     1035.671      266.130        0.386        0.100       75.328       12.758        0.029      343.066       18.916      860.539
09/19/2014  01:16:00      -73.419       39.561      -14.045       19.348       20.797       10.054      374.351      432.499      101.091        0.403        0.045       83.399        9.623        0.013      343.056       18.899      860.539
09/19/2014  01:17:00      -42.505      -13.110       -5.686       17.707       22.774        9.269      313.528      518.654       85.910        0.146        0.046       44.481       11.824        0.071      343.052       18.891      860.525
09/19/2014  01:18:00      -67.463      -26.438       -6.035       18.462        8.368        9.016      340.857       70.025       81.279        0.289        0.025       72.459        5.938        0.007      343.080       18.939      860.507
09/19/2014  01:19:00      -54.431      -55.157       -2.784       31.756       26.817       13.483     1008.418      719.148      181.804        0.396        0.095       77.492        9.787        0.016      343.065       18.916      860.494
09/19/2014  01:20:00      -25.234      -22.812        7.012       38.820       32.483       19.899     1507.006     1055.121      395.981        0.208        0.148       34.017       20.537        0.365      343.102       18.978      860.485
09/19/2014  01:21:00      -87.654      -21.766       -0.885       33.804       30.534       17.948     1142.730      932.327      322.133        0.528        0.120       90.316       12.925        0.020      343.029       18.852      860.479
09/19/2014  01:22:00     -120.731      -29.865       -6.627       43.095       42.399       21.232     1857.144     1797.693      450.781        0.981        0.205      124.370       22.686        0.033      343.061       18.908      860.479
09/19/2014  01:23:00     -120.884      -33.665       -8.233       36.033       40.504       18.357     1298.405     1640.539      336.973        0.954        0.164      125.484        7.795        0.004      343.074       18.929      860.471
09/19/2014  01:24:00     -171.061      -63.750       -2.818       59.014       41.160       23.350     3482.611     1694.166      545.207        1.953        0.286      182.554       21.447        0.014      342.989       18.784      860.464
09/19/2014  01:25:00     -173.485      -83.761        0.291       48.562       44.092       27.067     2358.275     1944.099      732.611        2.107        0.252      192.647       23.865        0.015      342.980       18.767      860.464
09/19/2014  01:26:00     -167.734      -64.149        3.228       63.046       57.029       34.664     3974.859     3252.307     1201.602        2.034        0.421      179.582       32.096        0.032      342.902       18.636      860.464
09/19/2014  01:27:00     -206.545      -72.580       -9.330       57.050       41.698       34.669     3254.661     1738.713     1201.961        2.710        0.310      218.926       31.721        0.021      342.922       18.667      860.473
09/19/2014  01:28:00     -130.545      -17.102       -4.259       62.088       48.615       34.666     3854.884     2363.416     1201.712        1.238        0.371      131.661       35.110        0.071      342.853       18.552      860.490
09/19/2014  01:29:00      -93.758       27.273       -5.323       48.280       36.704       26.455     2330.924     1347.151      699.843        0.697        0.219       97.644        5.233        0.003      342.796       18.456      860.505
09/19/2014  01:30:00     -121.853       32.922      -14.001       52.727       34.396       25.333     2780.177     1183.108      641.759        1.037        0.230      126.222       19.726        0.024      342.828       18.510      860.520
09/19/2014  01:31:00     -163.797       29.540      -17.906       38.378       48.359       25.040     1472.896     2338.547      627.018        1.623        0.222      166.439       17.700        0.011      342.861       18.567      860.516
09/19/2014  01:32:00     -101.990      -58.933       -3.386       59.417       45.654       31.421     3530.355     2084.280      987.287        1.024        0.330      117.792       30.760        0.068      342.865       18.573      860.519
09/19/2014  01:33:00      -82.715      -38.416       -3.569       36.140       32.064       24.523     1306.065     1028.098      601.386        0.563        0.147       91.201       14.734        0.026      342.860       18.565      860.521
09/19/2014  01:34:00     -144.581      -85.857       -0.641       55.863       44.114       29.468     3120.651     1946.088      868.355        1.710        0.297      168.152       30.637        0.033      342.819       18.494      860.521
09/19/2014  01:35:00     -145.551      -43.753       -0.977       82.559       50.154       35.216     6816.052     2515.400     1240.177        1.683        0.529      151.985       40.305        0.070      342.768       18.406      860.530
09/19/2014  01:36:00     -177.604     -122.770        2.712       77.227       63.130       40.528     5964.042     3985.424     1642.484        2.911        0.580      215.907       39.057        0.033      342.776       18.419      860.522
09/19/2014  01:37:00     -195.644      -81.112       -2.686      106.651       68.336       28.176    11374.424     4669.815      793.899        3.085        0.842      211.792       37.824        0.032      342.847       18.540      860.521
09/19/2014  01:38:00     -106.578      -76.328        6.133       52.893       42.025       32.987     2797.720     1766.104     1088.128        1.144        0.283      131.091       30.274        0.053      342.806       18.473      860.538
09/19/2014  01:39:00      -98.796      -87.261        0.765       75.759       32.747       35.390     5739.359     1072.370     1252.431        1.272        0.403      131.815       40.958        0.097      342.838       18.526      860.550
09/19/2014  01:40:00      -72.903      -15.663        1.286       52.803       34.291       25.218     2788.145     1175.880      635.938        0.508        0.230       74.566       24.201        0.105      342.828       18.513      860.573
09/19/2014  01:41:00      -58.902       34.662       -0.345       38.916       32.305       19.688     1514.477     1043.589      387.616        0.381        0.147       68.344       22.143        0.105      342.783       18.432      860.581
09/19/2014  01:42:00      -65.528       63.534      -18.470       41.753       32.871       15.906     1743.274     1080.498      252.991        0.587        0.154       91.272       21.490        0.055      342.713       18.314      860.585
09/19/2014  01:43:00      -95.058       72.331      -18.518       22.535       31.555       15.793      507.806      995.745      249.422        0.818        0.088      119.448        8.526        0.005      342.705       18.300      860.589
09/19/2014  01:44:00      -96.203        6.906      -16.098       36.914       36.778       23.638     1362.668     1352.607      558.738        0.642        0.164       96.450       15.359        0.025      342.727       18.340      860.598
09/19/2014  01:45:00      -57.983        9.545      -16.562       38.007       46.488       21.433     1444.516     2161.124      459.386        0.390        0.203       58.763       13.372        0.052      342.696       18.285      860.603
09/19/2014  01:46:00     -157.257      -69.383       -8.712       49.225       54.779       32.089     2423.146     3000.697     1029.677        1.804        0.323      171.883       32.798        0.036      342.703       18.298      860.605
09/19/2014  01:47:00     -206.611       -1.710      -17.650       68.170       59.099       31.416     4647.109     3492.641      986.935        2.606        0.456      206.618       39.591        0.037      342.727       18.335      860.616
09/19/2014  01:48:00     -181.869       -8.923      -22.715       34.056       31.278       17.755     1159.784      978.310      315.228        1.806        0.123      182.088       16.496        0.008      342.688       18.272      860.635
09/19/2014  01:49:00      -99.731       -8.824       -7.147       35.385       42.159       21.232     1252.127     1777.363      450.788        0.678        0.174      100.121       19.651        0.039      342.661       18.226      860.658
09/19/2014  01:50:00     -118.137       24.502      -11.535       33.261       36.685       18.125     1106.272     1345.811      328.508        0.873        0.139      120.651       17.221        0.020      342.758       18.393      860.664
09/19/2014  01:51:00      -91.963      -13.191      -11.859       21.810       41.729       19.333      475.664     1741.347      373.756        0.568        0.130       92.904       12.170        0.017      342.752       18.382      860.667
09/19/2014  01:52:00      -70.068       -2.616      -12.030       22.681       28.467       16.849      514.432      810.382      283.903        0.333        0.080       70.117        5.325        0.006      342.723       18.333      860.674
09/19/2014  01:53:00      -72.951      -13.908       -9.564       21.304       22.967       12.430      453.878      527.506      154.504        0.337        0.057       74.264        7.132        0.009      342.730       18.343      860.694
09/19/2014  01:54:00      -49.127       16.404       -3.157       20.748       19.329       12.014      430.489      373.629      144.330        0.182        0.047       51.793       12.897        0.062      342.693       18.281      860.718
09/19/2014  01:55:00      -72.707       41.419      -13.473       20.671       19.673       12.971      427.296      387.045      168.246        0.408        0.049       83.677       10.232        0.015      342.740       18.360      860.745
09/19/2014  01:56:00      -81.538       70.708      -21.339       29.798       27.279       13.901      887.933      744.151      193.240        0.696        0.091      107.926       17.540        0.026      342.770       18.412      860.759
09/19/2014  01:57:00      -55.623       59.871      -15.596       29.779       23.674       13.871      886.812      560.437      192.397        0.428        0.082       81.722       16.408        0.040      342.769       18.412      860.772
09/19/2014  01:58:00      -36.412       15.705       -1.490       25.317       23.978       11.004      640.946      574.961      121.099        0.146        0.067       39.654        5.830        0.022      342.763       18.398      860.782
09/19/2014  01:59:00        2.902        3.826       -1.801        9.530       23.960        9.786       90.812      574.085       95.774        0.039        0.038        4.802        7.388        2.367      342.794       18.452      860.789
09/19/2014  02:00:00       -6.443       51.820       -4.461       16.912       16.094        8.865      286.031      259.020       78.590        0.169        0.031       52.219        6.171        0.014      342.757       18.390      860.800
09/19/2014  02:01:00       -5.756       41.467       -4.513        8.703        9.937        7.565       75.745       98.739       57.223        0.100        0.012       41.864        5.113        0.015      342.774       18.418      860.807
09/19/2014  02:02:00       10.665       32.666        0.187       12.337       16.137       13.403      152.190      260.388      179.638        0.089        0.030       34.363       11.642        0.115      342.635       18.183      860.810
09/19/2014  02:03:00       10.459       -3.503        3.097       11.938        8.825        6.765      142.509       77.874       45.768        0.020        0.013       11.030        7.655        0.482      342.631       18.175      860.806
09/19/2014  02:04:00        7.323      -18.796       16.267       15.640       32.700       14.938      244.617     1069.306      223.158        0.110        0.077       20.172       17.781        0.777      342.603       18.128      860.796
09/19/2014  02:05:00       18.146       13.826        3.414        8.747        8.402        8.172       76.514       70.600       66.785        0.037        0.011       22.813        7.025        0.095      342.488       17.934      860.798
09/19/2014  02:06:00       18.232      -17.075        3.890       10.376       14.526        8.895      107.654      210.993       79.120        0.052        0.020       24.979        4.539        0.033      342.565       18.064      860.777
09/19/2014  02:07:00        9.126      -23.515        0.702       10.518        9.343        9.521      110.636       87.294       90.641        0.046        0.014       25.224        3.702        0.022      342.712       18.313      860.767
09/19/2014  02:08:00      -31.949      -23.484        0.499       16.784       14.186        7.223      281.712      201.236       52.170        0.105        0.027       39.651        9.288        0.055      342.625       18.165      860.759
09/19/2014  02:09:00      -11.055      -12.230        3.155       13.270       13.113        6.964      176.100      171.940       48.492        0.034        0.020       16.485        9.182        0.310      342.708       18.309      860.755
09/19/2014  02:10:00      -10.843      -16.048       -5.535        8.623       15.059        6.363       74.360      226.778       40.492        0.037        0.017       19.368        6.748        0.121      342.619       18.153      860.751
09/19/2014  02:11:00      -10.709      -27.294        0.424       14.911       14.134        9.712      222.330      199.780       94.325        0.069        0.026       29.320        8.422        0.083      342.578       18.086      860.749
09/19/2014  02:12:00        0.968        9.313       13.299        6.498       11.161        6.852       42.219      124.561       46.955        0.024        0.011        9.363        6.681        0.509      342.491       17.936      860.752
09/19/2014  02:13:00       -6.130        4.742        5.128        8.653        6.287        4.752       74.875       39.531       22.582        0.011        0.007        7.750        4.586        0.350      342.491       17.937      860.752
09/19/2014  02:14:00      -45.319        3.880       -6.310       13.346        6.982       10.736      178.125       48.750      115.257        0.123        0.017       45.485        8.824        0.038      342.650       18.210      860.746
09/19/2014  02:15:00      -54.864      -23.198        0.456       11.196       16.866        6.225      125.346      284.446       38.754        0.200        0.022       59.567        5.810        0.010      342.639       18.188      860.742
09/19/2014  02:16:00      -25.097      -18.394        3.859       10.725       12.418        8.597      115.022      154.204       73.902        0.066        0.017       31.115        5.085        0.027      342.567       18.066      860.734
09/19/2014  02:17:00      -23.961      -32.863       -1.099       14.606       11.847        8.870      213.325      140.342       78.671        0.104        0.022       40.671        9.167        0.051      342.552       18.042      860.731
09/19/2014  02:18:00      -48.062      -15.271       -9.669       10.577        8.002        4.968      111.871       64.029       24.685        0.142        0.010       50.430        2.026        0.002      342.562       18.060      860.727
09/19/2014  02:19:00      -61.106       -3.089       -1.919       29.090       13.324        9.519      846.232      177.541       90.611        0.243        0.056       61.184       11.531        0.036      342.451       17.869      860.726
09/19/2014  02:20:00      -94.496       19.128       -5.849       19.582       16.605       10.946      383.457      275.736      119.817        0.505        0.039       96.413       11.027        0.013      342.358       17.713      860.726
09/19/2014  02:21:00      -54.036       -1.114      -10.905       13.309        5.819        6.639      177.118       33.859       44.079        0.165        0.013       54.048        5.546        0.011      342.402       17.785      860.719
09/19/2014  02:22:00      -47.859      -12.703       -6.738        8.699        7.857        5.817       75.677       61.738       33.835        0.133        0.009       49.516        5.936        0.014      342.375       17.740      860.726
09/19/2014  02:23:00      -68.316      -23.686       -8.585       13.401       10.206        6.449      179.585      104.165       41.587        0.281        0.016       72.305        5.205        0.005      342.381       17.751      860.734
09/19/2014  02:24:00      -88.137      -20.683       -8.312       12.250       12.704        8.165      150.055      161.399       66.669        0.432        0.019       90.532        5.986        0.004      342.226       17.488      860.744
09/19/2014  02:25:00      -67.713      -20.016       -5.988       13.402       15.421       10.400      179.606      237.809      108.152        0.277        0.026       70.610        8.450        0.014      342.079       17.236      860.749
09/19/2014  02:26:00      -40.599       -3.757       -1.030       23.361       17.043       10.272      545.747      290.457      105.516        0.130        0.047       40.772        9.744        0.057      341.979       17.069      860.756
09/19/2014  02:27:00      -43.855       -6.477       -3.966       17.730       15.903        9.232      314.360      252.911       85.236        0.132        0.033       44.331        6.288        0.020      342.049       17.187      860.756
09/19/2014  02:28:00      -61.794       -5.497       -9.191       14.632       15.468       11.394      214.097      239.246      129.824        0.226        0.029       62.038        8.825        0.020      342.108       17.286      860.751
09/19/2014  02:29:00      -55.290       -3.015       -9.062       24.502       24.714       12.336      600.324      610.763      152.174        0.226        0.068       55.372       11.320        0.042      342.023       17.142      860.744
09/19/2014  02:30:00      -65.643       14.096      -11.293       12.792       14.639       10.927      163.642      214.304      119.396        0.257        0.025       67.140        7.377        0.012      342.137       17.337      860.743
09/19/2014  02:31:00      -49.524      -10.139       -8.412       20.552       16.053        7.788      422.379      257.714       60.659        0.168        0.037       50.551        4.212        0.007      342.103       17.278      860.734
09/19/2014  02:32:00      -53.840       -1.083       -5.813       16.542       11.423        8.344      273.645      130.481       69.618        0.170        0.024       53.851        3.678        0.005      342.150       17.359      860.746
09/19/2014  02:33:00      -47.229      -13.571       -3.856       12.328       11.142       10.333      151.973      124.150      106.778        0.141        0.019       49.140        8.908        0.033      342.126       17.317      860.744
09/19/2014  02:34:00      -51.004      -14.301      -10.950       10.610        9.741        6.529      112.569       94.892       42.632        0.159        0.013       52.971        2.078        0.002      342.088       17.251      860.744
09/19/2014  02:35:00      -44.165       -2.339       -8.744       11.898       17.595        9.582      141.572      309.581       91.823        0.129        0.027       44.227        8.831        0.040      342.090       17.257      860.743
09/19/2014  02:36:00      -66.373      -15.704       -8.341       15.984       13.286       10.821      255.485      176.511      117.086        0.264        0.027       68.206        3.010        0.002      341.927       16.979      860.755
09/19/2014  02:37:00      -78.042       -9.927       -3.354       23.248       21.019       10.997      540.468      441.816      120.940        0.365        0.055       78.670       10.160        0.017      341.859       16.867      860.766
09/19/2014  02:38:00      -54.154      -14.330       -2.916       29.564       22.190       13.659      874.002      492.398      186.568        0.235        0.078       56.018       11.597        0.043      341.819       16.797      860.772
09/19/2014  02:39:00      -66.767      -34.453        0.162       25.387       28.214       11.595      644.485      796.026      134.438        0.361        0.079       75.132       13.179        0.031      341.876       16.890      860.766
09/19/2014  02:40:00      -57.840      -10.184        3.460       20.577       20.840       13.619      423.406      434.295      185.465        0.225        0.052       58.729        9.659        0.027      341.811       16.783      860.760
09/19/2014  02:41:00      -45.702      -26.389       -1.088       32.849       16.851       11.368     1079.065      283.965      129.237        0.214        0.075       52.774       11.586        0.048      341.930       16.986      860.755
09/19/2014  02:42:00      -39.574      -26.337        2.290       40.362       16.471       10.520     1629.105      271.279      110.663        0.214        0.101       47.536       13.286        0.078      341.994       17.094      860.750
09/19/2014  02:43:00      -52.508      -37.127        0.798       22.968       16.849       14.524      527.551      283.900      210.937        0.258        0.051       64.308        8.968        0.019      341.853       16.854      860.764
09/19/2014  02:44:00      -38.177      -43.907        5.275       22.738       22.310       13.094      517.034      497.750      171.444        0.230        0.059       58.183       10.310        0.031      341.867       16.877      860.770
09/19/2014  02:45:00      -46.209      -60.562       -0.163       30.489       28.315       19.013      929.596      801.733      361.494        0.395        0.105       76.178       18.215        0.057      341.804       16.772      860.778
09/19/2014  02:46:00      -85.541      -51.703       -4.713       24.929       26.088       12.849      621.470      680.568      165.091        0.574        0.073       99.952        6.325        0.004      341.859       16.866      860.773
09/19/2014  02:47:00      -77.122      -42.154        0.794       36.059       21.990       20.291     1300.266      483.566      411.733        0.496        0.110       87.890       20.024        0.052      341.796       16.758      860.772
09/19/2014  02:48:00      -82.575      -14.371       -1.475       24.823       16.035       14.315      616.205      257.117      204.919        0.405        0.054       83.817       10.075        0.014      341.803       16.768      860.773
09/19/2014  02:49:00      -76.546      -21.926       -4.690       27.235       24.069       13.749      741.749      579.339      189.024        0.394        0.076       79.624       14.983        0.035      341.755       16.687      860.783
09/19/2014  02:50:00      -63.319      -43.031       -0.681       22.000       16.040       11.323      483.984      257.277      128.214        0.337        0.043       76.557        6.095        0.006      341.766       16.706      860.773
09/19/2014  02:51:00      -74.310      -32.268       -5.962       22.166       15.034       12.617      491.333      226.031      159.189        0.374        0.044       81.013        9.049        0.012      341.750       16.680      860.770
09/19/2014  02:52:00      -28.825      -28.329        0.358       29.946       12.327       14.138      896.742      151.952      199.870        0.144        0.062       40.416       16.681        0.170      341.834       16.821      860.779
09/19/2014  02:53:00      -39.128       -7.896       -2.556       16.467       13.108       10.615      271.151      171.829      112.678        0.108        0.028       39.916        6.534        0.027      341.767       16.707      860.799
09/19/2014  02:54:00      -57.032      -11.700       -0.711       26.144       17.302       10.908      683.491      299.343      118.990        0.225        0.055       58.220       10.933        0.035      341.683       16.568      860.808
09/19/2014  02:55:00      -48.288      -28.614        5.642       34.576       15.701       13.753     1195.482      246.517      189.138        0.241        0.082       56.129       13.707        0.060      341.738       16.660      860.807
09/19/2014  02:56:00      -84.971      -38.739        1.062       22.512       20.135        9.719      506.769      405.434       94.467        0.486        0.050       93.385        5.649        0.004      341.740       16.663      860.809
09/19/2014  02:57:00      -91.550      -45.225        1.910       24.897       20.132       13.834      619.864      405.306      191.368        0.582        0.061      102.111       12.091        0.014      341.779       16.729      860.817
09/19/2014  02:58:00      -93.032      -61.476       -2.148       27.136       20.151       14.367      736.381      406.045      206.425        0.689        0.067      111.509        9.324        0.007      341.783       16.736      860.830
09/19/2014  02:59:00      -77.704      -59.943       -1.759       36.679       28.090       16.782     1345.371      789.037      281.647        0.602        0.121       98.139       16.732        0.029      341.827       16.812      860.828
09/19/2014  03:00:00      -52.071      -53.307        4.780       32.798       35.320       18.268     1075.677     1247.474      333.729        0.412        0.133       74.519       22.119        0.088      341.822       16.802      860.824
09/19/2014  03:01:00      -79.174      -49.117       -5.551       44.211       32.837       21.972     1954.619     1078.260      482.783        0.611        0.176       93.172       21.919        0.055      341.869       16.881      860.831
09/19/2014  03:02:00      -49.635      -53.914        2.801       46.971       37.130       20.809     2206.239     1378.639      433.005        0.470        0.201       73.283       20.420        0.078      341.849       16.848      860.851
09/19/2014  03:03:00      -63.586       -9.434        2.654       35.991       27.634       19.027     1295.370      763.663      362.030        0.328        0.121       64.282       17.661        0.075      341.703       16.600      860.861
09/19/2014  03:04:00      -55.195      -48.736        2.656       37.251       33.481       21.725     1387.669     1121.010      471.980        0.420        0.149       73.632       22.430        0.093      341.712       16.614      860.853
09/19/2014  03:05:00      -56.694      -51.339        4.548       42.779       42.381       21.889     1830.011     1796.134      479.146        0.499        0.205       76.485       24.825        0.105      341.666       16.538      860.848
09/19/2014  03:06:00      -89.480      -68.898        0.084       40.863       44.699       21.954     1669.754     1998.028      481.957        0.845        0.207      112.932       20.423        0.033      341.575       16.384      860.861
09/19/2014  03:07:00     -157.874     -110.877      -13.459       35.101       26.929       21.425     1232.075      725.182      459.016        1.991        0.121      192.919       16.288        0.007      341.580       16.389      860.872
09/19/2014  03:08:00      -68.785      -65.563       -3.153       36.555       26.834       23.740     1336.251      720.057      563.607        0.583        0.131       95.026       21.223        0.050      341.569       16.371      860.876
09/19/2014  03:09:00     -103.226      -15.056       -9.219       30.150       27.076       15.524      909.017      733.116      240.983        0.642        0.094      104.318       17.937        0.030      341.582       16.393      860.873
09/19/2014  03:10:00     -121.042       -2.466      -11.147       28.058       26.689       14.719      787.227      712.309      216.659        0.825        0.086      121.067       11.478        0.009      341.456       16.181      860.881
09/19/2014  03:11:00     -118.509      -17.553        2.384       39.977       36.550       26.791     1598.152     1335.904      717.778        0.900        0.183      119.802       27.530        0.053      341.316       15.945      860.870
09/19/2014  03:12:00     -107.193      -21.923       -8.224       36.079       20.402       16.583     1301.692      416.231      274.985        0.702        0.100      109.412       15.481        0.020      341.331       15.970      860.855
09/19/2014  03:13:00     -103.731      -27.650       -1.963       39.771       31.387       18.081     1581.719      985.119      326.924        0.721        0.145      107.353       17.079        0.025      341.283       15.890      860.857
09/19/2014  03:14:00     -114.190        1.309       -1.365       43.980       31.642       22.833     1934.204     1001.246      521.348        0.825        0.173      114.197       22.127        0.038      341.200       15.748      860.857
09/19/2014  03:15:00     -114.594      -23.838       -3.206       43.925       38.104       23.989     1929.386     1451.943      575.461        0.883        0.198      117.047       26.441        0.051      341.231       15.801      860.851
09/19/2014  03:16:00     -123.275        2.066      -10.861       38.590       27.909       19.447     1489.226      778.934      378.178        0.898        0.132      123.292       18.324        0.022      341.232       15.803      860.844
09/19/2014  03:17:00     -114.651      -18.230       -8.868       37.703       24.808       18.369     1421.515      615.445      337.438        0.796        0.119      116.091       20.407        0.031      341.214       15.772      860.828
09/19/2014  03:18:00     -101.116      -17.122       -5.867       23.513       22.715       13.754      552.884      515.966      189.173        0.590        0.063      102.556       12.305        0.014      341.291       15.902      860.834
09/19/2014  03:19:00      -77.127      -24.456       -4.261       19.601       28.988       16.194      384.192      840.298      262.255        0.403        0.074       80.911       12.759        0.025      341.325       15.959      860.833
09/19/2014  03:20:00      -34.548      -21.677        1.873       24.522       29.273       11.746      601.339      856.882      137.966        0.163        0.080       40.785        7.451        0.033      341.323       15.955      860.827
09/19/2014  03:21:00      -76.037       -5.112       -7.301       27.227       19.947       11.060      741.286      397.876      122.327        0.356        0.063       76.209        8.791        0.013      341.387       16.065      860.822
09/19/2014  03:22:00      -92.829       11.300       -8.408       18.710       17.596       11.742      350.074      309.619      137.864        0.481        0.040       93.514        9.572        0.010      341.418       16.117      860.835
09/19/2014  03:23:00      -31.530        0.969        0.343       18.747       11.954       10.481      351.454      142.901      109.855        0.080        0.030       31.545        4.366        0.019      341.388       16.066      860.830
09/19/2014  03:24:00      -32.181       -4.340       -6.493       17.592       14.731       14.113      309.489      216.998      199.164        0.091        0.036       32.472        9.662        0.089      341.417       16.114      860.819
09/19/2014  03:25:00      -36.435        8.778       -5.886       11.494       18.345       15.954      132.106      336.547      254.515        0.108        0.036       37.478        7.446        0.039      341.455       16.178      860.818
09/19/2014  03:26:00      -44.005       -5.889       -3.067       14.167       22.200       15.563      200.706      492.842      242.199        0.146        0.047       44.397       16.033        0.130      341.533       16.313      860.814
09/19/2014  03:27:00      -39.734      -15.110        4.477       19.215       19.003       10.992      369.235      361.097      120.829        0.134        0.043       42.510       10.413        0.060      341.480       16.222      860.810
09/19/2014  03:28:00      -56.685       14.789      -10.347       24.955       28.304       10.654      622.744      801.091      113.506        0.254        0.077       58.583       11.360        0.038      341.497       16.252      860.805
09/19/2014  03:29:00      -83.436      -28.378       -9.146       16.613        9.371        6.920      275.989       87.815       47.884        0.413        0.021       88.130        6.656        0.006      341.437       16.149      860.811
09/19/2014  03:30:00      -87.766      -21.939      -12.705       18.514       17.571       12.170      342.770      308.725      148.119        0.457        0.040       90.466        9.905        0.012      341.364       16.024      860.829
09/19/2014  03:31:00     -100.268      -33.707       -4.260       32.851       20.148       13.450     1079.216      405.936      180.907        0.644        0.083      105.782       16.439        0.024      341.426       16.131      860.840
09/19/2014  03:32:00     -114.374      -43.747      -13.828       50.281       51.971       21.455     2528.220     2700.949      460.298        1.044        0.284      122.454       22.669        0.034      341.638       16.489      860.839
09/19/2014  03:33:00     -138.136      -53.882       -8.743       75.985       40.384       31.744     5773.787     1630.838     1007.665        1.524        0.421      148.273       35.162        0.056      341.578       16.387      860.834
09/19/2014  03:34:00      -97.103      -16.072       -6.892       43.275       31.986       24.368     1872.701     1023.080      593.808        0.661        0.174       98.425       23.779        0.058      341.528       16.303      860.840
09/19/2014  03:35:00      -68.489      -39.191       -8.643       52.850       38.656       22.411     2793.158     1494.279      502.236        0.554        0.239       78.909       25.069        0.101      341.505       16.265      860.848
09/19/2014  03:36:00      -85.240      -40.968      -11.929       23.254       22.944       16.798      540.768      526.417      282.170        0.522        0.067       94.574       16.709        0.031      341.449       16.169      860.862
09/19/2014  03:37:00     -107.323      -50.131       -7.563       30.739       23.352       15.851      944.862      545.301      251.255        0.791        0.087      118.454       10.570        0.008      341.460       16.188      860.854
09/19/2014  03:38:00      -68.181      -34.533       -5.334       49.510       26.179       17.622     2451.259      685.327      310.518        0.466        0.172       76.427       17.854        0.055      341.486       16.231      860.842
09/19/2014  03:39:00      -90.582      -66.488        0.385       41.409       28.597       22.208     1714.738      817.789      493.184        0.783        0.151      112.365       21.288        0.036      341.422       16.124      860.834
09/19/2014  03:40:00      -53.308      -34.673        7.308       31.618       29.670       21.087      999.713      880.329      444.658        0.321        0.116       63.592       18.285        0.083      341.429       16.135      860.833
09/19/2014  03:41:00      -75.956      -34.946       -8.889       40.736       20.833       16.649     1659.390      434.026      277.195        0.472        0.119       83.609       21.383        0.065      341.414       16.110      860.820
09/19/2014  03:42:00      -83.458      -37.197       -0.112       25.032       31.106       16.122      626.605      967.564      259.926        0.510        0.093       91.373       11.655        0.016      341.375       16.045      860.805
09/19/2014  03:43:00      -78.511      -19.350       -5.346       34.633       30.277       20.772     1199.428      916.713      431.486        0.456        0.127       80.861       16.170        0.040      341.369       16.034      860.790
09/19/2014  03:44:00     -106.329      -61.444       -9.808       16.160       28.256       16.661      261.136      798.394      277.572        0.826        0.067      122.806        9.088        0.005      341.371       16.035      860.781
09/19/2014  03:45:00      -89.723      -54.387       -3.509       36.653       31.325       19.976     1343.455      981.232      399.038        0.687        0.136      104.919       19.537        0.035      341.381       16.055      860.777
09/19/2014  03:46:00     -103.471      -35.949       -0.579       43.225       34.633       20.223     1868.437     1199.443      408.961        0.774        0.174      109.538       21.642        0.039      341.322       15.953      860.767
09/19/2014  03:47:00      -94.272      -41.730       -4.839       35.047       40.580       23.405     1228.324     1646.744      547.781        0.704        0.171      103.095       23.998        0.054      341.283       15.887      860.754
09/19/2014  03:48:00      -93.988      -45.557       -7.236       30.235       24.106       18.240      914.177      581.120      332.699        0.639        0.091      104.447       15.670        0.023      341.297       15.911      860.741
09/19/2014  03:49:00      -76.103      -61.460       -5.001       38.319       26.403       22.418     1468.359      697.127      502.546        0.613        0.133       97.822       18.869        0.037      341.328       15.965      860.730
09/19/2014  03:50:00      -86.175      -66.334       -0.336       47.185       44.412       26.282     2226.417     1972.400      690.750        0.836        0.244      108.749       28.494        0.069      341.281       15.884      860.724
09/19/2014  03:51:00      -55.785      -35.911        8.897       60.068       46.119       24.602     3608.216     2126.992      605.260        0.541        0.317       66.344       31.011        0.218      341.278       15.879      860.723
09/19/2014  03:52:00      -81.376      -69.288        6.688       46.115       46.698       32.807     2126.552     2180.661     1076.299        0.842        0.269      106.878       30.490        0.081      341.226       15.793      860.719
09/19/2014  03:53:00      -70.929      -47.716       -0.081       65.274       45.685       27.675     4260.687     2087.104      765.903        0.721        0.356       85.486       30.173        0.125      341.194       15.738      860.722
09/19/2014  03:54:00     -119.873      -90.105       -3.724       47.565       43.396       23.340     2262.456     1883.183      544.768        1.360        0.235      149.961       21.803        0.021      341.155       15.672      860.758
09/19/2014  03:55:00     -112.259      -93.763       -7.694       46.572       37.390       19.212     2168.949     1397.978      369.093        1.269        0.197      146.265       15.747        0.012      341.147       15.657      860.767
09/19/2014  03:56:00      -73.770      -66.423        8.194       41.365       34.382       30.789     1711.066     1182.130      947.948        0.688        0.192       99.267       26.512        0.071      341.118       15.611      860.782
09/19/2014  03:57:00     -103.357      -47.427        2.424       58.674       37.029       25.250     3442.653     1371.173      637.574        0.919        0.273      113.719       25.738        0.051      341.049       15.492      860.800
09/19/2014  03:58:00     -145.425      -80.799      -12.739       34.004       33.986       22.919     1156.288     1155.033      525.280        1.534        0.142      166.364       15.618        0.009      341.082       15.547      860.819
09/19/2014  03:59:00     -130.110      -73.088       -2.195       49.385       36.971       25.711     2438.904     1366.826      661.038        1.337        0.223      149.233       20.785        0.019      341.064       15.518      860.839
09/19/2014  04:00:00      -90.387      -99.309       -2.204       52.181       36.086       28.422     2722.869     1302.210      807.838        1.143        0.242      134.283       29.965        0.050      341.032       15.463      860.854
09/19/2014  04:01:00      -75.488     -134.600       -8.038       29.386       49.782       19.397      863.539     2478.203      376.230        1.380        0.186      154.323       17.038        0.012      341.043       15.481      860.850
09/19/2014  04:02:00      -91.964     -129.190      -13.507       56.565       63.178       31.499     3199.601     3991.443      992.182        1.675        0.409      158.579       35.996        0.052      341.042       15.480      860.853
09/19/2014  04:03:00      -87.640     -154.271       -5.387       37.815       41.949       30.202     1429.939     1759.707      912.191        1.780        0.205      177.427       26.217        0.022      341.010       15.425      860.864
09/19/2014  04:04:00      -66.519      -83.819        4.570       71.082       48.458       33.858     5052.685     2348.225     1146.386        1.001        0.427      107.007       43.594        0.166      341.075       15.538      860.848
09/19/2014  04:05:00      -37.885     -151.749       -3.346       53.283       68.325       32.075     2839.079     4668.291     1028.797        1.650        0.427      156.407       25.851        0.027      341.071       15.529      860.839
09/19/2014  04:06:00      -98.697      -76.136        5.806       78.085       45.337       34.618     6097.215     2055.471     1198.376        1.246        0.468      124.650       34.434        0.076      341.030       15.459      860.832
09/19/2014  04:07:00      -44.667      -51.769        0.979       47.979       32.081       27.715     2301.996     1029.173      768.105        0.439        0.205       68.376       27.011        0.156      341.028       15.457      860.843
09/19/2014  04:08:00      -86.698       -6.913       -0.776       41.596       30.712       27.874     1730.241      943.209      776.970        0.551        0.173       86.973       21.988        0.064      340.995       15.401      860.847
09/19/2014  04:09:00      -64.768      -15.659        1.383       35.968       22.082       21.063     1293.661      487.615      443.660        0.333        0.111       66.634       21.226        0.101      340.889       15.220      860.855
09/19/2014  04:10:00      -91.142       -9.469       -4.416       22.870       22.554       14.604      523.060      508.670      213.284        0.483        0.062       91.632       12.978        0.020      340.946       15.319      860.865
09/19/2014  04:11:00     -107.912      -34.594       -4.973       25.654       32.944       20.253      658.128     1085.327      410.188        0.751        0.108      113.321       11.815        0.011      340.937       15.303      860.875
09/19/2014  04:12:00      -69.162      -42.683        8.000       46.775       43.869       25.664     2187.854     1924.529      658.644        0.572        0.239       81.273       25.838        0.101      340.868       15.188      860.892
09/19/2014  04:13:00      -96.563      -43.168       -9.520       28.942       36.572       16.333      837.614     1337.529      266.762        0.686        0.122      105.773       10.610        0.010      340.905       15.249      860.925
09/19/2014  04:14:00      -63.502      -25.926        4.973       26.786       27.560       19.209      717.490      759.550      368.973        0.329        0.092       68.591       16.552        0.058      340.856       15.167      860.941
09/19/2014  04:15:00      -96.605      -61.373       -1.636       32.818       28.546       20.148     1077.017      814.862      405.941        0.770        0.115      114.452       11.535        0.010      340.973       15.363      860.962
09/19/2014  04:16:00      -32.349      -72.760        9.089       45.408       45.090       23.648     2061.864     2033.121      559.206        0.554        0.233       79.627       25.904        0.106      341.002       15.413      860.977
09/19/2014  04:17:00      -69.207      -75.877       -2.841       31.239       29.161       20.585      975.876      850.357      423.739        0.640        0.112      102.698       16.125        0.025      340.962       15.345      860.994
09/19/2014  04:18:00      -64.268      -89.805        0.807       39.218       32.140       24.436     1538.046     1033.006      597.106        0.768        0.158      110.432       25.981        0.055      340.946       15.319      861.000
09/19/2014  04:19:00      -82.833      -51.095       -1.271       38.344       27.113       23.536     1470.270      735.089      553.952        0.612        0.138       97.324       17.116        0.031      340.946       15.319      861.002
09/19/2014  04:20:00      -61.276      -23.516       10.514       30.805       32.185       20.191      948.951     1035.869      407.691        0.340        0.120       65.633       15.128        0.053      340.971       15.361      861.013
09/19/2014  04:21:00      -25.857      -45.725        9.023       42.780       22.285       19.320     1830.122      496.643      373.252        0.277        0.135       52.529       20.677        0.155      340.964       15.349      861.021
09/19/2014  04:22:00      -71.696      -56.247       -3.629       41.990       28.762       15.444     1763.134      827.257      238.512        0.557        0.141       91.127        8.562        0.009      340.939       15.304      861.013
09/19/2014  04:23:00      -58.259      -91.848       -5.757       27.529       24.364       18.553      757.840      593.611      344.203        0.678        0.085      108.767       15.017        0.019      340.935       15.299      860.994
09/19/2014  04:24:00      -69.852      -74.313       -0.908       31.186       36.321       22.456      972.556     1319.207      504.273        0.660        0.140      101.989       20.892        0.042      340.976       15.368      860.984
09/19/2014  04:25:00      -45.635      -46.919        6.948       41.335       25.122       22.358     1708.551      631.101      499.900        0.359        0.142       65.452       23.060        0.124      340.976       15.370      860.973
09/19/2014  04:26:00      -41.078      -52.313        5.005       30.024       27.142       15.175      901.464      736.711      230.274        0.316        0.093       66.514       12.737        0.037      341.019       15.440      860.964
09/19/2014  04:27:00      -40.799      -71.269       -2.725       34.297       46.799       25.529     1176.268     2190.108      651.741        0.538        0.201       82.120       20.566        0.063      341.031       15.463      860.947
09/19/2014  04:28:00      -55.922      -74.117        4.786       44.425       31.395       27.844     1973.601      985.655      775.271        0.619        0.187       92.847       30.098        0.105      341.006       15.417      860.940
09/19/2014  04:29:00      -19.191      -58.833        7.147       41.681       41.578       24.181     1737.335     1728.702      584.700        0.396        0.203       61.884       22.373        0.131      340.972       15.362      860.941
09/19/2014  04:30:00      -18.422      -39.867       19.110       57.228       31.186       28.769     3274.997      972.563      827.650        0.368        0.254       43.918       31.445        0.513      340.890       15.222      860.934
09/19/2014  04:31:00      -43.793      -83.919       -3.726       31.678       28.743       18.439     1003.488      826.132      340.007        0.557        0.108       94.658       16.743        0.031      340.930       15.290      860.922
09/19/2014  04:32:00      -48.153      -74.004       -5.825       33.819       22.813       15.001     1143.697      520.416      225.041        0.486        0.094       88.291       11.362        0.017      340.936       15.301      860.925
09/19/2014  04:33:00      -59.229      -56.878       -5.358       29.910       24.720       19.533      894.611      611.070      381.531        0.433        0.094       82.117       14.854        0.033      340.958       15.338      860.937
09/19/2014  04:34:00      -32.430      -33.106        4.699       38.456       24.715       17.606     1478.848      610.813      309.981        0.228        0.120       46.344       20.729        0.200      340.963       15.347      860.937
09/19/2014  04:35:00      -43.773      -65.379       -0.171       39.413       24.419       19.709     1553.360      596.266      388.431        0.436        0.127       78.680       15.297        0.038      340.963       15.346      860.929
09/19/2014  04:36:00      -45.830      -46.707       -2.520       27.791       29.248       17.537      772.323      855.444      307.554        0.311        0.097       65.437       13.733        0.044      340.977       15.371      860.928
09/19/2014  04:37:00      -23.413      -46.199        2.753       38.312       23.787       22.284     1467.826      565.800      496.560        0.261        0.127       51.793       14.666        0.080      341.018       15.440      860.928
09/19/2014  04:38:00      -84.929      -62.017        5.873       58.910       35.085       22.471     3470.440     1230.934      504.966        0.815        0.260      105.162       25.031        0.057      340.951       15.326      860.920
09/19/2014  04:39:00      -85.351      -62.249        3.053       39.640       31.284       21.449     1571.303      978.707      460.046        0.709        0.151      105.640       20.923        0.039      340.919       15.272      860.912
09/19/2014  04:40:00      -58.762      -63.522        0.631       33.041       29.497       19.491     1091.690      870.048      379.910        0.491        0.117       86.534       13.700        0.025      340.886       15.217      860.901
09/19/2014  04:41:00      -96.604      -58.250       -3.568       23.995       28.597       17.010      575.744      817.802      289.325        0.721        0.084      112.807       13.765        0.015      340.905       15.248      860.917
09/19/2014  04:42:00      -29.787      -33.940       19.486       48.707       30.040       27.281     2372.342      902.391      744.258        0.322        0.201       45.157       29.534        0.428      340.847       15.150      860.909
09/19/2014  04:43:00      -72.034      -51.121        6.184       62.891       38.157       22.233     3955.223     1455.952      494.327        0.687        0.295       88.330       27.301        0.096      340.929       15.289      860.901
09/19/2014  04:44:00      -97.204      -71.793        0.496       43.866       33.293       23.588     1924.269     1108.455      556.409        0.910        0.179      120.842       21.590        0.032      340.831       15.123      860.886
09/19/2014  04:45:00     -135.470      -35.796       -8.356       25.556       25.303       20.124      653.132      640.266      404.979        1.070        0.085      140.119       15.367        0.012      340.901       15.242      860.877
09/19/2014  04:46:00     -121.045      -72.473       -0.470       56.934       39.581       28.625     3241.490     1566.648      819.411        1.276        0.281      141.083       28.758        0.042      340.956       15.334      860.849
09/19/2014  04:47:00      -86.700      -67.781        6.545       46.703       42.915       29.292     2181.133     1841.710      858.000        0.852        0.244      110.051       22.912        0.043      340.931       15.292      860.832
09/19/2014  04:48:00      -50.353      -35.350       12.365       63.880       54.391       38.898     4080.649     2958.419     1513.021        0.624        0.428       61.523       34.573        0.316      340.889       15.221      860.808
09/19/2014  04:49:00     -113.326      -90.277        0.946       77.311       51.297       35.859     5977.014     2631.380     1285.836        1.544        0.495      144.889       43.866        0.092      340.839       15.136      860.795
09/19/2014  04:50:00     -108.054      -86.828        0.232       69.459       48.592       34.809     4824.561     2361.215     1211.643        1.380        0.420      138.618       34.235        0.061      340.792       15.056      860.802
09/19/2014  04:51:00     -119.209      -95.135       -3.142       43.392       33.355       27.959     1882.840     1112.554      781.718        1.352        0.189      152.517       24.956        0.027      340.780       15.037      860.801
09/19/2014  04:52:00     -117.533     -103.262       -3.741       50.451       39.548       26.805     2545.269     1564.074      718.506        1.466        0.241      156.452       28.086        0.032      340.797       15.065      860.802
09/19/2014  04:53:00     -104.332      -89.796       -3.716       36.935       30.443       24.446     1364.194      926.795      597.598        1.092        0.144      137.654       20.371        0.022      340.808       15.084      860.804
09/19/2014  04:54:00      -87.491      -78.047       -5.603       40.589       36.461       21.173     1647.499     1329.402      448.287        0.860        0.171      117.244       25.424        0.047      340.820       15.104      860.807
09/19/2014  04:55:00      -92.039      -62.583       -2.436       46.838       34.119       22.576     2193.795     1164.104      509.672        0.813        0.193      111.301       23.701        0.045      340.893       15.228      860.828
09/19/2014  04:56:00      -71.263      -54.385       -2.223       40.127       36.267       18.392     1610.174     1315.269      338.273        0.565        0.163       89.644       12.881        0.021      340.913       15.262      860.846
09/19/2014  04:57:00      -57.732      -20.632        1.566       39.075       20.092       19.451     1526.820      403.705      378.349        0.303        0.115       61.308       17.720        0.084      340.821       15.105      860.861
09/19/2014  04:58:00      -50.002      -58.599        1.703       30.477       28.694       15.034      928.871      823.357      226.014        0.396        0.099       77.033       10.463        0.018      340.931       15.292      860.881
09/19/2014  04:59:00      -58.805      -97.628       -3.196       31.219       33.163       19.824      974.629     1099.775      393.007        0.773        0.123      113.970       15.116        0.018      340.958       15.339      860.904
09/19/2014  05:00:00      -34.312      -44.667        8.002       29.413       29.244       19.375      865.097      855.218      375.389        0.267        0.105       56.325       12.415        0.049      340.965       15.350      860.916
09/19/2014  05:01:00      -73.142      -74.328        3.616       30.064       29.766       20.805      903.850      885.987      432.853        0.655        0.111      104.280       19.178        0.034      340.973       15.363      860.938
09/19/2014  05:02:00      -31.095      -31.513       11.735       33.763       26.072       20.038     1139.919      679.756      401.509        0.216        0.111       44.271       15.265        0.119      340.934       15.297      860.958
09/19/2014  05:03:00       -4.361      -28.841        8.234       25.413       26.009       14.557      645.840      676.445      211.912        0.123        0.077       29.169       11.443        0.154      340.942       15.311      860.981
09/19/2014  05:04:00      -15.155      -56.822        0.521       16.057       33.143       15.134      257.819     1098.485      229.032        0.252        0.079       58.808        4.406        0.006      340.905       15.249      861.007
09/19/2014  05:05:00        3.574      -33.720       -8.272        8.499       24.533        9.404       72.231      601.879       88.428        0.099        0.038       33.909       10.070        0.088      340.983       15.379      861.017
09/19/2014  05:06:00       -3.684      -14.207       13.748       14.261       19.210       18.256      203.370      369.022      333.265        0.065        0.045       14.677        9.609        0.429      340.734       14.957      861.021
09/19/2014  05:07:00       -6.599       -4.160        3.196        9.373       12.805       11.611       87.856      163.959      134.819        0.023        0.019        7.801        8.612        1.219      340.664       14.841      861.033
09/19/2014  05:08:00      -43.979      -19.706       -8.953       28.562       22.358       10.150      815.778      499.862      103.019        0.191        0.071       48.192        8.824        0.034      340.828       15.118      861.053
09/19/2014  05:09:00      -26.162       -6.126        3.855       19.606       19.152       11.166      384.382      366.806      124.689        0.081        0.044       26.870       11.220        0.174      340.855       15.164      861.053
09/19/2014  05:10:00      -26.699      -12.036       -3.728       16.700       12.302       12.543      278.903      151.336      157.333        0.073        0.029       29.286        7.341        0.063      340.889       15.221      861.056
09/19/2014  05:11:00      -43.571      -15.287       -2.207       27.679       25.575       13.778      766.135      654.084      189.831        0.187        0.081       46.175       12.994        0.079      340.809       15.086      861.067
09/19/2014  05:12:00      -50.734      -16.210        4.440       31.678       30.538       13.738     1003.519      932.539      188.743        0.249        0.106       53.260       14.491        0.074      340.793       15.060      861.091
09/19/2014  05:13:00      -44.467      -32.328       12.211       53.739       30.892       21.631     2887.845      954.331      467.904        0.374        0.216       54.976       25.485        0.215      340.729       14.950      861.103
09/19/2014  05:14:00      -39.859      -61.734        2.917       43.269       34.738       18.976     1872.198     1206.759      360.091        0.442        0.172       73.483       20.532        0.078      340.719       14.933      861.110
09/19/2014  05:15:00      -91.989      -26.114      -11.035       21.464       34.705       21.435      460.712     1204.434      459.465        0.569        0.106       95.624       13.108        0.019      340.691       14.888      861.121
09/19/2014  05:16:00      -49.841      -75.720        7.549       61.312       43.994       33.176     3759.144     1935.488     1100.630        0.753        0.340       90.651       28.764        0.101      340.645       14.808      861.127
09/19/2014  05:17:00      -84.611      -94.060       -8.194       38.018       35.222       19.414     1445.401     1240.582      376.922        0.957        0.153      126.516       21.647        0.029      340.565       14.674      861.137
09/19/2014  05:18:00      -65.121     -156.576       -4.911       41.374       44.822       24.669     1711.837     2009.038      608.538        1.655        0.216      169.579       25.243        0.022      340.546       14.641      861.133
09/19/2014  05:19:00      -42.303      -47.284        5.798       50.715       50.729       23.956     2571.979     2573.419      573.867        0.489        0.286       63.445       24.271        0.146      340.512       14.583      861.147
09/19/2014  05:20:00       -3.944      -65.023        5.770       37.194       31.427       24.047     1383.361      987.680      578.251        0.361        0.147       65.143       13.674        0.044      340.565       14.672      861.168
09/19/2014  05:21:00      -64.280      -46.633      -10.862       47.717       39.842       21.297     2276.868     1587.357      453.583        0.537        0.216       79.413       19.614        0.061      340.522       14.601      861.182
09/19/2014  05:22:00     -105.601      -53.723      -14.348       27.717       31.868       18.657      768.217     1015.591      348.068        0.819        0.107      118.481       10.408        0.008      340.517       14.595      861.203
09/19/2014  05:23:00      -66.332      -63.852      -11.108       35.136       28.267       18.352     1234.547      799.033      336.795        0.548        0.119       92.070       13.474        0.021      340.505       14.571      861.195
09/19/2014  05:24:00      -85.078      -56.518       -3.243       25.889       20.387       17.140      670.265      415.629      293.783        0.591        0.069      102.140       10.942        0.011      340.505       14.572      861.202
09/19/2014  05:25:00      -68.966      -77.427        3.454       39.098       29.543       23.268     1528.672      872.815      541.411        0.685        0.147      103.688       21.963        0.045      340.506       14.572      861.192
09/19/2014  05:26:00     -108.168     -105.642       -4.004       46.256       51.584       31.699     2139.597     2660.916     1004.804        1.434        0.290      151.197       29.759        0.039      340.381       14.361      861.173
09/19/2014  05:27:00     -135.671     -102.955       -8.632       53.016       60.039       32.494     2810.677     3604.633     1055.875        1.827        0.374      170.313       25.002        0.022      340.401       14.393      861.174
09/19/2014  05:28:00      -86.296      -99.627        1.490       50.768       64.992       32.052     2577.391     4223.902     1027.308        1.260        0.391      131.805       30.290        0.053      340.367       14.338      861.180
09/19/2014  05:29:00      -89.765      -58.347        5.531       52.181       35.576       21.356     2722.897     1265.649      456.095        0.797        0.222      107.062       21.655        0.041      340.358       14.325      861.177
09/19/2014  05:30:00     -173.369      -68.187       -9.792       56.792       55.490       30.112     3225.333     3079.188      906.718        2.101        0.361      186.297       22.192        0.014      340.365       14.334      861.189
09/19/2014  05:31:00      -96.810      -54.805        3.864       86.512       47.362       26.421     7484.242     2243.184      698.066        1.141        0.521      111.246       38.355        0.119      340.330       14.275      861.202
09/19/2014  05:32:00      -91.191      -63.270        0.495       62.031       42.670       28.507     3847.811     1820.738      812.652        0.940        0.324      110.990       27.505        0.061      340.321       14.260      861.213
09/19/2014  05:33:00      -86.210      -86.514        1.932       51.859       59.488       27.269     2689.404     3538.837      743.584        1.094        0.349      122.134       30.129        0.061      340.239       14.121      861.235
09/19/2014  05:34:00     -125.099      -82.776        0.186       60.744       46.161       29.371     3689.823     2130.863      862.633        1.459        0.334      150.006       34.754        0.054      340.209       14.070      861.248
09/19/2014  05:35:00     -112.378      -74.445       -0.889       52.269       36.210       34.762     2732.084     1311.180     1208.421        1.171        0.263      134.799       30.215        0.050      340.226       14.100      861.249
09/19/2014  05:36:00     -116.769      -81.707        3.230       53.484       51.523       33.843     2860.541     2654.577     1145.376        1.349        0.333      142.517       29.484        0.043      340.254       14.146      861.255
09/19/2014  05:37:00     -103.020      -62.688        2.188       58.451       42.277       24.641     3416.482     1787.379      607.175        1.018        0.291      120.594       26.051        0.047      340.303       14.228      861.270
09/19/2014  05:38:00      -73.691      -63.656        8.862       62.089       39.304       30.816     3855.026     1544.816      949.619        0.795        0.317       97.378       30.699        0.099      340.329       14.274      861.297
09/19/2014  05:39:00      -29.721      -65.385        0.153       55.354       34.098       21.126     3064.032     1162.679      446.307        0.491        0.234       71.823       23.604        0.108      340.306       14.236      861.293
09/19/2014  05:40:00      -65.237      -49.351        6.704       57.936       37.547       26.091     3356.542     1409.797      680.749        0.609        0.272       81.801       26.570        0.106      340.301       14.226      861.309
09/19/2014  05:41:00      -57.841      -36.811        3.545       46.406       37.371       26.574     2153.506     1396.589      706.178        0.448        0.213       68.562       20.109        0.086      340.304       14.232      861.320
09/19/2014  05:42:00      -77.936      -89.057       -7.523       64.117       59.771       36.672     4111.039     3572.570     1344.805        1.154        0.451      118.344       28.582        0.058      340.380       14.360      861.329
09/19/2014  05:43:00      -42.439      -48.771        5.675       36.217       30.572       25.065     1311.675      934.644      628.232        0.354        0.144       64.650       18.776        0.084      340.403       14.399      861.337
09/19/2014  05:44:00      -86.100      -72.352      -14.663       39.066       61.353       31.083     1526.137     3764.136      966.140        0.956        0.313      112.463       15.985        0.020      340.377       14.355      861.338
09/19/2014  05:45:00     -115.924      -60.611       -4.866       53.465       49.120       28.385     2858.477     2412.817      805.704        1.161        0.304      130.813       19.758        0.023      340.289       14.206      861.342
09/19/2014  05:46:00      -47.217      -87.617        8.170       56.465       64.059       35.093     3188.282     4103.531     1231.543        0.925        0.426       99.530       31.278        0.099      340.317       14.252      861.334
09/19/2014  05:47:00      -76.109      -84.868       -8.982       58.542       52.374       29.771     3427.144     2743.065      886.339        1.006        0.353      113.996       11.719        0.011      340.283       14.196      861.327
09/19/2014  05:48:00      -86.399     -124.868        1.670       62.497       68.584       33.527     3905.857     4703.758     1124.042        1.639        0.487      151.844       38.786        0.065      340.401       14.394      861.310
09/19/2014  05:49:00      -23.222     -116.246       -5.231       57.802       57.752       35.872     3341.028     3335.314     1286.796        1.102        0.398      118.543       21.091        0.032      340.355       14.317      861.317
09/19/2014  05:50:00      -39.429      -64.808        4.003       48.245       55.863       39.158     2327.571     3120.681     1533.377        0.637        0.349       75.860       23.405        0.095      340.315       14.251      861.339
09/19/2014  05:51:00      -11.621      -40.925       10.226       39.038       36.482       36.466     1523.974     1330.931     1329.805        0.305        0.209       42.543       13.203        0.096      340.214       14.078      861.346
09/19/2014  05:52:00      -17.956      -48.718        3.197       54.229       52.089       33.953     2940.828     2713.230     1152.775        0.476        0.340       51.922       27.599        0.283      340.230       14.106      861.358
09/19/2014  05:53:00      -47.290      -66.543       -2.353       68.907       49.129       28.521     4748.169     2413.690      813.444        0.732        0.399       81.636       19.298        0.056      340.174       14.012      861.374
09/19/2014  05:54:00     -128.832      -94.727      -14.934       53.639       42.556       27.915     2877.111     1811.053      779.248        1.563        0.273      159.909       14.535        0.008      340.123       13.927      861.392
09/19/2014  05:55:00     -109.036     -121.550        2.978       50.223       59.817       26.449     2522.386     3578.111      699.576        1.673        0.340      163.288       28.368        0.030      340.096       13.879      861.394
09/19/2014  05:56:00     -114.329     -115.334       -2.571       57.083       52.559       33.271     3258.498     2762.416     1106.949        1.675        0.356      162.398       27.044        0.028      340.133       13.943      861.394
09/19/2014  05:57:00     -114.377      -74.005       -0.465       58.531       32.572       26.247     3425.842     1060.945      688.895        1.187        0.259      136.231       18.694        0.019      340.181       14.024      861.377
09/19/2014  05:58:00     -137.546      -90.478       -9.544       69.438       47.323       30.871     4821.689     2239.423      952.997        1.760        0.401      164.637       32.973        0.040      340.151       13.974      861.369
09/19/2014  05:59:00     -143.598      -69.949        0.876       39.607       46.022       30.837     1568.738     2118.060      950.927        1.507        0.232      159.729       23.317        0.021      340.160       13.989      861.375
09/19/2014  06:00:00     -154.005      -90.383       -1.953       60.770       50.160       34.686     3692.972     2516.064     1203.112        1.965        0.371      178.568       32.149        0.032      340.182       14.024      861.384
09/19/2014  06:01:00     -143.076     -115.715        2.561       76.340       44.639       38.617     5827.855     1992.604     1491.266        2.159        0.466      184.012       42.150        0.052      340.204       14.062      861.396
09/19/2014  06:02:00     -117.966      -98.511        5.502       84.321       64.616       39.451     7110.007     4175.284     1556.386        1.824        0.642      153.689       41.190        0.072      340.211       14.074      861.412
09/19/2014  06:03:00      -97.878      -79.046        8.206       61.470       51.692       30.115     3778.545     2672.038      906.909        1.163        0.368      125.811       25.383        0.041      340.270       14.174      861.441
09/19/2014  06:04:00     -128.398     -102.834        8.536       57.224       62.695       34.757     3274.549     3930.671     1208.048        1.777        0.421      164.502       32.338        0.039      340.273       14.178      861.461
09/19/2014  06:05:00     -123.972     -115.699        4.204       59.823       50.469       37.339     3578.745     2547.109     1394.189        1.815        0.376      169.574       36.561        0.046      340.361       14.328      861.471
09/19/2014  06:06:00      -94.851      -74.362        3.813       71.698       45.694       35.502     5140.579     2087.899     1260.380        1.151        0.424      120.526       35.414        0.086      340.343       14.298      861.485
09/19/2014  06:07:00      -88.129      -59.040       12.709       63.063       52.146       34.004     3976.889     2719.176     1156.296        0.963        0.393      106.077       36.778        0.120      340.327       14.269      861.497
09/19/2014  06:08:00      -95.557      -68.599       -0.419       65.049       36.521       30.098     4231.398     1333.799      905.897        1.015        0.324      117.630       32.271        0.075      340.364       14.334      861.501
09/19/2014  06:09:00     -101.914      -92.777       -2.412       45.863       37.744       27.859     2103.398     1424.603      776.126        1.165        0.215      137.819       16.923        0.015      340.343       14.298      861.507
09/19/2014  06:10:00     -108.345      -92.227        3.237       52.677       37.779       28.541     2774.900     1427.218      814.602        1.263        0.251      142.282       29.017        0.042      340.382       14.361      861.521
09/19/2014  06:11:00      -62.687      -67.512        5.442       68.411       52.047       42.240     4680.011     2708.879     1784.222        0.884        0.459       92.128       44.904        0.238      340.461       14.496      861.522
09/19/2014  06:12:00     -103.707      -99.467        2.578       58.305       53.155       34.618     3399.458     2825.459     1198.418        1.404        0.371      143.697       30.643        0.045      340.532       14.618      861.521
09/19/2014  06:13:00      -97.564      -92.686       -6.100       66.652       44.435       29.772     4442.541     1974.435      886.380        1.272        0.365      134.571       30.904        0.053      340.510       14.580      861.528
09/19/2014  06:14:00     -132.163     -108.722       -9.524       47.868       41.259       29.774     2291.392     1702.340      886.506        1.713        0.244      171.136       13.669        0.006      340.468       14.508      861.523
09/19/2014  06:15:00     -100.500     -103.329       -5.298       49.503       44.357       28.487     2450.516     1967.507      811.525        1.302        0.261      144.143       15.579        0.012      340.394       14.382      861.522
09/19/2014  06:16:00      -52.566      -85.850       16.286       62.834       38.190       32.130     3948.157     1458.444     1032.312        0.842        0.322      100.665       23.033        0.052      340.292       14.210      861.528
09/19/2014  06:17:00     -134.790     -100.248       -7.320       64.333       71.244       38.298     4138.702     5075.768     1466.728        1.947        0.534      167.982       29.140        0.030      340.140       13.954      861.533
09/19/2014  06:18:00     -117.353     -150.983       -9.558       45.942       57.858       30.579     2110.665     3347.594      935.090        2.152        0.320      191.227       27.546        0.021      340.061       13.819      861.541
09/19/2014  06:19:00     -137.851     -166.452       -7.507       62.118       50.100       32.995     3858.627     2510.057     1088.691        2.711        0.373      216.123       32.750        0.023      340.108       13.898      861.540
09/19/2014  06:20:00      -87.909      -82.223        0.050       57.984       60.623       29.261     3362.120     3675.115      856.201        1.119        0.395      120.369       29.277        0.059      340.144       13.962      861.546
09/19/2014  06:21:00     -121.323      -87.427       -9.841       62.243       51.715       33.950     3874.187     2674.482     1152.583        1.508        0.385      149.542       25.528        0.029      340.149       13.971      861.551
09/19/2014  06:22:00      -76.034      -41.768       -8.463       49.081       43.777       33.950     2408.976     1916.425     1152.629        0.654        0.274       86.751       26.358        0.092      340.164       13.995      861.560
09/19/2014  06:23:00      -65.582      -40.546        4.079       49.492       49.451       25.846     2449.448     2445.365      668.011        0.576        0.278       77.104       20.062        0.068      340.184       14.029      861.581
09/19/2014  06:24:00      -61.645     -112.892      -15.150       42.536       37.668       19.441     1809.279     1418.864      377.949        1.019        0.180      128.627       11.742        0.008      340.239       14.122      861.605
09/19/2014  06:25:00      -79.249      -49.452      -11.361       39.983       32.058       16.177     1598.680     1027.721      261.692        0.587        0.144       93.412       15.230        0.027      340.272       14.176      861.624
09/19/2014  06:26:00      -96.101      -57.414       -3.542       40.081       31.549       26.597     1606.448      995.341      707.424        0.793        0.165      111.945       23.135        0.043      340.268       14.170      861.648
09/19/2014  06:27:00      -67.703     -107.011        1.263       47.496       36.675       30.667     2255.857     1345.041      940.462        1.029        0.227      126.630       22.054        0.030      340.190       14.039      861.666
09/19/2014  06:28:00     -121.561     -143.439       -8.225       43.798       48.014       31.951     1918.273     2305.359     1020.870        2.033        0.262      188.021       28.354        0.023      340.109       13.901      861.670
09/19/2014  06:29:00     -113.530     -120.617       -2.952       43.346       44.281       25.533     1878.889     1960.828      651.926        1.597        0.225      165.643       25.288        0.023      340.090       13.869      861.675
09/19/2014  06:30:00     -121.776      -99.688      -14.173       46.804       49.484       26.892     2190.657     2448.712      723.178        1.516        0.268      157.376       26.822        0.029      340.106       13.897      861.668
09/19/2014  06:31:00      -98.460      -82.852        0.262       63.988       67.122       30.054     4094.421     4505.308      903.246        1.303        0.475      128.681       33.666        0.068      340.071       13.840      861.659
09/19/2014  06:32:00      -74.827     -102.823        0.008       48.559       62.844       27.668     2357.953     3949.335      765.498        1.162        0.354      127.168       24.475        0.037      340.115       13.913      861.657
09/19/2014  06:33:00      -68.153      -77.252       10.403       53.288       46.804       30.622     2839.649     2190.571      937.701        0.834        0.298      103.018       25.031        0.059      340.123       13.927      861.663
09/19/2014  06:34:00      -75.055      -45.791        7.354       52.117       56.562       26.311     2716.149     3199.229      692.289        0.719        0.330       87.921       21.219        0.058      340.093       13.877      861.677
09/19/2014  06:35:00      -66.456      -77.890        8.110       47.635       57.993       35.840     2269.059     3363.159     1284.504        0.873        0.346      102.388       35.218        0.118      340.105       13.896      861.696
09/19/2014  06:36:00      -62.893     -101.092       -5.131       53.807       60.683       33.584     2895.210     3682.387     1127.858        1.095        0.385      119.059       25.455        0.046      340.126       13.933      861.716
09/19/2014  06:37:00      -45.078     -110.471      -10.467       44.965       57.289       22.235     2021.848     3281.993      494.381        1.007        0.290      119.314       16.233        0.019      340.262       14.160      861.733
09/19/2014  06:38:00      -75.823      -72.892       -0.424       59.424       35.646       28.367     3531.249     1270.615      804.658        0.833        0.280      105.178       19.020        0.033      340.279       14.188      861.734
09/19/2014  06:39:00      -80.281      -81.786        4.274       64.921       41.402       27.493     4214.799     1714.105      755.890        0.992        0.334      114.604       25.402        0.049      340.235       14.115      861.734
09/19/2014  06:40:00      -40.984      -76.211        6.470       39.529       47.312       24.485     1562.580     2238.416      599.529        0.596        0.220       86.532       18.018        0.043      340.175       14.015      861.731
09/19/2014  06:41:00      -26.354      -44.685        1.492       27.134       36.965       19.620      736.230     1366.417      384.946        0.259        0.124       51.878       16.765        0.104      340.171       14.006      861.735
09/19/2014  06:42:00      -28.497      -20.490        9.415       39.311       19.669       16.121     1545.350      386.869      259.878        0.176        0.110       35.099       18.946        0.291      340.165       13.998      861.749
09/19/2014  06:43:00      -68.389      -46.080        6.699       41.987       39.681       22.057     1762.937     1574.604      486.526        0.533        0.191       82.465       15.612        0.036      340.168       14.004      861.766
09/19/2014  06:44:00      -60.229      -37.788       -6.934       28.706       23.392       15.633      824.018      547.184      244.377        0.336        0.081       71.102       13.577        0.036      340.126       13.932      861.781
09/19/2014  06:45:00      -37.568      -74.834        3.495       22.293       27.553       19.559      496.992      759.148      382.549        0.433        0.082       83.734       12.080        0.021      340.139       13.954      861.788
09/19/2014  06:46:00      -79.964      -32.047       -0.750       40.750       18.808       16.537     1660.531      353.740      273.460        0.485        0.114       86.147       18.513        0.046      340.175       14.015      861.798
09/19/2014  06:47:00      -68.460      -37.659       -5.879       41.193       26.757       15.817     1696.890      715.928      250.176        0.440        0.133       78.134       13.685        0.031      340.187       14.035      861.806
09/19/2014  06:48:00      -59.964      -48.438        4.694       36.432       31.834       18.653     1327.284     1013.427      347.945        0.433        0.134       77.084       17.381        0.051      340.136       13.948      861.826
09/19/2014  06:49:00      -45.164      -51.829       -0.808       48.026       36.170       21.176     2306.494     1308.257      448.408        0.439        0.203       68.747       12.669        0.034      340.184       14.030      861.847
09/19/2014  06:50:00      -75.127      -58.417       -2.488       28.867       27.621       21.852      833.309      762.941      477.498        0.557        0.104       95.166       14.385        0.023      340.118       13.918      861.881
09/19/2014  06:51:00      -60.484      -58.710       -2.332       35.271       30.748       17.554     1244.072      945.451      308.134        0.480        0.125       84.292       20.028        0.056      340.083       13.859      861.889
09/19/2014  06:52:00      -55.701      -66.138       -7.536       35.309       28.059       25.826     1246.732      787.312      667.000        0.512        0.135       86.468       25.843        0.089      340.129       13.935      861.899
09/19/2014  06:53:00      -99.324      -52.049      -12.652       25.477       28.206       19.612      649.074      795.564      384.623        0.728        0.091      112.135       11.055        0.010      340.119       13.920      861.897
09/19/2014  06:54:00     -102.955      -54.301      -14.555       26.055       21.684       18.812      678.855      470.211      353.902        0.763        0.075      116.398       14.561        0.016      340.138       13.952      861.902
09/19/2014  06:55:00     -102.341      -52.134       -1.198       27.546       33.432       20.465      758.799     1117.709      418.833        0.774        0.115      114.855       14.270        0.015      340.059       13.821      861.920
09/19/2014  06:56:00      -65.343      -42.675       -7.889       40.180       16.030       15.929     1614.401      256.956      253.722        0.414        0.106       78.044        9.710        0.015      340.040       13.787      861.931
09/19/2014  06:57:00      -11.650      -22.913        5.621       28.350       24.702       20.548      803.744      610.172      422.212        0.126        0.092       25.705       18.756        0.532      340.053       13.807      861.948
09/19/2014  06:58:00      -65.571       -6.883       -9.125       16.191       17.629       17.964      262.157      310.769      322.710        0.266        0.045       65.932       12.933        0.038      340.135       13.946      861.957
09/19/2014  06:59:00      -72.467      -22.365       -4.345       16.123       21.227       15.258      259.950      450.568      232.820        0.336        0.047       75.840        6.220        0.007      340.146       13.964      861.967
09/19/2014  07:00:00      -56.606      -68.986        9.337       47.747       47.639       30.199     2279.761     2269.440      911.971        0.675        0.273       89.237       30.789        0.119      340.179       14.020      861.978
09/19/2014  07:01:00      -87.918     -112.630      -14.733       31.811       30.431       21.205     1011.923      926.057      449.655        1.151        0.119      142.882       21.652        0.023      340.147       13.968      862.007
09/19/2014  07:02:00      -25.421      -28.557        0.190       35.154       24.647       19.457     1235.776      607.454      378.564        0.184        0.111       38.232       15.762        0.170      340.178       14.019      862.035
09/19/2014  07:03:00      -31.422       -5.153        5.282       32.491       22.858       18.846     1055.688      522.509      355.190        0.149        0.097       31.842        9.642        0.092      340.152       13.975      862.053
09/19/2014  07:04:00      -28.933      -31.667        6.975       31.135       24.865       19.412      969.377      618.291      376.838        0.193        0.098       42.894       17.869        0.174      340.191       14.042      862.061
09/19/2014  07:05:00      -78.074      -64.642       -1.932       37.738       35.194       23.177     1424.177     1238.641      537.173        0.674        0.160      101.362       18.173        0.032      340.169       14.003      862.069
09/19/2014  07:06:00      -44.013      -34.349        6.910       38.586       33.043       22.971     1488.866     1091.846      527.651        0.314        0.155       55.831       25.296        0.205      340.190       14.039      862.074
09/19/2014  07:07:00      -28.085      -36.226        2.924       32.769       28.073       17.936     1073.819      788.099      321.691        0.215        0.109       45.837       12.458        0.074      340.229       14.103      862.084
09/19/2014  07:08:00      -30.348      -51.302        2.858       27.536       26.420       22.914      758.213      698.029      525.069        0.277        0.099       59.606       13.859        0.054      340.304       14.230      862.093
09/19/2014  07:09:00      -28.248      -32.369        3.564       21.500       30.884       17.272      462.229      953.799      298.319        0.179        0.086       42.962       12.887        0.090      340.309       14.239      862.107
09/19/2014  07:10:00      -40.705        8.695      -13.112       20.576       19.627       19.434      423.389      385.205      377.691        0.155        0.059       41.623       10.873        0.068      340.285       14.200      862.109
09/19/2014  07:11:00      -51.632      -23.758        4.235       26.322       19.322       14.806      692.829      373.359      219.223        0.227        0.064       56.836       13.715        0.058      340.298       14.221      862.114
09/19/2014  07:12:00      -53.514      -18.408       -0.214       26.639       19.608       14.288      709.640      384.470      204.133        0.225        0.065       56.591       14.312        0.064      340.256       14.150      862.113
09/19/2014  07:13:00     -104.491      -31.899        0.101       36.138       27.937       19.281     1305.975      780.498      371.755        0.720        0.123      109.252       17.775        0.026      340.185       14.030      862.115
09/19/2014  07:14:00      -85.313      -73.248       -1.889       43.721       32.049       23.224     1911.539     1027.157      539.341        0.806        0.174      112.444       21.256        0.036      340.195       14.048      862.115
09/19/2014  07:15:00      -73.845      -45.709        0.008       51.574       31.008       28.210     2659.842      961.493      795.827        0.598        0.221       86.847       31.469        0.131      340.203       14.062      862.122
09/19/2014  07:16:00     -107.674      -69.079        4.361       59.251       36.426       31.334     3510.690     1326.850      981.822        1.110        0.291      127.928       31.937        0.062      340.092       13.875      862.121
09/19/2014  07:17:00     -133.731      -64.264       -2.564       38.940       30.047       19.754     1516.335      902.803      390.221        1.241        0.140      148.370       18.944        0.016      340.070       13.838      862.131
09/19/2014  07:18:00      -88.972      -49.585       -2.772       45.345       42.429       21.640     2056.157     1800.259      468.272        0.735        0.216      101.856       17.952        0.031      340.085       13.862      862.141
09/19/2014  07:19:00      -98.717      -73.677        4.933       51.336       40.460       28.877     2635.424     1637.012      833.905        1.015        0.255      123.180       21.844        0.031      340.124       13.927      862.141
09/19/2014  07:20:00     -119.740      -64.742        4.816       72.318       44.720       27.850     5229.931     1999.836      775.642        1.328        0.400      136.122       30.143        0.049      340.059       13.819      862.139
09/19/2014  07:21:00     -109.189      -49.518        5.954       70.170       47.856       31.736     4923.877     2290.226     1007.189        1.131        0.411      119.893       28.441        0.056      340.005       13.726      862.143
09/19/2014  07:22:00     -139.533     -101.579      -11.925       57.852       51.816       27.228     3346.881     2684.944      741.371        1.835        0.339      172.592       23.482        0.019      339.993       13.706      862.140
09/19/2014  07:23:00      -88.770      -65.024        8.176       62.468       40.709       31.580     3902.266     1657.246      997.292        0.936        0.328      110.037       34.094        0.096      339.987       13.696      862.121
09/19/2014  07:24:00     -127.748     -116.270       -6.560       71.834       46.626       29.809     5160.188     2173.962      888.602        1.905        0.411      172.737       26.879        0.024      339.921       13.585      862.111
09/19/2014  07:25:00     -139.938      -98.378        7.222       89.958       69.191       43.379     8092.412     4787.385     1881.740        2.203        0.738      171.058       52.099        0.093      339.886       13.523      862.117
09/19/2014  07:26:00     -144.908      -65.218       -3.294       64.108       42.215       37.476     4109.868     1782.143     1404.421        1.628        0.365      158.908       26.186        0.027      339.851       13.466      862.132
09/19/2014  07:27:00     -114.086      -99.423       -5.076       49.477       63.609       26.913     2447.957     4046.144      724.332        1.507        0.361      151.329       26.493        0.031      339.845       13.456      862.151
09/19/2014  07:28:00     -123.133     -108.065        1.136       48.864       33.656       29.813     2387.656     1132.704      888.821        1.562        0.220      163.828       22.342        0.019      339.807       13.392      862.167
09/19/2014  07:29:00     -168.586     -112.410       -7.218       62.520       52.775       32.814     3908.733     2785.224     1076.753        2.444        0.389      202.626       24.637        0.015      339.811       13.398      862.177
09/19/2014  07:30:00      -96.695     -118.337       -4.711       55.069       49.924       29.977     3032.634     2492.402      898.609        1.490        0.321      152.819       27.445        0.032      339.818       13.412      862.188
09/19/2014  07:31:00     -134.637     -114.183       -4.169       92.506       56.426       37.812     8557.350     3183.870     1429.717        2.217        0.659      176.535       41.093        0.054      339.787       13.359      862.195
09/19/2014  07:32:00     -174.634      -84.686       -4.251       71.880       48.600       35.266     5166.682     2361.983     1243.714        2.323        0.439      194.085       30.659        0.025      339.770       13.331      862.194
09/19/2014  07:33:00      -91.384      -52.392        7.365       55.391       44.533       34.469     3068.149     1983.170     1188.146        0.869        0.312      105.337       22.351        0.045      339.811       13.400      862.201
09/19/2014  07:34:00     -183.701      -87.177       -6.925       73.613       55.156       39.400     5418.876     3042.200     1552.346        2.570        0.501      203.337       26.254        0.017      339.793       13.367      862.199
09/19/2014  07:35:00     -137.692      -64.518        3.485       73.842       56.948       40.184     5452.578     3243.127     1614.717        1.672        0.516      152.059       36.545        0.058      339.762       13.316      862.200
09/19/2014  07:36:00     -161.912      -98.355        0.809       61.551       77.928       36.150     3788.537     6072.771     1306.796        2.353        0.558      189.445       18.679        0.010      339.737       13.273      862.204
09/19/2014  07:37:00     -111.485     -126.007        0.469       53.617       69.852       33.278     2874.742     4879.245     1107.454        1.858        0.443      168.246       32.086        0.036      339.744       13.285      862.200
09/19/2014  07:38:00     -108.097      -76.975       11.514       70.853       56.606       34.299     5020.131     3204.281     1176.413        1.357        0.470      132.703       38.789        0.085      339.782       13.352      862.203
09/19/2014  07:39:00     -115.306      -82.079        4.353       71.366       45.623       32.094     5093.151     2081.434     1030.018        1.413        0.410      141.536       38.065        0.072      339.808       13.395      862.208
09/19/2014  07:40:00     -122.233     -120.737       -6.043       58.486       59.498       28.685     3420.594     3539.988      822.851        1.867        0.389      171.810       32.219        0.035      339.781       13.347      862.211
09/19/2014  07:41:00     -116.375      -91.588       -9.181       50.309       55.449       28.684     2530.953     3074.567      822.790        1.422        0.321      148.093       13.055        0.008      339.783       13.352      862.229
09/19/2014  07:42:00     -119.944     -102.038       -3.082       62.711       41.655       34.158     3932.712     1735.150     1166.754        1.582        0.342      157.475       34.609        0.048      339.798       13.378      862.247
09/19/2014  07:43:00     -106.001      -86.556      -13.152       49.196       40.058       27.191     2420.251     1604.652      739.371        1.183        0.238      136.851       23.013        0.028      339.841       13.451      862.265
09/19/2014  07:44:00     -140.470     -132.030       -9.961       48.410       48.717       33.920     2343.552     2373.358     1150.548        2.156        0.293      192.779       28.268        0.022      339.817       13.408      862.288
09/19/2014  07:45:00     -141.260     -109.344       -2.874       66.811       71.468       34.333     4463.703     5107.693     1178.745        2.133        0.538      178.635       36.485        0.042      339.775       13.338      862.305
09/19/2014  07:46:00      -87.312      -45.332        2.624       50.260       36.628       21.184     2526.019     1341.601      448.743        0.700        0.216       98.379       14.845        0.023      339.867       13.494      862.319
09/19/2014  07:47:00      -88.650      -93.137       -6.935       40.670       45.057       25.391     1654.051     2030.120      644.688        1.045        0.216      128.582       19.251        0.022      339.896       13.542      862.317
09/19/2014  07:48:00      -78.522      -70.856        0.536       44.900       34.588       24.372     2016.043     1196.359      593.983        0.750        0.190      105.765       22.053        0.043      339.901       13.551      862.306
09/19/2014  07:49:00      -66.391      -72.732       -0.727       38.932       44.645       26.035     1515.671     1993.134      677.842        0.694        0.209       98.477       17.937        0.033      339.937       13.614      862.289
09/19/2014  07:50:00      -61.547      -46.442        4.902       51.093       49.649       25.129     2610.495     2465.011      631.478        0.584        0.285       77.103       27.444        0.127      339.958       13.649      862.272
09/19/2014  07:51:00      -84.567      -93.147       -6.903       37.671       42.901       20.560     1419.085     1840.528      422.694        0.978        0.184      125.809       11.362        0.008      339.969       13.667      862.258
09/19/2014  07:52:00      -72.842      -59.655        4.912       48.156       32.222       20.865     2318.996     1038.284      435.367        0.634        0.190       94.152       16.167        0.029      339.991       13.704      862.246
09/19/2014  07:53:00     -112.396      -93.686       -7.953       37.120       44.092       23.729     1377.898     1944.064      563.054        1.268        0.194      146.322       19.462        0.018      339.984       13.692      862.226
09/19/2014  07:54:00     -114.124      -52.275       -1.505       47.402       33.212       21.448     2246.933     1103.036      460.007        0.978        0.190      125.527       16.518        0.017      339.989       13.700      862.216
09/19/2014  07:55:00      -74.685      -57.971        0.621       40.835       31.953       20.550     1667.506     1020.990      422.303        0.602        0.156       94.543       21.662        0.052      340.012       13.740      862.202
09/19/2014  07:56:00      -70.601      -50.823       -3.316       43.850       29.392       23.444     1922.788      863.861      549.626        0.546        0.167       86.991       23.709        0.074      340.059       13.818      862.197
09/19/2014  07:57:00      -62.561      -39.448       -5.961       46.888       25.424       24.021     2198.451      646.377      577.013        0.446        0.171       73.959       25.466        0.119      340.106       13.898      862.196
09/19/2014  07:58:00     -107.755        4.169      -15.054       46.328       28.351       21.548     2146.244      803.763      464.333        0.763        0.171      107.835       23.143        0.046      340.199       14.055      862.198
09/19/2014  07:59:00      -99.949        3.119       -1.478       40.182       34.515       23.219     1614.570     1191.271      539.114        0.667        0.167       99.997       21.475        0.046      340.108       13.901      862.197
09/19/2014  08:00:00      -86.780      -30.347        5.799       42.278       37.183       22.864     1787.460     1382.602      522.743        0.609        0.185       91.934       23.128        0.063      340.019       13.751      862.195
09/19/2014  08:01:00      -52.510      -10.961        5.325       41.169       22.023       16.903     1694.862      485.006      285.716        0.269        0.123       53.642       22.254        0.172      340.038       13.782      862.195
09/19/2014  08:02:00     -106.060      -23.298      -11.116       29.249       29.342       13.113      855.500      860.930      171.942        0.690        0.094      108.589       11.954        0.012      340.032       13.772      862.195
09/19/2014  08:03:00      -78.716      -19.002      -12.454       23.526       22.241       13.067      553.452      494.681      170.740        0.397        0.061       80.977       11.004        0.018      340.068       13.835      862.195
09/19/2014  08:04:00      -72.545      -11.365       -1.884       27.379       18.024       19.006      749.631      324.858      361.227        0.342        0.072       73.430       18.709        0.065      340.051       13.804      862.191
09/19/2014  08:05:00      -92.245       -0.987       -6.567       24.102       22.019       15.760      580.890      484.838      248.388        0.493        0.066       92.250       13.993        0.023      340.078       13.851      862.189
09/19/2014  08:06:00      -77.260      -27.717       -4.170       21.711       20.356       14.424      471.353      414.378      208.046        0.392        0.055       82.081       12.940        0.025      340.150       13.972      862.192
09/19/2014  08:07:00      -42.129      -22.153        4.619       17.629       18.515       16.094      310.786      342.807      259.026        0.160        0.046       47.598        9.804        0.042      340.094       13.878      862.200
09/19/2014  08:08:00      -81.271      -12.104       -5.720       24.335       16.806       14.062      592.193      282.454      197.746        0.393        0.054       82.167       11.052        0.018      340.086       13.863      862.202
09/19/2014  08:09:00      -72.483      -18.972       -4.807       23.617       21.569       16.264      557.774      465.210      264.523        0.346        0.064       74.925       14.992        0.040      340.122       13.925      862.209
09/19/2014  08:10:00      -50.492      -21.152       -2.723       25.767       20.825       10.435      663.959      433.699      108.891        0.211        0.060       54.743        8.537        0.024      340.199       14.055      862.206
09/19/2014  08:11:00      -66.905      -17.044       -4.079       19.171       20.069       11.723      367.538      402.745      137.426        0.285        0.045       69.042        5.944        0.007      340.171       14.007      862.211
09/19/2014  08:12:00      -70.161      -24.033       -5.979       17.406       14.779       12.303      302.976      218.432      151.355        0.310        0.034       74.163        8.513        0.013      340.225       14.097      862.209
09/19/2014  08:13:00      -76.415      -29.614       -5.566       16.380       17.651       12.570      268.298      311.546      157.993        0.374        0.037       81.952        8.426        0.011      340.252       14.143      862.185
09/19/2014  08:14:00      -60.751      -34.757       -2.186       25.091       21.946       12.765      629.557      481.637      162.950        0.309        0.064       69.991       10.308        0.022      340.311       14.244      862.169
09/19/2014  08:15:00      -70.150      -25.834       -6.535       20.312       19.828       12.638      412.585      393.153      159.727        0.330        0.048       74.756        9.962        0.018      340.320       14.257      862.167
09/19/2014  08:16:00      -66.564      -18.792        1.056       31.214       26.648       14.209      974.343      710.139      201.908        0.334        0.094       69.166       12.277        0.032      340.274       14.179      862.169
09/19/2014  08:17:00      -71.228       -4.185       -2.984       33.324       18.037       15.651     1110.497      325.325      244.946        0.339        0.084       71.351       12.089        0.029      340.268       14.171      862.166
09/19/2014  08:18:00      -61.936      -11.452       -0.183       24.309       29.443       17.465      590.933      866.915      305.033        0.286        0.088       62.986       13.512        0.046      340.259       14.155      862.175
09/19/2014  08:19:00      -98.614        3.733       -6.160       25.281       24.299       17.787      639.135      590.436      316.365        0.566        0.077       98.685       17.408        0.031      340.297       14.219      862.170
09/19/2014  08:20:00      -96.965        4.118       -9.829       23.590       21.891       15.265      556.490      479.232      233.028        0.539        0.063       97.053       11.142        0.013      340.305       14.233      862.174
09/19/2014  08:21:00     -118.371        2.428       -9.587       16.020       16.102       10.112      256.626      259.274      102.254        0.736        0.031      118.396        4.996        0.002      340.364       14.333      862.165
09/19/2014  08:22:00     -106.363      -36.942       -2.277       35.733       19.658       14.037     1276.843      386.445      197.026        0.727        0.093      112.596       16.104        0.020      340.405       14.405      862.150
09/19/2014  08:23:00     -133.483      -45.998       -7.937       17.457       16.280       14.259      304.757      265.037      203.317        1.038        0.039      141.186        7.944        0.003      340.438       14.461      862.151
09/19/2014  08:24:00      -89.357      -36.772      -13.862       30.485       24.174       12.608      929.354      584.387      158.954        0.560        0.084       96.627        6.911        0.005      340.457       14.492      862.147
09/19/2014  08:25:00     -101.663      -48.577       -7.719       21.128       13.332       11.829      446.382      177.735      139.916        0.676        0.038      112.673        4.561        0.002      340.459       14.494      862.166
09/19/2014  08:26:00      -81.291      -41.090       -4.780       21.957        9.919       10.365      482.129       98.386      107.425        0.450        0.034       91.086        5.767        0.004      340.475       14.521      862.176
09/19/2014  08:27:00      -47.909      -31.221       -0.513       26.935       19.808       10.893      725.468      392.355      118.660        0.225        0.062       57.184        9.284        0.026      340.517       14.592      862.204
09/19/2014  08:28:00      -58.094      -19.966       -0.528       17.991       15.408       10.542      323.675      237.413      111.138        0.222        0.034       61.429        6.196        0.010      340.562       14.669      862.217
09/19/2014  08:29:00      -12.502      -15.201        4.206       15.380       14.984       11.111      236.556      224.521      123.459        0.049        0.029       19.682        6.403        0.106      340.710       14.918      862.237
09/19/2014  08:30:00      -15.471      -25.895        0.537       23.643       16.293       10.648      558.998      265.454      113.371        0.092        0.047       30.165        8.913        0.087      340.742       14.973      862.244
09/19/2014  08:31:00      -34.794      -38.571        3.369       46.320       13.884       14.867     2145.571      192.756      221.039        0.263        0.128       51.946       17.925        0.119      340.784       15.044      862.251
09/19/2014  08:32:00      -25.073      -26.428       -0.654       28.726       15.055       12.828      825.179      226.653      164.564        0.127        0.061       36.429        4.643        0.016      340.846       15.149      862.263
09/19/2014  08:33:00      -15.473      -32.404       -7.485       25.762       20.579       18.504      663.658      423.485      342.386        0.139        0.071       35.909       14.761        0.169      340.923       15.279      862.268
09/19/2014  08:34:00      -21.489      -31.041        5.664       28.125       20.587       15.676      790.999      423.828      245.743        0.146        0.073       37.753       16.605        0.193      340.875       15.197      862.277
09/19/2014  08:35:00      -21.753      -38.451        4.908       14.535       13.449       15.920      211.263      180.872      253.431        0.131        0.032       44.177       11.038        0.062      340.896       15.232      862.285
09/19/2014  08:36:00      -33.143      -27.835       -4.625       14.231        9.289        8.339      202.524       86.285       69.545        0.113        0.018       43.281        4.572        0.011      340.932       15.294      862.288
09/19/2014  08:37:00      -44.025      -46.337       -4.290       28.867       15.396       12.580      833.315      237.040      158.255        0.267        0.061       63.917       15.930        0.062      341.006       15.418      862.298
09/19/2014  08:38:00      -59.539      -49.495       -6.168       29.790       20.671       17.121      887.438      427.292      293.118        0.382        0.080       77.426       18.206        0.055      341.036       15.469      862.304
09/19/2014  08:39:00      -66.112      -49.908       -3.487       22.622       11.648       12.118      511.760      135.670      146.856        0.383        0.040       82.835       11.676        0.020      341.050       15.496      862.316
09/19/2014  08:40:00      -55.048      -45.571      -11.182       17.313       13.230       11.460      299.743      175.023      131.333        0.292        0.030       71.464        8.238        0.013      341.126       15.623      862.327
09/19/2014  08:41:00      -48.029      -63.130       -9.389       22.134       18.680       15.503      489.919      348.946      240.337        0.373        0.054       79.323       14.606        0.034      341.110       15.597      862.336
09/19/2014  08:42:00      -49.169      -54.275       -2.132       23.585       23.505       18.515      556.265      552.463      342.810        0.341        0.073       73.235       15.134        0.043      341.156       15.674      862.339
09/19/2014  08:43:00      -39.968      -49.010       -4.313       20.884       15.785       11.857      436.145      249.161      140.582        0.242        0.041       63.241        9.160        0.021      341.163       15.686      862.343
09/19/2014  08:44:00      -38.939      -41.022       -6.147       21.614       20.304       11.924      467.159      412.265      142.172        0.213        0.051       56.560        7.340        0.017      341.218       15.779      862.346
09/19/2014  08:45:00      -35.541      -38.634       -3.975       21.579       27.665       13.002      465.656      765.357      169.054        0.209        0.070       52.495        9.364        0.032      341.238       15.812      862.345
09/19/2014  08:46:00      -48.350      -54.396       -5.052       12.289       16.570       16.955      151.031      274.572      287.456        0.302        0.036       72.778        9.650        0.018      341.285       15.892      862.340
09/19/2014  08:47:00      -24.543      -50.734       -1.789       24.908       30.706       15.275      620.387      942.839      233.319        0.249        0.090       56.359       15.652        0.077      341.391       16.071      862.336
09/19/2014  08:48:00      -34.660      -30.440        0.744       22.057       24.712       14.570      486.518      610.663      212.290        0.172        0.065       46.129       16.871        0.134      341.399       16.085      862.335
09/19/2014  08:49:00      -29.664      -35.904        4.947       23.723       24.048       18.145      562.770      578.296      329.233        0.183        0.074       46.573        9.210        0.039      341.358       16.016      862.336
09/19/2014  08:50:00      -58.337      -55.255        1.228       33.984       24.329       20.725     1154.898      591.914      429.513        0.432        0.109       80.351       21.323        0.070      341.345       15.994      862.360
09/19/2014  08:51:00      -88.603      -51.393      -11.207       17.760       25.834       10.891      315.422      667.374      118.610        0.586        0.055      102.429       10.716        0.011      341.270       15.868      862.387
09/19/2014  08:52:00      -44.480      -35.102       -1.390       10.159       25.308       13.253      103.196      640.519      175.639        0.207        0.046       56.662       16.010        0.080      341.287       15.895      862.404
09/19/2014  08:53:00      -24.720      -35.137        1.085       18.175       18.982       11.477      330.345      360.328      131.732        0.133        0.041       42.961        7.874        0.034      341.333       15.973      862.421
09/19/2014  08:54:00      -55.255      -86.789       -6.563       13.030       20.513       14.559      169.771      420.787      211.974        0.572        0.040      102.886        4.563        0.002      341.257       15.846      862.423
09/19/2014  08:55:00      -67.012      -82.542      -14.596       21.505       30.916       15.706      462.482      955.773      246.674        0.659        0.083      106.319        8.955        0.007      341.334       15.976      862.437
09/19/2014  08:56:00      -43.325      -35.993       -6.238       15.961       10.554        8.713      254.743      111.392       75.910        0.183        0.022       56.325        8.604        0.023      341.299       15.915      862.441
09/19/2014  08:57:00      -29.972      -16.280        0.069       24.712       12.433        9.936      610.706      154.577       98.717        0.101        0.043       34.108        6.460        0.036      341.479       16.220      862.445
09/19/2014  08:58:00      -36.174       -9.711      -12.438       27.238       12.018       15.822      741.885      144.434      250.342        0.135        0.057       37.454       15.444        0.170      341.543       16.328      862.450
09/19/2014  08:59:00      -60.375      -35.994       -7.430       53.096       28.600       21.051     2819.220      817.934      443.135        0.454        0.204       70.290       22.752        0.105      341.500       16.256      862.449
09/19/2014  09:00:00      -82.909      -45.248       -7.277       42.752       35.171       24.237     1827.759     1237.008      587.415        0.631        0.183       94.452       18.908        0.040      341.477       16.216      862.439
09/19/2014  09:01:00      -81.835      -48.217        0.622       52.098       28.719       19.807     2714.166      824.762      392.334        0.648        0.197       94.983       20.346        0.046      341.533       16.312      862.427
09/19/2014  09:02:00      -61.114      -33.488       11.722       52.807       41.145       27.382     2788.560     1692.893      749.787        0.511        0.262       69.688       23.267        0.111      341.606       16.434      862.421
09/19/2014  09:03:00     -110.173      -57.656       -1.143       45.688       41.347       24.648     2087.364     1709.607      607.538        0.993        0.220      124.347       26.954        0.047      341.455       16.180      862.410
09/19/2014  09:04:00     -108.015      -83.477       -2.776       44.141       52.032       29.829     1948.387     2707.369      889.780        1.209        0.277      136.513       34.614        0.064      341.339       15.983      862.414
09/19/2014  09:05:00      -66.608      -43.812        4.431       37.888       35.949       26.598     1435.465     1292.342      707.465        0.490        0.172       79.726       22.769        0.082      341.471       16.207      862.416
09/19/2014  09:06:00      -69.652      -42.426       -8.453       47.286       40.765       24.775     2235.977     1661.746      613.796        0.562        0.226       81.556       17.786        0.048      341.375       16.044      862.420
09/19/2014  09:07:00      -81.163      -80.446      -12.445       44.271       23.361       26.296     1959.897      545.715      691.487        0.820        0.160      114.275       21.401        0.035      341.429       16.134      862.424
09/19/2014  09:08:00      -62.393      -67.095       -8.430       30.086       36.536       24.342      905.191     1334.877      592.532        0.565        0.142       91.622       10.668        0.014      341.418       16.118      862.432
09/19/2014  09:09:00      -87.094      -91.438       -9.104       41.074       32.364       22.780     1687.105     1047.418      518.944        0.964        0.163      126.279       15.518        0.015      341.486       16.232      862.439
09/19/2014  09:10:00      -49.261      -60.011        1.857       25.578       41.313       22.374      654.209     1706.757      500.610        0.445        0.143       77.640       19.233        0.061      341.535       16.314      862.456
09/19/2014  09:11:00      -51.675      -37.592       -0.139       25.195       25.304       16.628      634.783      640.299      276.481        0.282        0.078       63.902       13.762        0.046      341.515       16.281      862.467
09/19/2014  09:12:00      -68.862      -60.631       -2.326       38.471       32.386       17.837     1480.049     1048.827      318.160        0.563        0.142       91.750       17.912        0.038      341.501       16.258      862.471
09/19/2014  09:13:00      -91.305      -95.620       -8.738       23.966       28.143       17.142      574.392      792.024      293.837        0.961        0.083      132.211       11.503        0.008      341.378       16.049      862.473
09/19/2014  09:14:00      -79.535      -34.562       -4.276       26.957       29.078       15.079      726.667      845.509      227.377        0.467        0.090       86.720       15.800        0.033      341.526       16.299      862.477
09/19/2014  09:15:00      -91.123      -54.556       -5.088       21.109       31.198       16.636      445.603      973.325      276.748        0.650        0.085      106.206       13.794        0.017      341.541       16.324      862.473
09/19/2014  09:16:00      -36.827      -54.827       10.119       39.449       28.799       24.065     1556.240      829.389      579.136        0.371        0.148       66.047       24.271        0.135      341.770       16.714      862.468
09/19/2014  09:17:00      -61.229      -48.621        0.244       27.873       39.615       20.844      776.885     1569.358      434.466        0.445        0.139       78.185       15.560        0.040      341.661       16.530      862.464
09/19/2014  09:18:00      -36.219      -11.949       -7.831       33.666       23.685       21.088     1133.374      560.970      444.717        0.183        0.107       38.139       17.910        0.221      341.822       16.803      862.453
09/19/2014  09:19:00      -49.093      -57.694       -9.281       21.454       22.454       16.427      460.264      504.199      269.857        0.353        0.062       75.755        4.918        0.004      341.792       16.750      862.456
09/19/2014  09:20:00      -24.287      -47.651       -4.859       43.866       20.906       16.351     1924.207      437.068      267.364        0.276        0.131       53.484       14.508        0.074      341.707       16.605      862.457
09/19/2014  09:21:00      -49.380      -26.066       -6.663       20.030       23.811       10.499      401.205      566.975      110.224        0.212        0.054       55.838        9.366        0.028      341.705       16.603      862.467
09/19/2014  09:22:00      -22.535       11.671       -0.673       20.655       13.700       16.324      426.612      187.701      266.465        0.076        0.044       25.378       10.665        0.177      341.963       17.042      862.481
09/19/2014  09:23:00      -23.059       11.210        8.568       23.707       32.493       18.580      562.014     1055.778      345.206        0.135        0.098       25.640        9.761        0.145      342.235       17.503      862.481
09/19/2014  09:24:00      -43.841      -42.152      -16.713       35.486       22.915       18.286     1259.254      525.093      334.394        0.305        0.106       60.817       17.731        0.085      341.970       17.051      862.474
09/19/2014  09:25:00       -3.504        3.998       23.580       28.292       21.226       32.926      800.439      450.544     1084.093        0.146        0.117        5.316       26.891       25.586      342.531       18.006      862.475
09/19/2014  09:26:00      -35.190      -13.934       11.402       36.069       36.393       30.894     1300.952     1324.446      954.409        0.257        0.179       37.849       30.268        0.640      342.188       17.424      862.471
09/19/2014  09:27:00      -28.016      -14.299        4.733       24.683       26.305       15.267      609.269      691.929      233.072        0.127        0.077       31.454       13.661        0.189      342.047       17.184      862.469
09/19/2014  09:28:00        3.716       -0.654       15.510       22.334       26.444       25.269      498.802      699.279      638.499        0.105        0.092        3.773       20.286       28.905      342.706       18.303      862.455
09/19/2014  09:29:00      -31.039      -16.877       -1.858       19.990       17.578       15.190      399.592      308.987      230.736        0.110        0.047       35.330       13.670        0.150      342.286       17.591      862.448
09/19/2014  09:30:00      -50.534      -43.451       -1.847       28.425       34.664       22.438      807.956     1201.575      503.485        0.348        0.126       66.646       12.675        0.036      342.064       17.213      862.445
09/19/2014  09:31:00      -35.509      -34.979       -0.671       46.737       29.112       26.178     2184.361      847.509      685.280        0.310        0.186       49.844       23.459        0.222      342.295       17.604      862.453
09/19/2014  09:32:00      -19.034      -38.626        5.504       49.349       51.296       37.948     2435.286     2631.249     1440.015        0.419        0.325       43.061       32.499        0.570      342.373       17.737      862.453
09/19/2014  09:33:00      -34.122       -2.184       18.084       37.564       24.316       29.780     1411.066      591.289      886.857        0.219        0.144       34.192       17.610        0.265      342.552       18.043      862.463
09/19/2014  09:34:00      -59.885      -31.024        4.741       33.512       33.091       19.201     1123.072     1094.995      368.683        0.358        0.129       67.444       11.192        0.028      342.137       17.337      862.479
09/19/2014  09:35:00      -76.163      -66.167       -8.556       35.352       47.863       28.125     1249.746     2290.833      791.030        0.729        0.217      100.891       24.980        0.061      342.207       17.455      862.489
09/19/2014  09:36:00      -83.983      -29.069       -0.646       22.952       26.264       16.663      526.774      689.817      277.660        0.470        0.075       88.872        7.585        0.007      342.098       17.271      862.510
09/19/2014  09:37:00      -63.534      -25.000       -2.246       31.099       22.868       16.283      967.133      522.955      265.121        0.321        0.088       68.276       17.539        0.066      342.277       17.574      862.528
09/19/2014  09:38:00      -13.209       -3.911        8.131       26.116       22.350       18.934      682.063      499.509      358.496        0.090        0.077       13.776       15.202        1.218      342.922       18.670      862.549
09/19/2014  09:39:00       16.234        4.134       29.098       13.339        7.628        8.676      177.933       58.193       75.280        0.072        0.016       16.752        5.090        0.092      343.188       19.124      862.563
09/19/2014  09:40:00       -8.198       30.086       10.849       34.808       23.813       21.645     1211.589      567.044      468.499        0.167        0.112       31.182       13.086        0.176      342.645       18.200      862.570
09/19/2014  09:41:00      -38.356       12.312      -15.963       12.596       13.684       11.517      158.669      187.240      132.640        0.118        0.024       40.283        6.338        0.025      342.369       17.731      862.586
09/19/2014  09:42:00      -62.588      -32.236      -10.452       19.135       21.708       10.695      366.143      471.244      114.393        0.301        0.048       70.402        8.483        0.015      342.377       17.744      862.586
09/19/2014  09:43:00      -35.070      -41.280       -7.275       24.175       26.572       14.572      584.408      706.092      212.357        0.224        0.075       54.165        5.694        0.011      342.416       17.811      862.589
09/19/2014  09:44:00       41.350       -1.444       34.643       40.308       43.159       30.883     1624.726     1862.701      953.734        0.368        0.222       41.376       31.423        0.577      342.817       18.492      862.590
09/19/2014  09:45:00       17.030      -24.611       -5.917       36.527       30.706       30.914     1334.205      942.875      955.673        0.208        0.162       29.929       25.128        0.705      342.448       17.864      862.587
09/19/2014  09:46:00       25.446       44.748       66.276       48.183       55.983       39.149     2321.647     3134.141     1532.675        0.701        0.349       51.477       37.457        0.529      343.044       18.879      862.579
09/19/2014  09:47:00       64.866       83.686       44.141       45.842       29.598       44.658     2101.493      876.018     1994.294        0.906        0.249      105.882       31.511        0.089      342.650       18.207      862.588
09/19/2014  09:48:00       -9.627       28.183       67.686       19.225       38.136       25.883      369.598     1454.363      669.912        0.398        0.125       29.782       23.229        0.608      343.187       19.123      862.596
09/19/2014  09:49:00      -12.314       28.642       65.603       27.918       41.575       27.372      779.410     1728.516      749.238        0.427        0.163       31.177       29.372        0.888      343.226       19.190      862.606
09/19/2014  09:50:00       61.278       23.645       52.253       62.734       53.401       35.789     3935.567     2851.681     1280.835        0.755        0.403       65.681       45.282        0.475      342.697       18.286      862.619
09/19/2014  09:51:00       39.106       61.070       44.009       66.450       39.315       40.735     4415.590     1545.657     1659.320        0.741        0.381       72.518       33.943        0.219      343.095       18.966      862.630
09/19/2014  09:52:00       47.536       82.015       83.633       46.635       51.638       37.680     2174.863     2666.528     1419.781        1.112        0.313       94.795       23.976        0.064      343.092       18.961      862.637
09/19/2014  09:53:00       20.307       50.450       52.208       38.592       35.195       37.262     1489.339     1238.672     1388.458        0.490        0.206       54.384       24.480        0.203      343.170       19.092      862.658
09/19/2014  09:54:00       45.647       53.033       39.023       62.461       37.359       47.497     3901.382     1395.717     2255.997        0.698        0.378       69.973       30.305        0.188      343.168       19.091      862.667
09/19/2014  09:55:00       87.815       63.310       38.500       47.807       34.294       32.151     2285.505     1176.054     1033.706        0.885        0.225      108.257       21.414        0.039      342.828       18.509      862.682
09/19/2014  09:56:00        8.420       37.587       57.790       37.168       34.228       32.910     1381.446     1171.555     1083.074        0.423        0.182       38.518       24.441        0.403      343.433       19.542      862.689
09/19/2014  09:57:00       90.359       69.538        3.799       52.570       26.287       28.476     2763.619      691.008      810.897        0.864        0.213      114.019       19.153        0.028      342.579       18.085      862.703
09/19/2014  09:58:00       13.013       54.636       11.411       29.001       30.418       28.434      841.058      925.233      808.480        0.293        0.129       56.164       23.867        0.181      342.872       18.586      862.705
09/19/2014  09:59:00       56.085       43.585       -7.824       40.829       36.891       28.869     1666.970     1360.937      833.403        0.448        0.193       71.030       15.257        0.046      342.716       18.319      862.711
09/19/2014  10:00:00       25.346       72.165       -6.991       29.413       54.566       25.435      865.137     2977.435      646.927        0.519        0.224       76.487       20.415        0.071      342.879       18.599      862.717
09/19/2014  10:01:00       52.032       45.928       14.642       48.566       49.526       30.576     2358.652     2452.873      934.894        0.539        0.287       69.403       24.536        0.125      343.160       19.076      862.712
09/19/2014  10:02:00       25.837       64.884       82.657       55.766       51.954       37.567     3109.842     2699.169     1411.261        0.946        0.361       69.839       29.310        0.176      343.333       19.371      862.705
09/19/2014  10:03:00       15.632       19.153       54.355       33.513       36.806       29.274     1123.090     1354.662      856.980        0.345        0.167       24.722       20.531        0.690      343.473       19.609      862.699
09/19/2014  10:04:00       68.663       55.626       49.750       37.042       43.400       42.108     1372.110     1883.518     1773.076        0.766        0.251       88.367       31.205        0.125      342.989       18.785      862.693
09/19/2014  10:05:00       68.114       12.894        9.785       40.700       49.586       31.331     1656.489     2458.806      981.601        0.500        0.255       69.324       26.458        0.146      343.029       18.852      862.685
09/19/2014  10:06:00       69.498       42.159       16.277       39.299       28.723       33.593     1544.420      825.002     1128.462        0.518        0.175       81.286       16.629        0.042      343.248       19.225      862.681
09/19/2014  10:07:00       61.507      -34.068       11.116       68.021       60.452       36.052     4626.898     3654.385     1299.759        0.732        0.479       70.312       31.291        0.198      343.366       19.428      862.672
09/19/2014  10:08:00      100.932       74.813       41.804       43.524       44.838       48.603     1894.313     2010.417     2362.225        1.190        0.313      125.636       26.888        0.046      343.186       19.120      862.659
09/19/2014  10:09:00       92.016       94.594       59.564       44.152       34.346       39.338     1949.414     1179.674     1547.456        1.282        0.234      131.966       32.072        0.059      343.027       18.849      862.645
09/19/2014  10:10:00       88.973      103.638       96.705       83.598       64.998       49.597     6988.668     4224.755     2459.900        2.084        0.684      136.590       44.948        0.108      343.352       19.401      862.632
09/19/2014  10:11:00       25.104       85.796      102.017       46.548       58.922       47.256     2166.730     3471.794     2233.146        1.313        0.394       89.394       41.674        0.217      343.505       19.665      862.628
09/19/2014  10:12:00       60.448       65.887       52.140       53.274       50.595       39.809     2838.144     2559.889     1584.730        0.885        0.349       89.415       35.692        0.159      343.403       19.489      862.632
09/19/2014  10:13:00       -5.144        1.968       32.517       38.388       43.449       28.288     1473.664     1887.802      800.209        0.262        0.208        5.507       19.993       13.180      343.758       20.097      862.631
09/19/2014  10:14:00        4.710       45.166       60.829       45.522       60.355       33.143     2072.262     3642.711     1098.425        0.629        0.341       45.411       36.384        0.642      344.015       20.534      862.633
09/19/2014  10:15:00        7.952       -5.929       11.816       48.812       58.402       39.329     2382.607     3410.789     1546.803        0.379        0.367        9.919       31.331        9.977      343.916       20.365      862.633
09/19/2014  10:16:00       91.253       55.734       10.369       62.996       53.268       36.654     3968.459     2837.465     1343.503        0.984        0.407      106.927       23.965        0.050      343.951       20.425      862.639
09/19/2014  10:17:00      115.090       71.454        8.216       66.164       66.952       36.326     4377.718     4482.512     1319.559        1.430        0.509      135.467       25.765        0.036      343.484       19.627      862.653
09/19/2014  10:18:00       13.944        4.468       10.842       33.867       27.898       26.139     1147.001      778.315      683.267        0.147        0.130       14.643       17.812        1.480      343.795       20.160      862.664
09/19/2014  10:19:00       88.582       41.314       32.568       50.728       40.243       41.014     2573.359     1619.521     1682.142        0.824        0.294       97.742       27.808        0.081      344.029       20.560      862.661
09/19/2014  10:20:00       51.367       60.154       85.124       66.952       76.095       46.507     4482.520     5790.435     2162.891        1.297        0.622       79.102       49.683        0.394      343.944       20.413      862.655
09/19/2014  10:21:00       85.520      -83.037       16.996       67.305       64.542       45.978     4530.006     4165.652     2113.980        1.265        0.540      119.201       31.793        0.071      343.750       20.080      862.636
09/19/2014  10:22:00       79.385       42.528       14.052       82.035       84.125       49.545     6729.787     7077.043     2454.673        1.228        0.813       90.059       19.407        0.046      344.150       20.763      862.624
09/19/2014  10:23:00      197.478      116.956       30.084       59.729       49.612       52.779     3567.519     2461.339     2785.630        3.120        0.441      229.513       31.423        0.019      343.721       20.028      862.638
09/19/2014  10:24:00       69.582       54.619       31.719       48.700       46.153       36.765     2371.687     2130.082     1351.637        0.734        0.293       88.459       15.958        0.033      344.212       20.872      862.636
09/19/2014  10:25:00       41.012       54.079       19.147       43.050       38.933       38.594     1853.283     1515.740     1489.495        0.491        0.243       67.871       27.002        0.158      344.351       21.110      862.637
09/19/2014  10:26:00      -15.001      -14.432       17.100       38.931       51.904       37.570     1515.630     2694.017     1411.469        0.317        0.281       20.816       16.452        0.625      344.513       21.386      862.629
09/19/2014  10:27:00      128.233       87.079       48.466       79.731       70.586       65.048     6357.106     4982.420     4231.212        2.097        0.779      155.005       40.223        0.067      344.325       21.062      862.638
09/19/2014  10:28:00       95.935       40.028       36.334       54.153       50.927       36.849     2932.550     2593.581     1357.870        0.950        0.344      103.951       28.069        0.073      344.321       21.058      862.640
09/19/2014  10:29:00       71.512       93.249       65.090       68.791       53.740       57.163     4732.241     2888.023     3267.610        1.446        0.544      117.513       41.813        0.127      344.711       21.724      862.632
09/19/2014  10:30:00      146.447       88.766       17.828       69.294       70.752       50.108     4801.686     5005.798     2510.857        2.098        0.616      171.248       21.464        0.016      344.210       20.866      862.632
09/19/2014  10:31:00      207.896      116.299       40.800       92.911       53.108       56.631     8632.521     2820.499     3207.041        3.653        0.733      238.215       35.860        0.023      343.986       20.481      862.636
09/19/2014  10:32:00      167.982       98.660       44.553       81.584       67.737       62.994     6655.900     4588.329     3968.254        2.757        0.761      194.812       36.153        0.034      344.072       20.630      862.646
09/19/2014  10:33:00      191.380      109.153       32.573       87.404       61.033       57.016     7639.444     3725.002     3250.778        3.211        0.731      220.319       49.621        0.051      344.222       20.885      862.650
09/19/2014  10:34:00      165.044       69.247       35.947       94.076       74.893       54.927     8850.267     5608.923     3016.937        2.540        0.874      178.983       50.401        0.079      344.050       20.592      862.647
09/19/2014  10:35:00       87.341       62.624       30.162       79.262       51.642       54.808     6282.459     2666.938     3003.946        1.220        0.598      107.471       25.225        0.055      344.671       21.655      862.658
09/19/2014  10:36:00       50.240       49.081        0.487       53.765       62.698       36.191     2890.720     3931.010     1309.771        0.653        0.407       70.236       30.941        0.194      344.394       21.182      862.668
09/19/2014  10:37:00      261.872      141.481       54.521      123.504       88.690       72.802    15253.130     7865.836     5300.107        5.999        1.421      297.647       46.737        0.025      344.164       20.787      862.663
09/19/2014  10:38:00      236.882      136.975       46.319       92.796       61.397       71.290     8611.100     3769.628     5082.294        4.724        0.873      273.633       45.451        0.028      344.147       20.757      862.662
09/19/2014  10:39:00      151.938       73.280       17.686       96.658       64.076       53.174     9342.840     4105.796     2827.503        2.252        0.814      168.686       42.872        0.065      344.305       21.026      862.687
09/19/2014  10:40:00      196.716      106.560       23.521       74.824       67.934       46.362     5598.577     4615.072     2149.397        3.148        0.618      223.723       38.775        0.030      344.200       20.849      862.680
09/19/2014  10:41:00       43.557       81.315       10.147       54.338       63.508       41.860     2952.579     4033.228     1752.237        0.867        0.437       92.246       27.634        0.090      344.329       21.071      862.688
09/19/2014  10:42:00       50.034       79.902       15.736       59.618       57.558       49.120     3554.293     3312.917     2412.803        0.921        0.464       94.275       39.043        0.172      344.981       22.187      862.670
09/19/2014  10:43:00       88.238       73.602       39.199       78.312       55.283       53.174     6132.817     3056.180     2827.508        1.338        0.601      114.906       23.788        0.043      344.962       22.154      862.656
09/19/2014  10:44:00      155.220      117.806       23.445       82.511       58.751       51.921     6808.062     3451.637     2695.775        2.574        0.648      194.862       27.709        0.020      344.625       21.574      862.651
09/19/2014  10:45:00      164.620      141.025       78.280      106.018       69.767       67.977    11239.809     4867.463     4620.819        3.692        1.036      216.767       35.989        0.028      344.555       21.452      862.612
09/19/2014  10:46:00      158.235      102.444       26.482       69.965       62.923       59.229     4895.137     3959.292     3508.093        2.430        0.618      188.502       10.944        0.003      344.148       20.759      862.615
09/19/2014  10:47:00      113.535       81.433       40.385       74.471       52.038       71.334     5545.973     2707.955     5088.532        1.724        0.667      139.720       34.987        0.063      344.894       22.038      862.603
09/19/2014  10:48:00       81.364      108.588       98.848      104.558       66.241       77.056    10932.462     4387.814     5937.669        2.472        1.063      135.689       73.605        0.294      344.529       21.409      862.582
09/19/2014  10:49:00      148.851       81.247       17.825       71.438       51.686       47.548     5103.368     2671.398     2260.794        1.955        0.502      169.581       27.421        0.026      344.040       20.575      862.591
09/19/2014  10:50:00        0.598      147.638      -18.378       46.408       83.742       29.044     2153.723     7012.714      843.551        1.607        0.500      147.639       31.284        0.045      344.324       21.062      862.585
09/19/2014  10:51:00       54.237      139.118      -10.317       87.078       91.276       52.370     7582.631     8331.398     2742.619        2.053        0.933      149.317       43.429        0.085      344.441       21.260      862.594
09/19/2014  10:52:00       57.948      210.559      -12.087       74.036      130.347       66.615     5481.319    16990.399     4437.557        3.737        1.345      218.388       78.127        0.128      344.119       20.709      862.613
09/19/2014  10:53:00        2.386      195.722      -15.923       58.538       76.469       42.601     3426.692     5847.489     1814.868        2.483        0.554      195.737       44.568        0.052      344.269       20.966      862.609
09/19/2014  10:54:00       -2.069      158.956      -12.963       46.008      104.195       34.088     2116.741    10856.541     1161.961        1.978        0.707      158.970       43.209        0.074      344.355       21.113      862.609
09/19/2014  10:55:00       50.664       68.443       13.257       73.274       53.303       31.833     5369.126     2841.244     1013.354        0.832        0.461       85.154       27.364        0.103      344.797       21.870      862.608
09/19/2014  10:56:00      231.852      100.823       26.664      102.298       78.878       58.862    10464.807     6221.683     3464.696        4.239        1.008      252.825       46.595        0.034      344.068       20.621      862.594
09/19/2014  10:57:00      170.735      107.256       12.547       61.412       54.930       38.047     3771.430     3017.356     1447.550        2.452        0.412      201.629       27.779        0.019      344.256       20.944      862.590
09/19/2014  10:58:00      311.983      212.125       32.402       92.250       82.187       66.881     8510.078     6754.644     4473.047        8.155        0.987      377.267       37.652        0.010      344.147       20.755      862.578
09/19/2014  10:59:00      172.436      137.680       46.670      112.771       73.195       78.101    12717.298     5357.546     6099.811        3.752        1.209      220.658       66.494        0.091      344.429       21.239      862.572
09/19/2014  11:00:00      149.599      114.006       12.145       88.031       61.045       53.789     7749.447     3726.519     2893.274        2.494        0.718      188.088       30.741        0.027      344.407       21.201      862.561
09/19/2014  11:01:00      211.626      120.528       60.994       93.967       67.493       76.021     8829.880     4555.253     5779.255        4.109        0.958      243.542       46.614        0.037      344.423       21.228      862.545
09/19/2014  11:02:00       79.469       90.308       55.435       82.048       61.461       56.172     6731.935     3777.437     3155.291        1.560        0.683      120.295       43.297        0.130      344.596       21.526      862.552
09/19/2014  11:03:00      103.963       16.146       35.201       73.483       52.889       40.018     5399.822     2797.210     1601.472        1.105        0.490      105.209       20.061        0.036      344.972       22.171      862.548
09/19/2014  11:04:00       22.065       59.383       78.716       53.742       63.959       47.060     2888.242     4090.778     2214.676        0.970        0.460       63.350       46.860        0.547      345.286       22.709      862.505
09/19/2014  11:05:00       93.561       92.368       16.132       89.578       80.833       51.048     8024.265     6534.041     2605.947        1.735        0.858      131.474       42.831        0.106      345.299       22.730      862.509
09/19/2014  11:06:00      145.924      148.056        4.377      100.341       85.733       68.411    10068.403     7350.118     4680.113        3.266        1.105      207.881       58.798        0.080      344.828       21.921      862.511
09/19/2014  11:07:00      190.899      121.853       27.930      103.800       62.637       60.794    10774.465     3923.382     3695.944        3.523        0.920      226.474       31.060        0.019      344.858       21.972      862.491
09/19/2014  11:08:00      124.142       92.625       22.666       99.590       88.655       59.688     9918.175     7859.696     3562.693        2.292        1.067      154.889       58.063        0.141      344.835       21.933      862.483
09/19/2014  11:09:00      183.873       96.363       54.615       84.165       75.814       73.392     7083.771     5747.801     5386.357        3.214        0.911      207.593       54.660        0.069      345.100       22.388      862.463
09/19/2014  11:10:00      195.919      127.455       32.066      104.639       75.257       55.760    10949.245     5663.570     3109.194        3.769        0.986      233.728       40.906        0.031      344.758       21.803      862.442
09/19/2014  11:11:00      134.553       89.184       34.230       71.987       71.042       51.827     5182.132     5046.924     2686.045        2.007        0.646      161.425       29.176        0.033      345.078       22.352      862.441
09/19/2014  11:12:00      222.724       99.295       48.830      101.715       67.106       61.584    10346.002     4503.196     3792.625        4.024        0.932      243.856       50.627        0.043      345.077       22.349      862.444
09/19/2014  11:13:00      198.257      131.998       30.095       68.621       60.857       57.027     4708.854     3703.532     3252.034        3.465        0.583      238.179       30.113        0.016      344.779       21.839      862.457
09/19/2014  11:14:00      169.887      100.422       28.691       83.487       60.839       60.790     6970.123     3701.412     3695.482        2.707        0.718      197.348       42.728        0.047      345.068       22.333      862.461
09/19/2014  11:15:00       94.674       57.025       15.080       72.862       53.352       44.234     5308.914     2846.396     1956.637        1.128        0.506      110.522       18.823        0.029      344.984       22.191      862.454
09/19/2014  11:16:00      112.933       81.506       -1.016       86.518       48.248       59.766     7485.361     2327.906     3571.998        1.639        0.669      139.274       37.036        0.071      345.251       22.648      862.432
09/19/2014  11:17:00       52.408       79.861        2.798       53.987       61.693       47.914     2914.637     3806.032     2295.747        0.907        0.451       95.521       22.199        0.054      345.420       22.938      862.430
09/19/2014  11:18:00       20.261       46.038       44.874       49.093       49.184       32.508     2410.115     2419.094     1056.782        0.521        0.294       50.299       15.270        0.092      346.332       24.504      862.430
09/19/2014  11:19:00       76.313       52.772       45.285      104.069       58.137       45.872    10830.413     3379.932     2104.247        1.348        0.816       92.782       39.288        0.179      345.989       23.913      862.418
09/19/2014  11:20:00       75.922       26.885       16.307       77.328       69.366       52.644     5979.621     4811.702     2771.380        1.016        0.678       80.542       46.528        0.334      344.980       22.185      862.432
09/19/2014  11:21:00      122.578       89.215       29.232       90.633       50.734       53.291     8214.380     2573.893     2839.879        1.873        0.681      151.607       22.509        0.022      345.496       23.069      862.429
09/19/2014  11:22:00      146.307       71.408       43.594       94.513       81.222       59.777     8932.760     6596.973     3573.322        2.375        0.955      162.803       57.307        0.124      345.211       22.577      862.413
09/19/2014  11:23:00      105.955       92.545       31.205       92.898       64.323       53.067     8630.044     4137.443     2816.152        1.817        0.779      140.681       37.199        0.070      345.305       22.742      862.427
09/19/2014  11:24:00       72.611       81.780       34.978      108.252       52.650       56.350    11718.441     2771.975     3175.351        1.542        0.883      109.363       39.150        0.128      345.500       23.074      862.424
09/19/2014  11:25:00       62.314      124.315       -3.319       61.346       78.397       35.874     3763.328     6146.143     1286.946        1.527        0.560      139.059       39.399        0.080      345.277       22.694      862.425
09/19/2014  11:26:00      -11.060      163.344       -7.326       43.307       70.662       41.774     1875.486     4993.091     1745.046        1.773        0.431      163.718       46.306        0.080      345.175       22.520      862.425
09/19/2014  11:27:00      -35.917       55.238       23.263       45.101       34.102       35.766     2034.143     1162.965     1279.194        0.468        0.224       65.888       25.243        0.147      345.702       23.425      862.405
09/19/2014  11:28:00       41.065       11.960       22.708       64.553       51.543       32.805     4167.102     2656.639     1076.197        0.512        0.395       42.771       36.496        0.728      346.220       24.314      862.393
09/19/2014  11:29:00       27.555       76.747       81.755       56.421       47.951       42.383     3183.348     2299.337     1796.340        1.030        0.364       81.544       39.274        0.232      346.122       24.144      862.389
09/19/2014  11:30:00       75.705       77.785       21.024       75.596       68.501       64.465     5714.731     4692.361     4155.768        1.339        0.728      108.544       33.214        0.094      345.436       22.965      862.386
09/19/2014  11:31:00      103.996      127.191       10.333       85.452       58.394       44.664     7302.059     3409.907     1994.917        1.990        0.635      164.295       36.412        0.049      344.986       22.194      862.406
09/19/2014  11:32:00       89.297       75.751       44.657       75.208       40.909       49.832     5656.275     1673.581     2483.251        1.276        0.491      117.099       24.457        0.044      345.538       23.141      862.381
09/19/2014  11:33:00       32.247      117.269        7.487       72.369       74.800       46.062     5237.292     5595.081     2121.715        1.390        0.648      121.622       40.938        0.113      345.219       22.594      862.379
09/19/2014  11:34:00      -50.026      128.344       -4.764       34.646       70.126       32.796     1200.316     4917.622     1075.581        1.309        0.360      137.749       29.430        0.046      345.295       22.726      862.376
09/19/2014  11:35:00      -76.820       53.502       -6.374       38.827       35.778       27.362     1507.499     1280.067      748.687        0.617        0.177       93.615       25.548        0.074      344.790       21.861      862.369
09/19/2014  11:36:00      -85.857      109.617      -13.680       49.945       48.275       36.425     2494.490     2330.522     1326.809        1.286        0.308      139.238       32.611        0.055      345.135       22.452      862.361
09/19/2014  11:37:00      -52.335      138.964        3.089       40.209       64.835       37.955     1616.779     4203.549     1440.582        1.466        0.363      148.492       33.562        0.051      345.679       23.383      862.349
09/19/2014  11:38:00       43.060      115.583       17.809       87.924       61.853       46.238     7730.676     3825.746     2137.909        1.461        0.685      123.344       33.230        0.073      345.925       23.806      862.363
09/19/2014  11:39:00      133.041       98.931       43.673       75.611       63.988       66.861     5717.052     4094.465     4470.349        2.184        0.714      165.793       46.630        0.079      345.481       23.043      862.339
09/19/2014  11:40:00      154.360      134.440       71.543       94.811       59.641       67.054     8989.185     3557.104     4496.239        3.203        0.852      204.698       51.039        0.062      345.180       22.526      862.344
09/19/2014  11:41:00      138.789       98.742       11.275       66.058       52.375       37.671     4363.649     2743.143     1419.080        1.883        0.426      170.330       17.148        0.010      345.037       22.282      862.333
09/19/2014  11:42:00       26.101       45.817       70.619       52.631       59.128       41.386     2770.023     3496.144     1712.787        0.787        0.399       52.730       27.966        0.281      346.335       24.510      862.327
09/19/2014  11:43:00       55.407       78.381       75.732       56.499       63.849       44.319     3192.114     4076.726     1964.188        1.209        0.462       95.987       26.612        0.077      345.958       23.861      862.317
09/19/2014  11:44:00       74.958       31.251       16.721       82.686      111.378       52.644     6836.983    12404.961     2771.361        1.444        1.101       81.211       50.902        0.393      345.871       23.712      862.317
09/19/2014  11:45:00      125.714       81.076       35.773       82.505       63.147       60.417     6807.042     3987.594     3650.184        1.905        0.722      149.591       44.317        0.088      345.736       23.480      862.316
09/19/2014  11:46:00       47.284       68.780       45.960       69.351       42.632       43.719     4809.517     1817.527     1911.342        0.881        0.427       83.465       26.706        0.102      346.036       23.995      862.317
09/19/2014  11:47:00       28.572        0.584       13.514       36.243       45.084       40.978     1313.539     2032.605     1679.222        0.301        0.251       28.578       26.372        0.852      346.196       24.271      862.304
09/19/2014  11:48:00       61.372       46.873       35.904       67.472       50.438       26.571     4552.528     2544.015      706.033        0.753        0.390       77.224       18.135        0.055      346.319       24.484      862.298
09/19/2014  11:49:00      106.970       77.216        2.124       41.769       39.978       40.289     1744.645     1598.224     1623.211        1.119        0.248      131.928       25.618        0.038      345.631       23.301      862.284
09/19/2014  11:50:00       27.480       32.324       18.319       40.178       33.349       34.240     1614.288     1112.159     1172.384        0.302        0.195       42.427       21.086        0.247      346.630       25.019      862.293
09/19/2014  11:51:00      -13.802       27.337       28.285       25.143       36.524       29.680      632.193     1333.978      880.896        0.229        0.142       30.623        9.320        0.093      346.512       24.815      862.292
09/19/2014  11:52:00       76.827       63.546       11.413       75.591       45.782       43.371     5714.066     2095.968     1881.033        0.988        0.485       99.702       30.816        0.096      346.011       23.954      862.284
09/19/2014  11:53:00       87.560       62.407       38.566       59.432       55.783       44.483     3532.144     3111.798     1978.734        1.083        0.431      107.524       33.872        0.099      346.157       24.204      862.264
09/19/2014  11:54:00       10.211       45.578       45.875       29.651       51.239       33.556      879.155     2625.466     1125.997        0.446        0.232       46.707       18.391        0.155      346.594       24.954      862.253
09/19/2014  11:55:00      156.475      105.322       21.644      109.742       65.266       55.307    12043.334     4259.705     3058.826        2.770        0.968      188.619       24.385        0.017      345.926       23.806      862.245
09/19/2014  11:56:00      202.573      168.317       61.952      108.339       97.284       89.338    11737.406     9464.255     7981.276        5.119        1.459      263.376       49.681        0.036      345.387       22.876      862.238
09/19/2014  11:57:00      123.672      110.809       28.664      103.638       89.837       96.614    10740.732     8070.741     9334.295        2.826        1.407      166.052       40.061        0.058      345.233       22.615      862.258
09/19/2014  11:58:00       39.637        8.815       14.678       39.863       37.438       34.277     1589.026     1401.625     1174.905        0.301        0.208       40.606       11.450        0.080      346.475       24.751      862.259
09/19/2014  11:59:00       46.021       74.336       33.948       82.369       66.089       28.493     6784.690     4367.777      811.826        1.038        0.598       87.429       28.056        0.103      346.500       24.793      862.250
09/19/2014  12:00:00       58.126       21.309       37.380       64.373      113.570       46.663     4143.821    12898.038     2177.479        1.222        0.961       61.909       54.900        0.786      345.697       23.414      862.226
09/19/2014  12:01:00       88.381     -149.462       -8.399       46.640       52.892       33.488     2175.251     2797.556     1121.443        1.816        0.305      173.638       30.119        0.030      344.910       22.064      862.208
09/19/2014  12:02:00       64.788       56.430       68.410       52.696       97.206       48.710     2776.874     9449.082     2372.672        1.333        0.730       85.918       40.795        0.225      345.945       23.840      862.193
09/19/2014  12:03:00       28.425      -18.271       32.739       52.172       79.156       31.023     2721.926     6265.734      962.424        0.608        0.498       33.791       25.446        0.567      345.906       23.774      862.177
09/19/2014  12:04:00      -16.616       17.298       64.271       29.469       43.203       26.265      868.396     1866.538      689.855        0.406        0.171       23.986       15.419        0.413      346.244       24.354      862.160
09/19/2014  12:05:00       -5.648       -0.036       47.548       31.259       48.945       34.662      977.122     2395.627     1201.439        0.343        0.229        5.648       34.310       36.906      346.191       24.261      862.147
09/19/2014  12:06:00       -5.076        7.371       35.347       24.045       28.628       22.868      578.152      819.577      522.956        0.162        0.096        8.950       10.287        1.321      346.924       25.525      862.147
09/19/2014  12:07:00      -42.307      -35.700       13.218       59.269       49.868       34.710     3512.864     2486.852     1204.768        0.522        0.360       55.357       26.690        0.232      345.944       23.839      862.137
09/19/2014  12:08:00      -52.290      -55.874        4.307       46.126       36.671       37.733     2127.586     1344.780     1423.777        0.538        0.245       76.525       27.616        0.130      345.817       23.624      862.132
09/19/2014  12:09:00      -94.055      -20.968        6.981       35.265       48.006       26.570     1243.645     2304.597      705.970        0.679        0.213       96.364       27.960        0.084      345.182       22.530      862.134
09/19/2014  12:10:00       19.003       26.909       40.128       48.335       36.097       28.285     2336.264     1302.997      800.060        0.357        0.222       32.942       15.969        0.235      346.604       24.973      862.126
09/19/2014  12:11:00      104.623       48.250       23.011       49.442       46.221       41.112     2444.482     2136.407     1690.171        1.004        0.314      115.213       25.637        0.050      346.080       24.071      862.118
09/19/2014  12:12:00       78.769       89.650        9.885       46.416       44.372       40.778     2154.402     1968.864     1662.872        1.006        0.289      119.338       23.187        0.038      346.201       24.279      862.113
09/19/2014  12:13:00       53.017       94.503       20.667       52.429       69.805       50.440     2748.816     4872.744     2544.193        1.117        0.508      108.358       48.800        0.203      346.612       24.987      862.111
09/19/2014  12:14:00       56.937       70.149       28.065       68.673       46.941       44.386     4715.937     2203.468     1970.132        0.892        0.444       90.348       29.797        0.109      346.502       24.798      862.113
09/19/2014  12:15:00      138.582       84.000        8.669       63.931       46.578       51.061     4087.171     2169.489     2607.243        1.760        0.443      162.053       18.391        0.013      346.126       24.149      862.120
09/19/2014  12:16:00      118.930       81.689       10.208       79.511       55.786       59.559     6321.972     3112.072     3547.255        1.695        0.649      144.282       33.827        0.055      345.795       23.581      862.126
09/19/2014  12:17:00       59.074       70.009       15.545       52.691       79.593       61.714     2776.321     6335.101     3808.641        1.077        0.646       91.602       59.050        0.416      346.161       24.212      862.120
09/19/2014  12:18:00       48.228       53.094       18.098       79.352       53.449       33.644     6296.687     2856.782     1131.894        0.788        0.514       71.728       16.367        0.052      346.182       24.246      862.096
09/19/2014  12:19:00       10.976       70.215       -0.853       61.608       57.815       35.701     3795.537     3342.557     1274.575        0.673        0.421       71.068       34.302        0.233      345.893       23.750      862.076
09/19/2014  12:20:00        3.319      111.707        2.724       36.508       58.187       37.232     1332.802     3385.692     1386.187        0.930        0.305      111.757       35.356        0.100      346.438       24.689      862.065
09/19/2014  12:21:00      110.459       71.116       17.243       55.203       39.644       40.015     3047.368     1571.641     1601.240        1.189        0.311      131.372       20.918        0.025      345.987       23.912      862.069
09/19/2014  12:22:00      190.521      125.097       10.191       50.443       49.764       53.507     2544.477     2476.472     2862.990        2.997        0.394      227.920       37.315        0.027      345.436       22.962      862.056
09/19/2014  12:23:00      150.516      104.747       22.616       79.862       48.135       49.166     6377.927     2316.975     2417.302        2.262        0.556      183.377       38.928        0.045      345.384       22.874      862.044
09/19/2014  12:24:00      114.632       80.421       58.002       58.562       53.179       44.937     3429.452     2828.028     2019.330        1.562        0.414      140.029       33.644        0.058      346.005       23.942      862.018
09/19/2014  12:25:00       98.112       83.410       14.932       68.068       62.695       43.636     4633.234     3930.716     1904.137        1.364        0.523      128.776       36.147        0.079      346.212       24.297      861.999
09/19/2014  12:26:00       39.755      182.905      -27.753       61.416       70.048       41.970     3771.874     4906.664     1761.473        2.312        0.522      187.176       45.335        0.059      345.302       22.735      861.995
09/19/2014  12:27:00      -28.285      118.669       -0.033       34.108       69.602       35.090     1163.349     4844.440     1231.327        1.106        0.362      121.993       40.830        0.112      346.088       24.090      861.979
09/19/2014  12:28:00       43.012       41.694       12.368       40.921       30.250       36.837     1674.512      915.037     1356.954        0.384        0.197       59.903       17.108        0.082      346.272       24.402      861.969
09/19/2014  12:29:00       58.675       51.317       38.804       44.021       37.820       41.224     1937.860     1430.349     1699.421        0.632        0.253       77.950       20.065        0.066      346.618       24.998      861.955
09/19/2014  12:30:00       13.073      -20.909       29.393       46.208       80.593       38.045     2135.178     6495.253     1447.452        0.577        0.504       24.659       31.578        1.640      346.318       24.480      861.947
09/19/2014  12:31:00       66.872       19.406       31.727       55.307       91.777       40.997     3058.819     8423.018     1680.775        0.951        0.658       69.631       35.572        0.261      346.347       24.530      861.933
09/19/2014  12:32:00       52.329       76.105       62.968       57.641       43.308       42.203     3322.502     1875.578     1781.068        0.974        0.349       92.360       20.643        0.050      346.461       24.727      861.919
09/19/2014  12:33:00       67.491       62.006        5.574       78.582       45.195       47.898     6175.080     2042.616     2294.179        0.947        0.526       91.650       25.356        0.077      345.777       23.551      861.915
09/19/2014  12:34:00      -31.358       42.500      -16.777       33.488       36.230       27.996     1121.440     1312.629      783.799        0.314        0.161       52.817       23.220        0.193      345.411       22.922      861.898
09/19/2014  12:35:00      -90.384       64.925      -13.827       39.647       33.816       32.074     1571.893     1143.489     1028.718        0.816        0.187      111.286       29.032        0.068      345.610       23.266      861.874
09/19/2014  12:36:00       18.953       30.856       37.858       30.667       30.756       23.081      940.475      945.929      532.712        0.258        0.121       36.213       10.770        0.088      347.589       26.670      861.846
09/19/2014  12:37:00        5.530       26.295       56.382       29.256       41.533       23.988      855.885     1725.019      575.431        0.353        0.158       26.870       11.691        0.189      347.436       26.403      861.826
09/19/2014  12:38:00        1.352        9.012       46.098       48.398       61.126       42.518     2342.359     3736.366     1807.768        0.505        0.394        9.113       37.522       16.954      346.635       25.026      861.812
09/19/2014  12:39:00       31.800       24.954       40.017       59.821       77.677       33.886     3578.576     6033.736     1148.263        0.700        0.538       40.422       37.473        0.859      346.631       25.019      861.802
09/19/2014  12:40:00       27.691      -53.831       36.076       51.380       98.780       61.545     2639.911     9757.489     3787.799        1.057        0.809       60.536       69.464        1.317      346.567       24.910      861.776
09/19/2014  12:41:00       40.362      -41.950       27.632       48.765       70.176       40.513     2378.060     4924.726     1641.340        0.655        0.447       58.214       44.434        0.583      346.392       24.608      861.770
09/19/2014  12:42:00       22.907      -32.220      -10.203       21.447       52.736       27.514      459.953     2781.072      757.033        0.283        0.200       39.533       18.217        0.212      345.473       23.027      861.761
09/19/2014  12:43:00      -14.932      -30.335        8.201       53.951       54.474       31.251     2910.738     2967.400      976.634        0.403        0.343       33.811       36.959        1.195      346.091       24.090      861.749
09/19/2014  12:44:00       61.194       48.511       37.172       44.890       35.372       33.573     2015.094     1251.205     1127.121        0.594        0.220       78.090       13.240        0.029      346.173       24.230      861.743
09/19/2014  12:45:00       32.574       23.603       45.140       38.049       46.317       21.239     1447.731     2145.233      451.112        0.385        0.202       40.226        9.435        0.055      346.493       24.780      861.732
09/19/2014  12:46:00       74.434       45.352       30.125       73.780       49.503       33.647     5443.443     2450.585     1132.094        0.876        0.451       87.162       24.973        0.082      346.390       24.604      861.743
09/19/2014  12:47:00       63.729       45.211       20.134       47.533       31.768       33.474     2259.379     1009.214     1120.485        0.545        0.219       78.137       25.257        0.104      345.973       23.886      861.730
09/19/2014  12:48:00       10.064       -1.739       18.496       24.401       21.281       19.805      595.393      452.892      392.255        0.094        0.072       10.213       11.699        1.312      346.620       24.999      861.720
09/19/2014  12:49:00       90.021      123.979       20.126       79.005       80.528       67.527     6241.852     6484.839     4559.848        2.058        0.864      153.215       56.378        0.135      345.986       23.906      861.717
09/19/2014  12:50:00       42.836       46.443       11.525       35.927       74.413       40.542     1290.764     5537.315     1643.624        0.630        0.424       63.181       45.399        0.516      346.048       24.016      861.701
09/19/2014  12:51:00       42.664       51.094       72.723       52.981       62.731       33.075     2806.981     3935.225     1093.942        0.878        0.392       66.564       20.424        0.094      346.289       24.428      861.684
09/19/2014  12:52:00       83.709        9.057       54.773       79.072       76.582       60.321     6252.381     5864.740     3638.639        1.292        0.788       84.197       58.535        0.483      346.123       24.144      861.657
09/19/2014  12:53:00       93.157       54.001       35.490       61.679       37.128       40.955     3804.245     1378.515     1677.324        0.986        0.343      107.677       28.022        0.068      345.704       23.424      861.648
09/19/2014  12:54:00       -7.326      -35.202        8.862       46.161       58.791       41.118     2130.828     3456.329     1690.707        0.432        0.364       35.956       37.049        1.062      346.486       24.768      861.633
09/19/2014  12:55:00       40.286       -3.329       50.494       52.751       70.660       40.994     2782.659     4992.765     1680.489        0.682        0.473       40.423       45.794        1.283      346.483       24.763      861.628
09/19/2014  12:56:00       20.862       26.753       39.715       74.681       71.448       35.025     5577.288     5104.756     1226.717        0.732        0.595       33.926       22.676        0.447      346.305       24.457      861.620
09/19/2014  12:57:00       52.368     -148.083      -13.982       97.912       65.225       42.822     9586.852     4254.240     1833.726        2.027        0.784      157.070       46.978        0.089      346.098       24.100      861.607
09/19/2014  12:58:00       87.004     -203.688      -26.599       70.406       51.947       28.557     4956.988     2698.472      815.512        2.912        0.424      221.492       18.075        0.007      345.672       23.365      861.609
09/19/2014  12:59:00       13.259      -36.103       10.125       30.155       31.875       30.268      909.339     1016.042      916.169        0.221        0.142       38.461       16.069        0.175      346.348       24.530      861.617
09/19/2014  13:00:00       35.269       -0.055       28.778       51.328       52.294       33.503     2634.587     2734.661     1122.482        0.428        0.325       35.269       26.062        0.546      346.591       24.948      861.611
09/19/2014  13:01:00       79.384       70.344       52.663       59.811       55.052       54.436     3577.412     3030.709     2963.311        1.180        0.479      106.067       39.150        0.136      345.992       23.920      861.605
09/19/2014  13:02:00      158.137       56.202       12.725       38.598       37.752       41.705     1489.807     1425.208     1739.329        1.649        0.233      167.827       24.931        0.022      345.710       23.434      861.592
09/19/2014  13:03:00      140.780      114.707       48.150       86.719       48.617       68.781     7520.163     2363.617     4730.882        2.495        0.731      181.595       60.189        0.110      345.803       23.591      861.587
09/19/2014  13:04:00       53.341       63.548       72.446       71.073       53.285       40.561     5051.320     2839.323     1645.161        1.083        0.477       82.967       39.822        0.230      346.155       24.198      861.579
09/19/2014  13:05:00       26.321      100.145       33.355       29.920       44.973       53.065      895.207     2022.566     2815.928        0.878        0.287      103.546       34.056        0.108      346.082       24.073      861.573
09/19/2014  13:06:00       38.119       41.555       20.971       50.256       31.008       26.328     2525.683      961.521      693.156        0.390        0.209       56.391        9.531        0.029      346.318       24.479      861.569
09/19/2014  13:07:00      155.607       60.794       58.477       99.175       85.593       66.208     9835.716     7326.226     4383.565        2.643        1.077      167.061       49.799        0.089      346.044       24.007      861.551
09/19/2014  13:08:00      111.417      105.730       93.968       97.985      102.715       70.108     9600.978    10550.287     4915.107        2.874        1.253      153.598       72.282        0.221      346.098       24.099      861.518
09/19/2014  13:09:00      190.973      105.416       28.479      102.957       63.616       74.009    10600.205     4047.019     5477.353        3.426        1.006      218.136       52.385        0.058      346.243       24.347      861.502
09/19/2014  13:10:00      228.557      153.450       19.953       71.463       61.812       51.418     5106.943     3820.670     2643.799        4.387        0.579      275.291       30.319        0.012      345.900       23.757      861.488
09/19/2014  13:11:00      137.753      124.680       12.230       66.515       37.587       48.054     4424.256     1412.784     2309.151        2.141        0.407      185.798       34.882        0.035      345.760       23.519      861.484
09/19/2014  13:12:00       62.880       58.659        8.464       49.302       42.730       44.755     2430.697     1825.834     2003.029        0.686        0.313       85.993       32.951        0.147      346.045       24.011      861.461
09/19/2014  13:13:00       66.818       67.106        7.597       58.275       40.194       38.176     3395.999     1615.524     1457.385        0.775        0.323       94.699       18.062        0.036      346.152       24.194      861.444
09/19/2014  13:14:00      140.277       94.626       42.524       63.988       61.898       61.174     4094.430     3831.423     3742.266        2.105        0.583      169.209       45.885        0.074      346.046       24.010      861.430
09/19/2014  13:15:00       86.284       59.064        1.695       86.095       45.514       31.765     7412.305     2071.563     1008.990        1.071        0.525      104.563        9.773        0.009      345.987       23.909      861.423
09/19/2014  13:16:00       40.904      -90.277       -8.837       35.631       35.483       23.702     1269.547     1259.008      561.788        0.650        0.155       99.111       14.686        0.022      345.903       23.768      861.399
09/19/2014  13:17:00       56.404      -52.629        9.727       47.005       71.590       40.003     2209.512     5125.193     1600.218        0.749        0.447       77.144       40.929        0.281      346.294       24.438      861.367
09/19/2014  13:18:00       14.557       -6.985       49.768       36.241       70.032       34.349     1313.392     4904.504     1179.879        0.507        0.370       16.146       41.676        6.662      346.648       25.047      861.347
09/19/2014  13:19:00      110.509       76.271       35.536       61.065       48.572       47.533     3728.926     2359.192     2259.397        1.382        0.417      134.274       33.650        0.063      346.239       24.342      861.329
09/19/2014  13:20:00       89.918       88.707       13.518       48.198       44.393       42.342     2323.067     1970.756     1792.821        1.111        0.304      126.309       30.471        0.058      346.191       24.262      861.307
09/19/2014  13:21:00       78.733       33.002       34.638       40.444       46.521       33.403     1635.682     2164.191     1115.730        0.670        0.246       85.369       22.189        0.068      346.237       24.340      861.278
09/19/2014  13:22:00       69.984     -106.171       -9.540       65.166       50.837       41.906     4246.617     2584.380     1756.151        1.242        0.429      127.161       33.182        0.068      346.164       24.216      861.238
09/19/2014  13:23:00       38.750      -59.314       18.577       55.052       43.707       35.495     3030.715     1910.263     1259.894        0.578        0.310       70.850       36.096        0.260      346.320       24.482      861.225
09/19/2014  13:24:00       24.241       -1.935       43.525       69.223       54.063       55.300     4791.805     2922.805     3058.064        0.663        0.539       24.318       31.123        1.638      346.828       25.357      861.200
09/19/2014  13:25:00        2.515       25.494        2.963       24.967       41.294       26.390      623.341     1705.210      696.419        0.184        0.151       25.618       12.064        0.222      346.831       25.363      861.193
09/19/2014  13:26:00       90.131       85.705       67.579       75.863       50.418       46.287     5755.145     2541.948     2142.512        1.524        0.522      124.374       41.523        0.111      346.759       25.237      861.178
09/19/2014  13:27:00       48.317       19.683       64.715       81.326      148.324       73.424     6613.990    21999.942     5391.112        2.045        1.700       52.172       87.960        2.842      346.508       24.806      861.169
09/19/2014  13:28:00       92.316     -185.013      -15.945       52.442       60.266       38.707     2750.199     3632.033     1498.259        2.544        0.394      206.766       31.094        0.023      346.141       24.173      861.154
09/19/2014  13:29:00       55.849      -91.335       11.028       63.102       78.734       47.337     3981.806     6199.002     2240.782        1.200        0.621      107.057       56.669        0.280      346.475       24.747      861.139
09/19/2014  13:30:00       53.252      -70.569       -0.350       30.915       44.361       29.707      955.713     1967.886      882.494        0.581        0.190       88.407       20.469        0.054      346.325       24.491      861.128
09/19/2014  13:31:00       -2.014       32.066       30.283       44.459       47.964       27.612     1976.562     2300.540      762.426        0.349        0.252       32.130       21.125        0.432      346.882       25.449      861.103
09/19/2014  13:32:00      -25.347       73.527       -3.902       24.609       50.857       26.239      605.580     2586.389      688.503        0.497        0.194       77.773       22.809        0.086      346.778       25.271      861.084
09/19/2014  13:33:00      -48.505       -3.390        9.884       81.543       53.718       26.430     6649.203     2885.670      698.542        0.635        0.512       48.623       32.196        0.438      346.941       25.550      861.072
09/19/2014  13:34:00     -141.098      -15.909      -10.507       58.597       70.386       31.508     3433.599     4954.157      992.740        1.482        0.469      141.992       25.885        0.033      346.456       24.715      861.058
09/19/2014  13:35:00     -162.645        2.813      -18.895       54.403      105.829       35.522     2959.701    11199.865     1261.830        2.112        0.771      162.669       34.731        0.046      346.550       24.877      861.054
09/19/2014  13:36:00     -111.637       55.295      -33.445       35.077       64.758       25.177     1230.403     4193.642      633.898        1.135        0.303      124.580       23.102        0.034      345.879       23.724      861.073
09/19/2014  13:37:00      -58.492       18.038      -23.895       18.590       29.272       18.778      345.571      856.824      352.629        0.294        0.078       61.210        9.158        0.022      345.993       23.922      861.058
09/19/2014  13:38:00      -30.330       -5.038       -0.355       31.709       15.594       13.665     1005.453      243.175      186.742        0.119        0.072       30.745       14.738        0.230      346.213       24.301      861.022
09/19/2014  13:39:00     -119.426      -37.779      -15.951       39.427       39.595       25.131     1554.504     1567.782      631.573        0.985        0.188      125.259       15.481        0.015      346.141       24.175      861.008
09/19/2014  13:40:00      -93.614      -80.730      -22.318       44.167       40.968       25.221     1950.709     1678.390      636.086        1.002        0.213      123.616        7.846        0.004      346.287       24.427      860.998
09/19/2014  13:41:00     -100.136      -22.518       -5.424       84.846       43.296       26.867     7198.860     1874.502      721.857        1.018        0.490      102.637       21.877        0.045      346.607       24.975      860.974
09/19/2014  13:42:00     -165.269      -37.146      -10.685       53.129       85.718       29.164     2822.675     7347.532      850.538        1.991        0.551      169.392       18.273        0.012      346.349       24.532      860.958
09/19/2014  13:43:00      -98.418       87.620      -29.804       56.833       86.077       46.133     3229.958     7409.183     2128.208        1.551        0.638      131.770       40.985        0.097      346.461       24.724      860.961
09/19/2014  13:44:00     -271.593       96.908      -22.219      109.903       51.754       49.731    12078.721     2678.485     2473.148        5.044        0.862      288.364       53.786        0.035      346.380       24.581      860.937
09/19/2014  13:45:00      -51.681       48.679       -4.708       95.297       56.969       44.056     9081.482     3245.434     1940.936        0.966        0.713       70.997       36.217        0.260      346.772       25.259      860.937
09/19/2014  13:46:00       57.813      159.034       -2.956       58.004       98.315       61.045     3364.475     9665.837     3726.515        2.270        0.838      169.217       58.124        0.118      346.675       25.092      860.938
09/19/2014  13:47:00       63.679      110.674        2.588       71.415       77.885       55.789     5100.031     6066.122     3112.435        1.529        0.714      127.686       50.738        0.158      346.672       25.088      860.940
09/19/2014  13:48:00        5.754       38.189        5.642       48.292       80.556       51.922     2332.119     6489.307     2695.937        0.652        0.576       38.620       29.569        0.586      346.938       25.545      860.933
09/19/2014  13:49:00      -38.873       -6.926      -11.189       38.198       62.810       31.731     1459.052     3945.085     1006.830        0.405        0.321       39.485       19.144        0.235      346.869       25.427      860.930
09/19/2014  13:50:00       51.592      -92.169       -3.595       42.296       55.664       39.414     1788.936     3098.508     1553.478        0.880        0.322      105.626       28.184        0.071      346.760       25.239      860.918
09/19/2014  13:51:00       31.067       -6.325       22.031       53.134       52.436       27.505     2823.175     2749.580      756.517        0.391        0.316       31.704       21.756        0.471      347.064       25.764      860.918
09/19/2014  13:52:00      125.912      -32.768       19.733       81.292      106.295       47.021     6608.468    11298.729     2210.988        1.871        1.006      130.106       47.577        0.134      346.936       25.541      860.908
09/19/2014  13:53:00       90.745        1.113       79.424       88.386      135.588       78.637     7812.159    18384.000     6183.727        2.346        1.619       90.752       94.042        1.074      346.869       25.426      860.884
09/19/2014  13:54:00       88.779     -103.646        5.472       48.094       61.724       32.056     2313.057     3809.827     1027.598        1.290        0.358      136.470       32.610        0.057      346.698       25.134      860.878
09/19/2014  13:55:00       29.768      -61.358        5.132       28.475       35.253       28.987      810.797     1242.795      840.234        0.378        0.145       68.198       19.579        0.082      346.730       25.188      860.849
09/19/2014  13:56:00       68.345     -145.365      -17.315       73.823       52.804       36.559     5449.803     2788.298     1336.550        1.784        0.479      160.630       22.610        0.020      346.521       24.826      860.812
09/19/2014  13:57:00       73.329     -162.522      -15.335       83.541       52.903       44.445     6979.146     2798.737     1975.367        2.189        0.588      178.300       26.671        0.022      346.572       24.914      860.791
09/19/2014  13:58:00      -38.797      -79.783       -0.601       77.848       81.852       37.876     6060.336     6699.737     1434.615        1.103        0.710       88.716       46.323        0.273      346.946       25.561      860.768
09/19/2014  13:59:00      -11.389     -122.067       -3.842       52.448       51.418       29.794     2750.785     2643.837      887.653        1.066        0.314      122.597       23.551        0.037      346.613       24.987      860.771
09/19/2014  14:00:00      -21.186      -27.213       20.054       56.673       53.358       32.401     3211.843     2847.078     1049.854        0.435        0.355       34.487       36.577        1.125      346.895       25.472      860.758
09/19/2014  14:01:00       -5.468      -52.914       10.057       46.006       63.789       47.383     2116.517     4069.015     2245.160        0.568        0.422       53.196       44.143        0.689      347.338       26.235      860.737
09/19/2014  14:02:00      -38.371      -29.651        7.053       49.602       27.575       23.928     2460.318      760.377      572.566        0.310        0.190       48.492       24.129        0.248      346.987       25.630      860.732
09/19/2014  14:03:00       22.285      -96.685        3.653       59.882       86.919       38.759     3585.905     7554.902     1502.228        1.125        0.632       99.220       43.439        0.192      346.956       25.577      860.729
09/19/2014  14:04:00       -2.535     -127.714        3.973       53.152       73.667       41.787     2825.171     5426.771     1746.142        1.316        0.500      127.739       35.869        0.079      347.299       26.166      860.692
09/19/2014  14:05:00      123.495      -91.594       15.391       98.568       99.158       63.985     9715.580     9832.307     4094.144        2.375        1.182      153.755       58.063        0.143      347.224       26.036      860.654
09/19/2014  14:06:00       88.793      -35.518       81.675       74.881      172.432       89.833     5607.103    29732.747     8069.992        2.960        2.170       95.633      108.178        1.280      347.105       25.833      860.649
09/19/2014  14:07:00      137.195     -237.847      -25.129       50.319       42.965       26.140     2531.982     1845.958      683.307        4.054        0.253      274.579       21.115        0.006      346.559       24.888      860.653
09/19/2014  14:08:00       66.568     -136.792       -5.211       41.459       37.149       24.680     1718.867     1380.076      609.121        1.344        0.185      152.129       24.212        0.025      346.437       24.682      860.647
09/19/2014  14:09:00       43.125     -103.744        4.436       40.972       81.399       25.105     1678.715     6625.877      630.255        1.079        0.447      112.350       19.275        0.029      346.845       25.384      860.634
09/19/2014  14:10:00       54.513       18.941       18.715       38.556       88.193       34.870     1486.585     7777.957     1215.933        0.708        0.524       57.710       22.670        0.154      347.288       26.149      860.617
09/19/2014  14:11:00       25.624       62.401        3.822       63.567       45.533       39.138     4040.745     2073.227     1531.770        0.610        0.382       67.457       23.843        0.125      347.331       26.224      860.610
09/19/2014  14:12:00       55.520       60.718       40.806       59.496       46.520       44.165     3539.806     2164.128     1950.511        0.804        0.383       82.275       34.871        0.180      347.329       26.221      860.591
09/19/2014  14:13:00       53.079       72.880       15.683       43.222       40.359       30.568     1868.151     1628.820      934.380        0.640        0.222       90.160       22.439        0.062      347.245       26.074      860.568
09/19/2014  14:14:00       48.902      107.781       -9.009       57.436       45.772       43.510     3298.839     2095.068     1893.084        1.069        0.364      118.356       36.913        0.097      347.120       25.858      860.553
09/19/2014  14:15:00      -25.216      162.840       -7.159       88.024       83.496       47.894     7748.180     6971.504     2293.831        2.211        0.851      164.781       42.369        0.066      347.158       25.924      860.542
09/19/2014  14:16:00      -96.352      248.572      -35.390       39.076       74.487       36.734     1526.938     5548.348     1349.376        4.037        0.421      266.593       33.247        0.016      346.703       25.138      860.510
09/19/2014  14:17:00      -41.230      169.253      -20.194       24.168       37.890       25.707      584.074     1435.624      660.871        1.672        0.134      174.203       18.790        0.012      346.711       25.154      860.501
09/19/2014  14:18:00       11.469       85.467        6.948       30.515       57.829       36.080      931.192     3344.193     1301.763        0.653        0.279       86.233       35.110        0.166      347.070       25.773      860.471
09/19/2014  14:19:00      -13.219       23.293       23.147       34.365       28.523       25.514     1180.958      813.536      650.958        0.195        0.132       26.782       18.561        0.480      347.442       26.413      860.451
09/19/2014  14:20:00      -26.239       59.288       22.002       38.978       35.055       22.406     1519.317     1228.826      502.031        0.397        0.163       64.835       17.758        0.075      347.389       26.323      860.447
09/19/2014  14:21:00      -21.034       -6.403       15.653       30.469       38.143       20.989      928.381     1454.910      440.549        0.178        0.141       21.987       14.510        0.436      347.836       27.096      860.442
09/19/2014  14:22:00      -29.282      -23.707        2.026       33.892       29.039       23.226     1148.647      843.277      539.437        0.198        0.127       37.676       22.918        0.370      347.499       26.512      860.445
09/19/2014  14:23:00        5.147        1.688        1.252       13.561       39.785       16.368      183.904     1582.813      267.911        0.103        0.102        5.416        8.957        2.735      347.767       26.975      860.432
09/19/2014  14:24:00      -28.931       15.175       -6.125       35.087       77.778       24.563     1231.131     6049.475      603.359        0.449        0.394       32.669       21.917        0.450      347.526       26.559      860.425
09/19/2014  14:25:00       19.732       51.996       59.832       28.799       56.383       29.390      829.397     3178.987      863.748        0.577        0.244       55.614       27.844        0.251      347.657       26.786      860.428
09/19/2014  14:26:00       34.791        4.515       43.107       58.612       80.555       50.810     3435.395     6489.053     2581.656        0.780        0.625       35.083       50.441        2.067      347.752       26.949      860.422
09/19/2014  14:27:00      132.157        5.257       60.440      106.538       55.178       52.662    11350.274     3044.590     2773.239        1.915        0.858      132.261       46.403        0.123      347.460       26.444      860.388
09/19/2014  14:28:00      163.374      128.643       46.530       91.117       66.565       54.719     8302.227     4430.956     2994.194        3.056        0.786      207.943       49.249        0.056      347.330       26.218      860.372
09/19/2014  14:29:00      115.616       58.561        4.294       64.927       58.611       40.816     4215.568     3435.252     1665.923        1.306        0.466      129.601       30.443        0.055      347.236       26.058      860.367
09/19/2014  14:30:00       73.723       55.546       27.786       88.490       68.031       49.229     7830.512     4628.165     2423.453        1.208        0.744       92.306       27.267        0.087      347.632       26.743      860.354
09/19/2014  14:31:00       82.737      163.094      -14.540       92.530       89.975       56.732     8561.735     8095.552     3218.574        2.676        0.994      182.880       52.989        0.084      347.134       25.881      860.346
09/19/2014  14:32:00       54.191       98.007        0.682       66.623       68.913       57.709     4438.685     4748.968     3330.367        1.253        0.626      111.991       48.902        0.191      347.330       26.222      860.347
09/19/2014  14:33:00       32.930       72.046       75.136       68.726       71.084       73.174     4723.296     5052.980     5354.404        1.352        0.757       79.215       59.285        0.560      347.514       26.538      860.347
09/19/2014  14:34:00       40.119        3.815       55.081       58.092       86.901       48.145     3374.665     7551.752     2317.975        0.895        0.662       40.300       57.285        2.021      347.521       26.549      860.334
09/19/2014  14:35:00       20.796       35.011       61.287       31.446       27.633       19.070      988.859      763.603      363.661        0.376        0.106       40.722       19.272        0.224      347.481       26.484      860.340
09/19/2014  14:36:00       79.630       70.795       54.159       43.016       28.841       33.364     1850.389      831.808     1113.170        0.904        0.190      106.550       22.379        0.044      347.404       26.350      860.346
09/19/2014  14:37:00      113.051       73.312        3.311       71.879       50.800       32.898     5166.556     2580.605     1082.271        1.350        0.441      134.741       15.366        0.013      347.499       26.512      860.346
09/19/2014  14:38:00      115.755      110.986       30.475      106.242       55.790       58.470    11287.349     3112.571     3418.714        2.223        0.891      160.365       38.112        0.056      347.760       26.962      860.340
09/19/2014  14:39:00      149.417      126.898        9.633       93.551       68.557       68.254     8751.857     4700.067     4658.541        2.831        0.906      196.032       40.661        0.043      347.293       26.155      860.365
09/19/2014  14:40:00      249.797      147.391       52.594      101.642       76.043       63.625    10331.146     5782.470     4048.175        5.352        1.008      290.039       40.279        0.019      347.263       26.101      860.312
09/19/2014  14:41:00       85.497       74.311       -4.750       79.395       64.094       33.041     6303.611     4108.065     1091.716        1.218        0.575      113.278       29.253        0.067      346.968       25.597      860.300
09/19/2014  14:42:00      132.063       81.024       10.022       69.742       54.788       41.243     4863.940     3001.766     1700.951        1.683        0.478      154.938       23.057        0.022      347.124       25.865      860.282
09/19/2014  14:43:00      102.521       80.447        4.606      116.187       55.827       46.267    13499.316     3116.708     2140.643        1.788        0.938      130.316       25.175        0.037      347.572       26.637      860.284
09/19/2014  14:44:00       65.509       41.614       66.692      105.899       83.576       71.066    11214.648     6984.950     5050.397        1.686        1.162       77.609       59.160        0.581      347.890       27.185      860.260
09/19/2014  14:45:00      137.920      118.651       94.041       97.498       99.409       72.735     9505.873     9882.086     5290.426        3.331        1.234      181.934       65.039        0.128      347.234       26.052      860.253
09/19/2014  14:46:00      233.172      127.718       47.701       99.567       97.805       62.779     9913.571     9565.864     3941.203        4.818        1.171      265.859       39.169        0.022      347.352       26.253      860.256
09/19/2014  14:47:00      188.500       99.763       26.210      102.683       99.009       69.852    10543.761     9802.838     4879.351        3.569        1.261      213.272       39.531        0.034      347.522       26.550      860.246
09/19/2014  14:48:00      152.184      136.899      114.824      111.235      115.629       95.514    12373.143    13370.111     9122.894        4.497        1.743      204.698       77.507        0.143      347.434       26.397      860.201
09/19/2014  14:49:00       89.909       79.902       71.752       94.112       77.034       59.885     8856.983     5934.263     3586.213        1.899        0.919      120.283       38.932        0.105      347.611       26.705      860.208
09/19/2014  14:50:00       55.681      -47.791       26.214       52.798       88.171       51.621     2787.617     7774.073     2664.685        0.965        0.661       73.378       49.827        0.461      347.847       27.113      860.213
09/19/2014  14:51:00       49.180       34.374       61.694       44.422       82.946       48.935     1973.307     6880.113     2394.597        0.932        0.562       60.002       47.374        0.623      347.696       26.852      860.199
09/19/2014  14:52:00       83.328     -100.441        3.993       61.325       66.284       40.408     3760.700     4393.568     1632.802        1.342        0.489      130.507       28.338        0.047      347.761       26.963      860.175
09/19/2014  14:53:00       84.074        0.619       58.196       81.751       85.015       55.427     6683.257     7227.499     3072.155        1.372        0.849       84.076       61.913        0.542      347.631       26.739      860.157
09/19/2014  14:54:00       89.042      -58.576       23.557       93.932      105.356       69.762     8823.198    11099.961     4866.708        1.835        1.239      106.582       83.674        0.616      347.668       26.803      860.148
09/19/2014  14:55:00       64.431     -153.596        8.825       85.013      111.433       56.603     7227.172    12417.334     3203.953        2.533        1.142      166.563       64.594        0.150      347.697       26.853      860.136
09/19/2014  14:56:00      110.808     -164.033        5.345      101.245      144.939       74.995    10250.573    21007.317     5624.181        3.804        1.844      197.953       85.452        0.186      347.763       26.964      860.111
09/19/2014  14:57:00       44.681       26.604       61.779       52.292       90.539       57.568     2734.500     8197.376     3314.071        1.038        0.712       52.002       59.401        1.305      348.009       27.393      860.130
09/19/2014  14:58:00      119.308      -92.074       11.300       85.591      141.926       77.861     7325.775    20143.065     6062.341        2.818        1.677      150.705       84.671        0.316      347.437       26.403      860.145
09/19/2014  14:59:00      104.112       69.406       91.308       83.456       70.887       44.281     6964.970     5024.927     1960.834        1.897        0.698      125.126       38.134        0.093      347.518       26.544      860.124
09/19/2014  15:00:00      163.493      138.680      140.161      141.211      108.025       93.186    19940.500    11669.505     8683.560        5.294        2.015      214.388       65.982        0.095      347.605       26.692      860.095
09/19/2014  15:01:00      111.306       67.662      121.952      112.351      124.756       85.750    12622.843    15563.954     7353.083        3.368        1.777      130.258       83.173        0.408      347.663       26.792      860.114
09/19/2014  15:02:00       49.559      108.882      108.794      105.475       86.814       66.313    11125.027     7536.752     4397.465        2.460        1.153      119.630       67.524        0.319      347.586       26.660      860.116
09/19/2014  15:03:00      101.160       31.000       58.289       80.182      114.673       83.434     6429.120    13149.933     6961.246        2.056        1.327      105.803       75.992        0.516      347.463       26.450      860.101
09/19/2014  15:04:00      174.636      103.160       86.437      147.409       68.749       67.853    21729.399     4726.423     4603.985        3.983        1.553      202.830       54.406        0.072      347.544       26.587      860.081
09/19/2014  15:05:00      110.628       55.930       63.400      106.481       73.806       67.390    11338.236     5447.342     4541.407        2.035        1.066      123.963       63.041        0.259      347.515       26.540      860.061
09/19/2014  15:06:00       57.373      -42.612       31.176       67.416       99.843       63.113     4544.974     9968.614     3983.234        1.228        0.925       71.466       71.890        1.012      347.386       26.319      860.060
09/19/2014  15:07:00      -20.735      -63.388        4.647       62.309       57.790       28.577     3882.407     3339.676      816.632        0.625        0.402       66.693       16.274        0.060      347.632       26.743      860.023
09/19/2014  15:08:00      -97.623      -20.624       -0.355       42.616       43.396       30.832     1816.096     1883.222      950.616        0.730        0.232       99.778       29.029        0.085      347.335       26.230      860.002
09/19/2014  15:09:00        6.206      -43.291       44.625       46.920       67.772       46.198     2201.440     4592.983     2134.223        0.641        0.446       43.733       32.815        0.563      347.896       27.197      859.996
09/19/2014  15:10:00       32.668     -120.397       -6.415       56.542       45.796       40.776     3196.988     2097.247     1662.707        1.128        0.348      124.751       23.514        0.036      347.701       26.861      859.993
09/19/2014  15:11:00      114.919      -87.320       -1.870       81.264       88.491       48.176     6603.873     7830.701     2320.888        1.879        0.838      144.330       51.578        0.128      347.465       26.454      859.986
09/19/2014  15:12:00       97.299      -92.661       16.159       73.890      108.060       67.339     5459.754    11676.976     4534.484        1.999        1.084      134.362       71.340        0.282      347.494       26.503      859.954
09/19/2014  15:13:00       58.082        6.280       53.020       76.040       97.608       61.128     5782.131     9527.403     3736.650        1.263        0.952       58.421       65.005        1.238      347.751       26.947      859.938
09/19/2014  15:14:00       63.422       -3.543       50.391       79.059      106.318       55.375     6250.314    11303.538     3066.352        1.359        1.031       63.521       62.555        0.970      347.761       26.963      859.953
09/19/2014  15:15:00      150.099       82.566       44.140       81.177       62.521       62.154     6589.638     3908.899     3863.087        2.283        0.718      171.310       58.643        0.117      347.635       26.744      859.943
09/19/2014  15:16:00      150.166      107.019       65.490       66.831       51.971       46.831     4466.411     2700.956     2193.178        2.382        0.468      184.399       39.827        0.047      347.540       26.582      859.926
09/19/2014  15:17:00       67.195       46.608       72.450       79.553       65.863       51.335     6328.618     4337.891     2635.283        1.262        0.665       81.777       48.416        0.351      347.665       26.798      859.920
09/19/2014  15:18:00      120.431       67.127       46.578       73.735       55.544       45.324     5436.823     3085.089     2054.299        1.588        0.529      137.875       34.566        0.063      347.447       26.421      859.922
09/19/2014  15:19:00       63.333        5.078       16.056       43.604       50.406       37.125     1901.297     2540.758     1378.293        0.506        0.291       63.536       33.709        0.281      347.563       26.624      859.924
09/19/2014  15:20:00       73.730       27.317       60.696       87.599       96.375       56.408     7673.508     9288.216     3181.825        1.500        1.007       78.628       53.573        0.464      347.839       27.098      859.902
09/19/2014  15:21:00      114.857       74.672       95.154      114.150       83.318       74.428    13030.169     6941.947     5539.503        2.666        1.276      136.997       68.677        0.251      347.870       27.150      859.893
09/19/2014  15:22:00       71.098      115.018       98.837       97.925       76.927       75.748     9589.254     5917.701     5737.703        2.464        1.062      135.219       73.796        0.298      347.773       26.981      859.895
09/19/2014  15:23:00      104.747       90.239       -3.687      111.211       70.327       50.146    12367.897     4945.892     2514.656        1.947        0.991      138.257       42.547        0.095      347.821       27.067      859.914
09/19/2014  15:24:00       32.376       98.298        3.386       59.819       88.898       43.578     3578.305     7902.919     1899.041        1.205        0.669      103.493       48.708        0.222      347.659       26.788      859.921
09/19/2014  15:25:00       62.935       85.060        9.286       73.002       64.317       53.083     5329.227     4136.634     2817.801        1.178        0.614      105.811       42.694        0.163      347.674       26.814      859.913
09/19/2014  15:26:00      124.365       89.630       42.348      111.846       84.552       61.251    12509.437     7149.060     3751.732        2.435        1.171      153.298       30.097        0.039      347.903       27.209      859.912
09/19/2014  15:27:00      222.679      146.950       75.930      128.165       83.102       71.568    16426.355     6905.946     5121.916        5.269        1.423      266.796       49.487        0.034      347.778       26.992      859.929
09/19/2014  15:28:00      100.977       74.553       71.423       87.159       83.156       78.131     7596.750     6914.906     6104.449        2.073        1.031      125.517       58.376        0.216      347.475       26.468      859.917
09/19/2014  15:29:00       37.508      -49.060       33.328       83.009       94.760       47.964     6890.486     8979.398     2300.592        1.154        0.909       61.755       41.867        0.460      347.906       27.214      859.863
09/19/2014  15:30:00      123.077      104.194      125.884      156.203      110.874       80.559    24399.345    12293.132     6489.797        4.251        2.159      161.259       84.013        0.271      347.804       27.037      859.829
09/19/2014  15:31:00       67.922       90.674      113.832       84.773       85.482       71.234     7186.432     7307.172     5074.258        2.268        0.978      113.293       55.512        0.240      347.745       26.935      859.832
09/19/2014  15:32:00       30.956       59.627       84.152       79.493       69.436       46.179     6319.124     4821.307     2132.455        1.243        0.664       67.184       31.388        0.218      347.911       27.223      859.822
09/19/2014  15:33:00       53.892      -31.826       26.344       54.052       77.496       56.137     2921.637     6005.570     3151.310        0.834        0.604       62.588       48.452        0.599      347.625       26.729      859.815
09/19/2014  15:34:00       85.963       78.680       82.568       69.685       94.639       55.422     4855.945     8956.602     3071.593        1.864        0.844      116.534       49.775        0.182      347.713       26.881      859.779
09/19/2014  15:35:00      141.090      108.684       79.980      121.064       74.797       59.033    14656.499     5594.565     3484.947        3.092        1.187      178.097       22.240        0.016      347.787       27.009      859.793
09/19/2014  15:36:00      279.051      108.613       91.019      133.517      111.621      103.301    17826.682    12459.197    10671.150        6.945        2.048      299.443       70.559        0.056      347.704       26.861      859.787
09/19/2014  15:37:00      197.701       82.300      127.202      150.811      124.713      104.067    22744.076    15553.263    10830.026        5.557        2.456      214.147      106.688        0.248      347.650       26.770      859.810
09/19/2014  15:38:00      131.395       89.487       55.125      118.027       88.288       74.767    13930.321     7794.708     5590.119        2.781        1.366      158.974       60.718        0.146      347.695       26.849      859.817
09/19/2014  15:39:00      130.699       81.852       78.239      120.267       75.774       67.474    14464.197     5741.765     4552.674        2.733        1.238      154.214       60.563        0.154      347.668       26.803      859.809
09/19/2014  15:40:00       93.179      -54.160       31.952      108.507      154.049       70.375    11773.813    23731.101     4952.633        2.654        2.023      107.776       93.718        0.756      347.872       27.154      859.805
09/19/2014  15:41:00      243.086     -216.429      -23.754      124.987      187.908       91.561    15621.776    35309.383     8383.399        8.289        2.966      325.472      116.003        0.127      347.637       26.747      859.770
09/19/2014  15:42:00      145.905     -116.103       27.151      119.417      137.978       76.790    14260.419    19037.986     5896.772        3.734        1.960      186.463      103.407        0.308      347.616       26.712      859.784
09/19/2014  15:43:00       65.991     -178.518      -10.679       66.654      104.614       61.434     4442.711    10944.174     3774.178        2.775        0.958      190.324       63.866        0.113      347.668       26.802      859.740
09/19/2014  15:44:00      193.283      100.998       83.477      188.112      131.625      109.315    35386.196    17325.134    11949.790        5.958        3.233      218.080       98.090        0.202      347.856       27.125      859.709
09/19/2014  15:45:00      226.184      149.884      100.805      176.143      146.077      115.644    31026.418    21338.385    13373.615        7.475        3.287      271.338      108.512        0.160      347.856       27.125      859.738
09/19/2014  15:46:00      119.955       60.259       83.796      135.438       95.343       72.684    18343.455     9090.307     5282.945        2.887        1.636      134.240       66.861        0.248      347.949       27.286      859.744
09/19/2014  15:47:00      223.493      123.196      123.203      193.995      139.841      105.803    37634.005    19555.481    11194.210        7.433        3.419      255.198       97.215        0.145      347.853       27.120      859.732
09/19/2014  15:48:00      155.505      119.876      135.383      123.082      126.762       85.819    15149.248    16068.558     7364.941        4.772        1.929      196.346       83.437        0.181      347.645       26.759      859.738
09/19/2014  15:49:00      184.302      131.245       98.417      128.801       99.783       85.312    16589.606     9956.595     7278.206        4.734        1.691      226.257       80.984        0.128      347.704       26.862      859.745
09/19/2014  15:50:00      168.227      117.382      101.823      114.307       92.776       76.756    13066.173     8607.340     5891.487        4.000        1.378      205.131       71.171        0.120      347.848       27.110      859.726
09/19/2014  15:51:00      149.052      108.574       95.639       94.699      110.935       85.637     8967.887    12306.517     7333.641        3.587        1.430      184.404       78.282        0.180      347.873       27.155      859.718
09/19/2014  15:52:00       79.523       40.013       89.195      131.841      102.267       73.926    17382.012    10458.531     5465.017        2.459        1.665       89.023       70.772        0.632      347.983       27.345      859.703
09/19/2014  15:53:00      106.508       56.124      102.370      106.671      130.180       66.324    11378.713    16946.874     4398.910        2.884        1.636      120.391       74.761        0.386      347.821       27.067      859.701
09/19/2014  15:54:00      129.763       25.182       93.158      129.621      126.614       88.581    16801.610    16031.042     7846.625        3.341        2.034      132.184       91.495        0.479      347.856       27.125      859.690
09/19/2014  15:55:00       50.952       30.734      101.623       70.293       81.360       75.828     4941.092     6619.435     5749.876        1.559        0.866       59.504       56.632        0.906      347.999       27.374      859.674
09/19/2014  15:56:00      122.138       17.720       22.967       77.258      121.943       64.350     5968.815    14870.140     4140.893        2.036        1.249      123.417       44.192        0.128      347.957       27.301      859.672
09/19/2014  15:57:00      117.167       98.568        0.210       83.375       78.590       58.039     6951.352     6176.425     3368.561        1.997        0.825      153.113       39.423        0.066      347.812       27.051      859.693
09/19/2014  15:58:00       58.103      109.332       -8.599       67.727       69.551       45.838     4586.971     4837.393     2101.127        1.346        0.576      123.812       36.657        0.088      347.731       26.912      859.676
09/19/2014  15:59:00      104.278      140.807       -3.950       88.382       90.441       73.413     7811.337     8179.495     5389.538        2.604        1.069      175.216       62.778        0.128      347.751       26.945      859.657
09/19/2014  16:00:00      220.452      136.622       29.267       81.384       78.866       55.024     6623.422     6219.798     3027.586        4.199        0.794      259.355       36.352        0.020      347.945       27.278      859.649
09/19/2014  16:01:00      132.454      101.220       16.568       76.436       50.878       42.905     5842.461     2588.541     1840.809        1.917        0.514      166.702       29.390        0.031      347.833       27.087      859.660
09/19/2014  16:02:00      105.455       89.778       14.397       53.796       43.371       46.955     2894.024     1881.064     2204.818        1.318        0.349      138.495       24.636        0.032      347.926       27.248      859.644
09/19/2014  16:03:00      189.427      128.866       44.246       71.895       61.454       52.000     5168.881     3776.581     2703.963        3.305        0.582      229.105       27.958        0.015      347.860       27.131      859.628
09/19/2014  16:04:00      101.675       67.707        5.212       74.598       54.537       46.120     5564.872     2974.314     2127.055        1.281        0.533      122.156       32.457        0.071      347.819       27.062      859.624
09/19/2014  16:05:00       89.309       51.597        2.740       43.782       39.629       35.878     1916.824     1570.463     1287.216        0.771        0.239      103.142       10.397        0.010      347.713       26.882      859.634
09/19/2014  16:06:00      101.546       45.538       48.988       93.324       71.743       41.932     8709.353     5147.113     1758.265        1.520        0.781      111.289       27.028        0.059      347.938       27.269      859.632
09/19/2014  16:07:00      200.676      105.042       18.326      112.007       90.266       69.440    12545.626     8148.038     4821.952        3.857        1.276      226.506       38.163        0.028      348.012       27.394      859.642
09/19/2014  16:08:00      246.752      147.840       52.575      104.680       93.429       62.972    10957.947     8729.026     3965.414        5.458        1.183      287.651       10.047        0.001      347.892       27.187      859.629
09/19/2014  16:09:00      245.676      149.693       43.144      141.102      113.413       75.476    19909.872    12862.534     5696.583        6.154        1.923      287.688       31.029        0.012      347.877       27.161      859.640
09/19/2014  16:10:00      234.798      140.051       28.436      127.164       72.158       52.548    16170.571     5206.839     2761.333        4.984        1.207      273.394       25.396        0.009      347.742       26.929      859.661
09/19/2014  16:11:00       88.286       93.145       46.761       99.544       77.409       74.427     9908.977     5992.156     5539.322        2.004        1.072      128.337       37.093        0.084      347.866       27.144      859.635
09/19/2014  16:12:00       12.017      146.648       -7.293       41.577       90.943       44.105     1728.652     8270.628     1945.259        1.682        0.597      147.139       48.147        0.107      347.916       27.231      859.634
09/19/2014  16:13:00       46.177      182.177      -24.584       48.990       77.963       43.154     2400.054     6078.183     1862.307        2.313        0.517      187.938       45.180        0.058      347.792       27.017      859.621
09/19/2014  16:14:00       82.697      129.499        0.725      112.652       83.409       55.775    12690.439     6956.999     3110.817        2.318        1.138      153.652       55.155        0.129      347.956       27.299      859.596
09/19/2014  16:15:00      186.340      118.282       22.129       69.808       56.918       61.072     4873.201     3239.680     3729.795        3.052        0.592      220.710       17.275        0.006      347.882       27.170      859.600
09/19/2014  16:16:00       61.621       13.221       23.298       70.248       71.153       38.899     4934.824     5062.791     1513.107        0.801        0.576       63.023       29.933        0.226      347.997       27.371      859.579
09/19/2014  16:17:00       89.876      -65.720       41.365      108.272      105.051       72.440    11722.814    11035.697     5247.565        2.105        1.400      111.342       65.181        0.343      348.104       27.554      859.562
09/19/2014  16:18:00       89.959       46.950       27.580       73.543       93.128       52.982     5408.609     8672.791     2807.096        1.397        0.844      101.473       36.482        0.129      348.181       27.688      859.570
09/19/2014  16:19:00      173.369      111.306       38.288       76.568       62.583       68.603     5862.644     3916.626     4706.352        2.920        0.724      206.023       43.578        0.045      348.373       28.019      859.582
09/19/2014  16:20:00      267.119      156.498       55.037      100.628       80.850       68.073    10125.926     6536.735     4633.997        6.008        1.065      309.587       35.374        0.013      347.845       27.106      859.592
09/19/2014  16:21:00      117.093       67.129       23.783       74.285       62.137       50.636     5518.241     3860.972     2563.992        1.536        0.597      134.970       35.220        0.068      348.009       27.392      859.586
09/19/2014  16:22:00      123.858       83.409       59.133       74.090       67.927       56.228     5489.368     4614.091     3161.615        1.953        0.663      149.325       32.223        0.047      348.115       27.574      859.586
09/19/2014  16:23:00      134.138       56.525       42.712       93.793       61.372       60.270     8797.197     3766.512     3632.443        1.960        0.810      145.561       45.496        0.098      348.186       27.696      859.594
09/19/2014  16:24:00      133.155       79.243       90.201      102.869      113.276       67.501    10581.976    12831.344     4556.335        3.005        1.398      154.951       51.250        0.109      348.145       27.625      859.608
09/19/2014  16:25:00      128.879       36.786       53.561       90.839       65.311       55.705     8251.794     4265.546     3103.096        1.822        0.781      134.026       38.235        0.081      347.856       27.126      859.621
09/19/2014  16:26:00      127.882       53.803       46.213       76.290       82.849       45.513     5820.108     6863.936     2071.394        1.807        0.738      138.740       30.120        0.047      347.849       27.115      859.628
09/19/2014  16:27:00       63.276       60.839       22.817       65.533       46.225       32.592     4294.509     2136.778     1062.213        0.786        0.375       87.779       20.499        0.055      347.878       27.166      859.609
09/19/2014  16:28:00      119.522       80.880       63.103       93.322       69.897       77.755     8708.975     4885.572     6045.817        2.222        0.982      144.316       65.711        0.207      347.946       27.282      859.604
09/19/2014  16:29:00       72.745       38.948       33.734       66.509       58.289       46.185     4423.462     3397.620     2133.052        0.895        0.498       82.515       38.414        0.217      347.879       27.168      859.604
09/19/2014  16:30:00       85.246       50.646       30.230       55.011       73.922       39.738     3026.234     5464.426     1579.104        1.041        0.503       99.156       12.397        0.016      347.893       27.192      859.604
09/19/2014  16:31:00      186.240       96.151       42.333       92.886       83.014       50.461     8627.878     6891.330     2546.352        3.189        0.903      209.596       35.775        0.029      347.928       27.250      859.620
09/19/2014  16:32:00      235.491      203.166       15.767      115.238       88.179       95.803    13279.808     7775.478     9178.149        6.360        1.512      311.018       65.522        0.044      347.865       27.141      859.616
09/19/2014  16:33:00      182.708      145.153        8.159      119.612       75.337       75.214    14306.932     5675.681     5657.184        4.007        1.282      233.348       53.054        0.052      347.740       26.925      859.626
09/19/2014  16:34:00       34.140      150.381      -13.222       51.049      127.564       43.321     2606.001    16272.604     1876.750        2.235        1.038      154.208       61.131        0.157      347.805       27.037      859.620
09/19/2014  16:35:00        1.121      106.578       -4.217       60.707       65.144       39.085     3685.288     4243.707     1527.669        1.042        0.473      106.584       24.506        0.053      347.825       27.075      859.588
09/19/2014  16:36:00       68.555      117.748       -3.005       47.762       79.302       46.175     2281.170     6288.782     2132.121        1.464        0.535      136.251       42.823        0.099      347.915       27.229      859.590
09/19/2014  16:37:00      156.235      100.547       39.318      126.439       99.464       93.196    15986.926     9893.108     8685.497        3.531        1.728      185.793       69.250        0.139      347.967       27.318      859.591
09/19/2014  16:38:00      170.171      117.219       43.908      104.908       68.097       57.144    11005.726     4637.163     3265.447        3.176        0.945      206.636       35.914        0.030      347.717       26.886      859.612
09/19/2014  16:39:00      205.233      132.761       29.298      106.240       80.331       70.548    11286.870     6453.149     4977.002        4.166        1.136      244.430       41.503        0.029      347.735       26.916      859.599
09/19/2014  16:40:00      165.758       88.226       10.048      153.783       69.698       63.219    23649.314     4857.769     3996.677        3.393        1.625      187.775       61.984        0.109      347.818       27.060      859.593
09/19/2014  16:41:00      119.470       76.230       14.100       53.030       43.977       34.983     2812.223     1933.998     1223.797        1.313        0.299      141.718       26.621        0.035      347.838       27.098      859.602
09/19/2014  16:42:00       63.111       68.430       32.745       43.331       28.570       28.936     1877.595      816.240      837.293        0.663        0.177       93.089       21.323        0.052      347.951       27.292      859.591
09/19/2014  16:43:00       27.031       31.295       31.025       20.412       25.020       27.138      416.656      625.977      736.493        0.223        0.089       41.353       15.637        0.143      347.891       27.188      859.576
09/19/2014  16:44:00       57.022       13.278       10.360       33.150       23.771       23.873     1098.947      565.082      569.935        0.288        0.112       58.548       13.662        0.054      347.889       27.185      859.578
09/19/2014  16:45:00       72.182       26.825        1.695       37.249       33.168       25.643     1387.524     1100.135      657.557        0.454        0.157       77.005       13.808        0.032      348.052       27.466      859.580
09/19/2014  16:46:00      248.014      180.315       50.509       89.880       64.403       62.819     8078.467     4147.712     3946.253        5.637        0.809      306.634       38.903        0.016      347.837       27.092      859.564
09/19/2014  16:47:00      335.835      133.691       82.996      113.913      109.417       99.977    12976.218    11972.189     9995.427        8.624        1.747      361.467       74.595        0.043      347.941       27.271      859.539
09/19/2014  16:48:00      187.273       81.637       52.216      130.369       99.863       81.297    16996.129     9972.686     6609.175        3.901        1.679      204.293       65.718        0.103      347.943       27.275      859.542
09/19/2014  16:49:00      107.583       57.943       70.361       67.897       73.325       50.574     4610.057     5376.515     2557.747        1.621        0.627      122.195       40.906        0.112      347.995       27.369      859.557
09/19/2014  16:50:00       88.468       66.427       93.398      101.430      101.533       66.455    10288.025    10309.008     4416.237        2.298        1.251      110.631       60.332        0.297      348.137       27.612      859.540
09/19/2014  16:51:00      204.202      111.596       63.591       92.426       79.979       72.243     8542.635     6396.686     5219.010        3.917        1.008      232.706       56.875        0.060      348.140       27.616      859.549
09/19/2014  16:52:00       97.435       89.823       63.871       71.538       57.313       46.083     5117.729     3284.737     2123.661        1.608        0.526      132.521       32.856        0.061      348.076       27.507      859.544
09/19/2014  16:53:00       82.401       64.706       56.918       86.733       60.859       52.268     7522.698     3703.811     2731.963        1.408        0.698      104.770       43.306        0.171      348.054       27.471      859.551
09/19/2014  16:54:00      181.585       85.851       37.147       76.513       54.458       41.274     5854.266     2965.653     1703.517        2.612        0.526      200.857       29.096        0.021      347.947       27.283      859.563
09/19/2014  16:55:00      108.711      107.510        0.083       65.869       50.463       45.368     4338.710     2546.554     2058.261        1.616        0.447      152.894       22.865        0.022      347.887       27.183      859.563
09/19/2014  16:56:00       65.014       90.525        3.432       73.265       66.504       54.344     5367.729     4422.720     2953.251        1.259        0.637      111.452       39.578        0.126      347.856       27.127      859.549
09/19/2014  16:57:00       53.624       84.936        6.974       36.610       91.958       33.924     1340.298     8456.331     1150.812        1.054        0.547      100.448       42.115        0.176      347.875       27.161      859.548
09/19/2014  16:58:00       74.206       18.921       -6.301       24.280       29.411       28.782      589.497      865.025      828.414        0.409        0.114       76.580       20.318        0.070      347.828       27.081      859.544
09/19/2014  16:59:00      192.680      107.131       47.940       66.202       57.444       47.568     4382.752     3299.864     2262.751        3.042        0.497      220.459       14.602        0.004      347.911       27.219      859.554
09/19/2014  17:00:00      141.767       98.687       32.568       67.947       54.223       47.647     4616.743     2940.123     2270.279        2.036        0.491      172.734       18.643        0.012      348.011       27.392      859.561
09/19/2014  17:01:00      197.362      126.155       36.597      124.785      107.665       72.203    15571.285    11591.653     5213.275        4.428        1.619      234.237       46.800        0.040      348.093       27.533      859.559
09/19/2014  17:02:00      224.590      137.592       50.672      103.428       88.239       64.593    10697.392     7786.090     4172.250        4.729        1.133      263.386       36.174        0.019      347.954       27.294      859.556
09/19/2014  17:03:00      204.976      115.623       60.675      125.738      113.373       85.479    15810.022    12853.415     7306.593        4.751        1.799      235.338       77.845        0.109      347.956       27.298      859.553
09/19/2014  17:04:00      257.322      157.348      121.442      130.308      104.336       73.850    16980.106    10886.059     5453.751        6.951        1.666      301.617       55.864        0.034      347.887       27.178      859.553
09/19/2014  17:05:00      222.897       22.734      115.163      161.765      137.775      101.335    26167.967    18982.002    10268.755        5.943        2.771      224.053       86.086        0.148      347.911       27.219      859.518
09/19/2014  17:06:00      215.977      123.171      122.288      151.760      122.011       87.129    23031.020    14886.721     7591.455        6.113        2.275      248.630       70.424        0.080      347.857       27.126      859.518
09/19/2014  17:07:00      208.678      126.000       72.189      126.145       89.012       85.431    15912.615     7923.098     7298.520        4.788        1.557      243.768       66.480        0.074      347.953       27.293      859.545
09/19/2014  17:08:00      170.263      140.934      100.245      133.082       80.786      104.216    17710.907     6526.424    10861.077        4.699        1.755      221.024       80.764        0.134      347.984       27.345      859.568
09/19/2014  17:09:00      206.115      100.592       61.897      144.024      105.812       82.425    20742.948    11196.117     6793.950        4.758        1.937      229.352       72.852        0.101      347.892       27.190      859.571
09/19/2014  17:10:00       95.872       67.329       36.161       66.977       51.190       51.344     4485.971     2620.420     2636.235        1.239        0.487      117.152       43.234        0.136      347.919       27.236      859.581
09/19/2014  17:11:00      298.675      111.933       27.263      141.023      111.597       76.175    19887.569    12453.974     5802.576        7.030        1.907      318.960       40.666        0.016      347.851       27.116      859.556
09/19/2014  17:12:00       23.655       71.934       77.364       61.846       70.215       71.690     3824.912     4930.102     5139.461        1.280        0.695       75.723       66.964        0.782      347.876       27.163      859.551
09/19/2014  17:13:00       24.818       -4.799       38.107       60.564       45.975       30.193     3667.942     2113.714      911.618        0.439        0.335       25.278       22.322        0.780      348.004       27.383      859.540
09/19/2014  17:14:00       44.267       66.554       54.873       36.082       39.333       38.635     1301.903     1547.103     1492.670        0.687        0.217       79.931       29.593        0.137      347.990       27.359      859.540
09/19/2014  17:15:00       87.970       70.314       16.264       79.828       63.740       47.481     6372.573     4062.793     2254.456        1.282        0.634      112.618       27.286        0.059      347.924       27.245      859.540
09/19/2014  17:16:00      194.678      116.707       45.262       73.482       63.607       56.031     5399.648     4045.891     3139.424        3.307        0.629      226.981       30.981        0.019      347.893       27.188      859.527
09/19/2014  17:17:00       96.946       23.933       20.833       52.875       37.776       28.131     2795.713     1427.052      791.345        0.771        0.251       99.857       16.131        0.026      347.827       27.078      859.521
09/19/2014  17:18:00      166.604       76.209       29.280      119.444       49.536       40.438    14266.772     2453.835     1635.232        2.639        0.918      183.207       19.249        0.011      347.870       27.150      859.533
09/19/2014  17:19:00      180.566       81.329       63.835      113.579       87.168       83.314    12900.179     7598.300     6941.282        3.536        1.372      198.036       78.829        0.158      347.857       27.127      859.516
09/19/2014  17:20:00      162.557      139.089      153.738      122.503      125.789       77.660    15007.069    15822.971     6031.034        5.313        1.843      213.940       63.290        0.088      347.948       27.284      859.497
09/19/2014  17:21:00      153.490       36.473       95.596      116.019      108.038       80.765    13460.475    11672.105     6523.002        3.284        1.583      157.764       72.644        0.212      347.944       27.278      859.495
09/19/2014  17:22:00      105.605       12.847       98.301       94.779      117.059       82.326     8982.980    13702.897     6777.646        2.522        1.473      106.383       81.294        0.584      348.011       27.393      859.488
09/19/2014  17:23:00      120.348       16.144       80.599      102.605       62.758       57.592    10527.813     3938.545     3316.806        1.951        0.889      121.426       43.934        0.131      347.972       27.327      859.508
09/19/2014  17:24:00       67.841       -0.206       33.188       66.667       50.430       47.320     4444.538     2543.147     2239.215        0.746        0.461       67.842       33.185        0.239      347.941       27.275      859.526
09/19/2014  17:25:00       77.287       33.373       36.941       63.217       53.919       36.663     3996.432     2907.252     1344.185        0.835        0.412       84.185       20.617        0.060      348.019       27.409      859.553
09/19/2014  17:26:00      119.492       93.722       20.838       78.343       53.368       43.049     6137.615     2848.140     1853.230        1.717        0.542      151.863       34.797        0.053      347.980       27.341      859.562
09/19/2014  17:27:00      118.367       79.265       11.061       72.836       43.828       32.555     5305.121     1920.937     1059.833        1.435        0.414      142.456       19.974        0.020      347.997       27.371      859.565
09/19/2014  17:28:00       57.115       70.261        2.433       62.806       39.143       29.569     3944.601     1532.149      874.311        0.728        0.318       90.547       26.261        0.084      347.906       27.215      859.563
09/19/2014  17:29:00       55.697       96.313        3.612       73.735       50.854       37.633     5436.798     2586.102     1416.260        1.091        0.472      111.258       36.661        0.109      347.919       27.237      859.561
09/19/2014  17:30:00       94.002       81.352        9.428       94.456       59.108       48.805     8922.006     3493.779     2381.970        1.517        0.740      124.317       16.575        0.018      347.959       27.304      859.542
09/19/2014  17:31:00      145.208       60.136       17.319       85.784       72.062       47.774     7358.851     5192.891     2282.374        1.991        0.742      157.167       17.684        0.013      347.968       27.318      859.542
09/19/2014  17:32:00      171.421      102.864       54.170       85.064       77.571       64.251     7235.842     6017.266     4128.167        3.014        0.869      199.915       41.679        0.043      348.048       27.457      859.545
09/19/2014  17:33:00      203.848      139.148       56.269      126.763       85.732       88.476    16068.832     7350.028     7827.990        4.766        1.562      246.812       47.860        0.038      347.986       27.350      859.529
09/19/2014  17:34:00      290.752      147.811       52.428      148.991       95.164       76.498    22198.341     9056.255     5851.904        7.311        1.855      326.167       43.757        0.018      347.996       27.366      859.525
09/19/2014  17:35:00      263.532      112.382       53.627      123.523       96.898       72.135    15257.900     9389.180     5203.475        5.740        1.493      286.494       55.238        0.037      347.957       27.299      859.515
09/19/2014  17:36:00      174.632       79.056       33.234      111.648       84.707       76.868    12465.343     7175.266     5908.657        3.169        1.277      191.693       64.790        0.114      348.006       27.384      859.511
09/19/2014  17:37:00      120.626       80.313       56.722      116.206       78.818       63.612    13503.922     6212.291     4046.487        2.399        1.188      144.917       52.893        0.133      347.927       27.249      859.509
09/19/2014  17:38:00      233.914       70.514        8.976      146.282       95.297       85.255    21398.401     9081.485     7268.331        4.875        1.887      244.311       63.460        0.067      347.946       27.280      859.492
09/19/2014  17:39:00      129.428       74.043       16.469      105.429       70.867       64.035    11115.191     5022.128     4100.464        2.137        1.012      149.111       47.043        0.100      347.957       27.303      859.491
09/19/2014  17:40:00      111.079       94.959       54.011       78.721       44.859       45.231     6197.071     2012.291     2045.858        1.726        0.513      146.136       40.042        0.075      348.048       27.460      859.514
09/19/2014  17:41:00      119.149       35.719       20.092       85.983       58.993       42.889     7393.043     3480.180     1839.450        1.429        0.636      124.388       33.287        0.072      348.013       27.399      859.506
09/19/2014  17:42:00       54.957       66.165       63.141       83.438       58.908       42.062     6961.943     3470.166     1769.174        1.179        0.610       86.012       36.440        0.179      348.039       27.444      859.503
09/19/2014  17:43:00      150.631       80.247       44.303       60.352       49.860       47.351     3642.377     2486.028     2242.101        1.973        0.419      170.673       31.696        0.034      347.970       27.324      859.498
09/19/2014  17:44:00       54.862       21.101       16.781       48.544       45.197       34.499     2356.539     2042.758     1190.159        0.466        0.279       58.780       15.997        0.074      348.066       27.490      859.495
09/19/2014  17:45:00       84.551       38.926       25.489       50.015       32.776       25.606     2501.528     1074.250      655.659        0.677        0.212       93.081       21.933        0.056      347.990       27.359      859.497
09/19/2014  17:46:00       60.798       36.147       13.601       48.991       54.698       34.063     2400.136     2991.883     1160.317        0.587        0.328       70.732       29.609        0.175      347.996       27.369      859.501
09/19/2014  17:47:00       63.301       54.119       47.781       65.610       35.491       36.493     4304.655     1259.612     1331.716        0.806        0.345       83.282       35.747        0.184      347.975       27.335      859.498
09/19/2014  17:48:00       48.148       31.541       19.035       23.711       25.511       21.878      562.222      650.827      478.658        0.268        0.085       57.559        6.540        0.013      348.023       27.416      859.500
09/19/2014  17:49:00       58.983       11.485        2.497       47.581       45.255       27.758     2263.934     2048.006      770.506        0.435        0.254       60.091       30.009        0.249      347.971       27.327      859.497
09/19/2014  17:50:00       96.496       39.889       15.451       42.419       33.435       29.513     1799.361     1117.921      871.024        0.746        0.189      104.416       16.031        0.024      347.979       27.338      859.496
09/19/2014  17:51:00       68.726       40.916       28.726       72.606       53.948       43.161     5271.597     2910.359     1862.899        0.863        0.502       79.984       29.372        0.135      348.016       27.404      859.505
09/19/2014  17:52:00       93.389      125.070        9.178       89.567       79.297       73.676     8022.327     6288.040     5428.097        2.209        0.987      156.090       51.610        0.109      347.933       27.259      859.502
09/19/2014  17:53:00      226.570      152.831       19.497      115.123       88.064       78.943    13253.255     7755.309     6232.008        5.115        1.362      273.297       54.515        0.040      347.936       27.262      859.479
09/19/2014  17:54:00      281.405      139.969       31.488      122.908      100.746       76.481    15106.390    10149.767     5849.329        6.543        1.555      314.293       35.962        0.013      347.957       27.299      859.489
09/19/2014  17:55:00      189.481      113.806       25.852       78.542       61.444       58.646     6168.780     3775.328     3439.402        3.145        0.669      221.031       35.639        0.026      347.897       27.197      859.495
09/19/2014  17:56:00      127.061       98.940       40.042      109.299       85.057       48.074    11946.356     7234.758     2311.093        2.451        1.075      161.039       34.788        0.047      347.883       27.174      859.481
09/19/2014  17:57:00      131.653       32.344       12.847       74.495       53.372       39.841     5549.575     2848.541     1587.311        1.426        0.499      135.568       24.176        0.032      347.887       27.181      859.485
09/19/2014  17:58:00      155.830      102.618       26.631       65.161       55.065       46.898     4245.943     3032.155     2199.407        2.250        0.474      186.584       30.336        0.026      347.931       27.255      859.497
09/19/2014  17:59:00      140.174       92.247       67.312       68.473       63.154       56.042     4688.522     3988.412     3140.659        2.225        0.591      167.804       44.578        0.071      347.911       27.221      859.489
09/19/2014  18:00:00       83.541       16.549       13.186       70.267       51.374       33.761     4937.399     2639.331     1139.827        0.807        0.436       85.164       22.484        0.070      347.971       27.327      859.491
09/19/2014  18:01:00      161.882       60.008       16.181       81.693       85.011       54.950     6673.800     7226.838     3019.499        2.349        0.846      172.646       22.950        0.018      347.884       27.174      859.505
09/19/2014  18:02:00      222.626      145.122       40.306       93.556       71.752       63.741     8752.788     5148.293     4062.858        4.510        0.898      265.749       39.549        0.022      347.901       27.203      859.501
09/19/2014  18:03:00      198.625      106.761       37.447       88.542      103.794       63.509     7839.696    10773.121     4033.409        3.744        1.132      225.499       26.533        0.014      347.867       27.144      859.496
09/19/2014  18:04:00      232.570      149.999       12.663      135.044       93.925       91.088    18236.882     8821.823     8297.053        5.605        1.768      276.747       50.404        0.033      347.871       27.150      859.493
09/19/2014  18:05:00      247.060      165.364       31.058      118.827       81.763       73.354    14119.841     6685.171     5380.871        5.776        1.309      297.294       34.071        0.013      347.884       27.174      859.490
09/19/2014  18:06:00      189.955      127.705       10.680       76.001       60.232       50.631     5776.081     3627.887     2563.542        3.223        0.598      228.892       40.096        0.031      347.874       27.155      859.497
09/19/2014  18:07:00      159.908       76.361       25.782      100.067       84.042       52.097    10013.314     7062.991     2714.061        2.592        0.990      177.205       35.983        0.041      347.857       27.128      859.500
09/19/2014  18:08:00      206.090      136.794       35.630       87.314       72.103       51.475     7623.648     5198.811     2649.648        3.896        0.774      247.357       37.776        0.023      347.903       27.206      859.498
09/19/2014  18:09:00      190.169      108.537       34.311      126.086       74.454       59.267    15897.562     5543.396     3512.579        3.703        1.248      218.962       38.583        0.031      347.900       27.200      859.496
09/19/2014  18:10:00      244.234      160.459       16.498      146.252       93.646       69.317    21389.723     8769.509     4804.908        6.031        1.748      292.228       50.026        0.029      347.880       27.166      859.498
09/19/2014  18:11:00      110.809      139.661       14.009      103.455      119.466       68.307    10702.919    14272.033     4665.878        3.080        1.482      178.281       64.380        0.130      347.864       27.139      859.481
09/19/2014  18:12:00      134.992      133.095        4.609       84.887       91.776       68.024     7205.872     8422.901     4627.265        2.810        1.013      189.571       61.204        0.104      347.880       27.166      859.483
09/19/2014  18:13:00      170.235      127.999       23.118       93.320       68.742       61.019     8708.655     4725.399     3723.358        3.152        0.858      212.988       34.827        0.027      347.880       27.166      859.475
09/19/2014  18:14:00      284.719      204.815       29.228      112.587       83.999       75.559    12675.824     7055.860     5709.195        7.465        1.272      350.733       38.691        0.012      347.875       27.157      859.463
09/19/2014  18:15:00      173.404       98.104       46.786      111.746       74.765       63.625    12487.166     5589.804     4048.099        3.200        1.106      199.231       48.788        0.060      347.880       27.166      859.440
09/19/2014  18:16:00      122.554       62.847       31.355       74.052       59.514       44.993     5483.656     3541.896     2024.329        1.550        0.552      137.729       25.766        0.035      347.830       27.084      859.440
09/19/2014  18:17:00      149.679       93.901       25.763       62.826       46.405       42.334     3947.062     2153.469     1792.182        1.989        0.395      176.695       22.228        0.016      347.865       27.141      859.437
09/19/2014  18:18:00      156.294      116.647       46.529       84.194       62.025       50.012     7088.674     3847.136     2501.180        2.682        0.672      195.024       22.418        0.013      347.898       27.198      859.435
09/19/2014  18:19:00      153.053       91.728       24.413       59.216       46.109       45.859     3506.538     2126.009     2103.036        2.008        0.387      178.436       24.538        0.019      347.893       27.189      859.437
09/19/2014  18:20:00      169.240       92.420       16.488       66.508       47.376       49.161     4423.289     2244.483     2416.779        2.327        0.454      192.831       19.668        0.010      347.903       27.205      859.426
09/19/2014  18:21:00      152.797       81.062       -0.681       66.804       47.308       37.859     4462.733     2238.005     1433.318        1.902        0.407      172.968       22.504        0.017      347.866       27.142      859.416
09/19/2014  18:22:00      116.350       85.069       34.928       61.047       40.703       44.326     3726.702     1656.701     1964.771        1.467        0.367      144.133       30.295        0.044      347.751       26.946      859.422
09/19/2014  18:23:00      194.955      112.514       35.893       74.764       62.695       54.808     5589.675     3930.721     3003.952        3.224        0.626      225.093       33.646        0.022      347.796       27.024      859.431
09/19/2014  18:24:00      153.986       80.056       38.248       96.668       58.118       57.273     9344.618     3377.650     3280.232        2.379        0.800      173.553       46.957        0.073      347.780       26.995      859.434
09/19/2014  18:25:00       66.531       52.855       43.360       71.210       36.605       45.146     5070.897     1339.943     2038.171        0.877        0.422       84.971       40.195        0.224      347.663       26.795      859.456
09/19/2014  18:26:00      117.373       67.583       31.254       67.594       39.132       43.780     4568.979     1531.291     1916.648        1.367        0.401      135.440       31.953        0.056      347.658       26.787      859.463
09/19/2014  18:27:00      139.182       87.056       26.382       47.978       40.042       37.749     2301.897     1603.364     1425.008        1.649        0.267      164.166       25.924        0.025      347.758       26.957      859.464
09/19/2014  18:28:00      159.680      116.578       30.409       96.415       61.777       55.459     9295.838     3816.455     3075.747        2.810        0.809      197.707       33.131        0.028      347.747       26.938      859.462
09/19/2014  18:29:00      238.486      149.518       34.212       74.587       53.157       49.664     5563.281     2825.635     2466.502        4.563        0.543      281.480       22.874        0.007      347.806       27.037      859.448
09/19/2014  18:30:00      143.885       82.584       31.575       86.277       64.387       53.783     7443.757     4145.731     2892.587        2.150        0.724      165.900       20.708        0.016      347.677       26.818      859.449
09/19/2014  18:31:00      168.738       25.411       51.975       98.133      126.813       64.776     9630.064    16081.593     4195.922        3.086        1.495      170.640       66.339        0.151      347.694       26.847      859.442
09/19/2014  18:32:00      161.230       76.516       25.429       64.786       65.951       49.528     4197.257     4349.483     2453.009        2.175        0.550      178.465       27.940        0.025      347.640       26.753      859.448
09/19/2014  18:33:00      146.144       73.301        9.459       79.907       61.853       55.048     6385.191     3825.759     3030.278        2.003        0.662      163.496       16.440        0.010      347.645       26.763      859.454
09/19/2014  18:34:00      134.459       76.773       24.846       98.959       69.492       51.403     9792.979     4829.080     2642.258        2.092        0.863      154.833       35.337        0.052      347.714       26.882      859.458
09/19/2014  18:35:00      168.009      110.551       34.669       93.157       68.338       51.596     8678.300     4670.073     2662.184        2.883        0.801      201.119       51.094        0.065      347.700       26.857      859.452
09/19/2014  18:36:00      172.546       89.961       38.930       66.112       58.513       52.965     4370.819     3423.753     2805.327        2.499        0.530      194.590       36.698        0.036      347.690       26.838      859.446
09/19/2014  18:37:00      110.095       33.824       33.807       67.569       45.141       43.220     4565.599     2037.719     1867.982        1.144        0.424      115.174       23.974        0.043      347.487       26.491      859.451
09/19/2014  18:38:00      162.998       63.711       32.463       95.954       64.422       61.272     9207.225     4150.234     3754.319        2.439        0.856      175.007       41.879        0.057      347.670       26.803      859.460
09/19/2014  18:39:00       82.855       30.740       40.322      103.809       58.234       45.542    10776.284     3391.177     2074.102        1.284        0.812       88.373       38.881        0.194      347.559       26.615      859.477
09/19/2014  18:40:00       99.590       29.475       68.423       87.815       71.224       47.726     7711.498     5072.854     2277.816        1.526        0.753      103.860       41.755        0.162      347.574       26.641      859.484
09/19/2014  18:41:00      122.456       85.895       43.615       83.052       57.722       53.223     6897.629     3331.853     2832.723        1.867        0.653      149.577       49.700        0.110      347.603       26.690      859.490
09/19/2014  18:42:00       98.286       81.770       54.846       88.693       60.433       50.689     7866.437     3652.176     2569.374        1.672        0.704      127.853       53.455        0.175      347.584       26.659      859.498
09/19/2014  18:43:00      100.763       55.133       62.747       71.832       74.040       51.360     5159.778     5481.918     2637.886        1.520        0.664      114.860       33.454        0.085      347.568       26.630      859.502
09/19/2014  18:44:00      154.110       86.827       25.825       77.320       65.367       48.567     5978.409     4272.839     2358.741        2.228        0.630      176.887       33.204        0.035      347.603       26.691      859.518
09/19/2014  18:45:00      156.669      100.960       41.971       69.525       48.206       45.879     4833.686     2323.801     2104.876        2.288        0.463      186.381       31.358        0.028      347.576       26.645      859.526
09/19/2014  18:46:00      168.654       45.170       25.950       77.764       52.531       37.123     6047.207     2759.496     1378.126        2.067        0.509      174.599       19.048        0.012      347.520       26.548      859.538
09/19/2014  18:47:00      156.088       54.165       35.067      108.022       80.497       63.231    11668.763     6479.770     3998.121        2.533        1.107      165.219       49.058        0.088      347.528       26.560      859.537
09/19/2014  18:48:00      158.542      104.196       28.489       58.425       54.580       39.379     3413.451     2978.922     1550.700        2.237        0.397      189.716       20.758        0.012      347.536       26.575      859.558
09/19/2014  18:49:00       99.179       89.212       15.060       39.772       33.693       27.589     1581.817     1135.196      761.150        1.075        0.174      133.399       20.228        0.023      347.433       26.397      859.561
09/19/2014  18:50:00      120.473       84.580       19.895       38.655       33.583       33.401     1494.207     1127.843     1115.619        1.290        0.187      147.199       23.002        0.024      347.485       26.486      859.556
09/19/2014  18:51:00       98.332       48.023       25.375       60.748       33.111       33.870     3690.264     1096.330     1147.187        0.928        0.297      109.433       24.869        0.052      347.448       26.424      859.556
09/19/2014  18:52:00       69.683       65.020       13.383       55.358       33.506       34.558     3064.555     1122.650     1194.257        0.732        0.269       95.307       21.135        0.049      347.466       26.455      859.556
09/19/2014  18:53:00       92.468       52.388       20.392       39.617       29.711       28.606     1569.522      882.767      818.323        0.749        0.164      106.277       17.575        0.027      347.481       26.480      859.555
09/19/2014  18:54:00       79.520       68.061       22.628       42.792       40.479       29.845     1831.113     1638.554      890.733        0.791        0.218      104.670       18.374        0.031      347.505       26.525      859.546
09/19/2014  18:55:00       63.729       56.297       -4.244       45.165       34.491       24.954     2039.904     1189.653      622.710        0.555        0.193       85.034       15.048        0.031      347.444       26.418      859.549
09/19/2014  18:56:00      107.018       70.616       17.737       37.556       31.556       31.135     1410.438      995.793      969.362        1.006        0.169      128.217       18.672        0.021      347.491       26.500      859.543
09/19/2014  18:57:00       50.051       64.125       -2.921       44.124       34.511       24.302     1946.932     1190.987      590.610        0.518        0.186       81.346       18.945        0.054      347.416       26.369      859.549
09/19/2014  18:58:00       57.037       61.312        5.078       43.788       41.358       34.054     1917.358     1710.515     1159.683        0.591        0.239       83.740       32.377        0.149      347.427       26.387      859.555
09/19/2014  18:59:00       85.809       66.147       13.233       44.594       30.420       27.393     1988.604      925.351      750.361        0.779        0.183      108.345       10.136        0.009      347.397       26.335      859.560
09/19/2014  19:00:00       96.574       63.849       10.676       35.161       29.906       30.088     1236.277      894.341      905.276        0.828        0.152      115.773       22.260        0.037      347.321       26.205      859.567
09/19/2014  19:01:00      104.679       77.706       20.461       43.644       28.706       34.681     1904.794      824.024     1202.788        1.067        0.197      130.368       26.908        0.043      347.342       26.241      859.577
09/19/2014  19:02:00      103.018       71.293       23.951       22.251       25.053       18.878      495.099      627.659      356.363        0.887        0.074      125.281       11.873        0.009      347.296       26.161      859.587
09/19/2014  19:03:00      129.339       77.203       14.477       40.076       40.619       33.632     1606.065     1649.917     1131.116        1.364        0.219      150.628       18.309        0.015      347.447       26.422      859.573
09/19/2014  19:04:00      135.070       90.292       35.316       59.395       30.110       32.314     3527.752      906.623     1044.178        1.656        0.274      162.470       28.102        0.030      347.402       26.344      859.587
09/19/2014  19:05:00       90.381       36.115        7.361       51.681       46.633       32.494     2670.924     2174.631     1055.858        0.771        0.295       97.329       12.861        0.017      347.245       26.075      859.594
09/19/2014  19:06:00      126.262       67.215       21.541       59.250       54.178       33.458     3510.590     2935.217     1119.425        1.424        0.378      143.038       27.787        0.038      347.341       26.239      859.602
09/19/2014  19:07:00      124.122       84.883        8.300       41.075       28.409       33.601     1687.141      807.064     1129.039        1.315        0.181      150.371       23.882        0.025      347.298       26.165      859.616
09/19/2014  19:08:00       98.420       64.291       27.167       19.269       14.135       18.727      371.300      199.808      350.698        0.774        0.046      117.558        9.440        0.006      347.243       26.071      859.606
09/19/2014  19:09:00      101.599       57.162       18.488       32.270       23.586       23.775     1041.366      556.303      565.249        0.805        0.108      116.575        7.549        0.004      347.247       26.078      859.612
09/19/2014  19:10:00       65.170       37.492       18.624       38.683       31.121       23.118     1496.400      968.500      534.428        0.450        0.150       75.185       19.804        0.069      347.269       26.116      859.610
09/19/2014  19:11:00       73.102       41.172       25.153       26.948       22.545       18.462      726.171      508.257      340.859        0.462        0.079       83.899       11.364        0.018      347.201       26.000      859.609
09/19/2014  19:12:00       59.331       33.143       12.031       22.797       23.261       18.538      519.711      541.085      343.668        0.308        0.070       67.961       14.040        0.043      347.075       25.781      859.613
09/19/2014  19:13:00       72.954       24.547       11.717       31.907       25.645       19.878     1018.030      657.670      395.121        0.407        0.104       76.973       12.257        0.025      347.091       25.808      859.615
09/19/2014  19:14:00       78.337       34.295       20.991       26.090       22.874       15.393      680.667      523.234      236.946        0.460        0.072       85.515       11.039        0.017      347.204       26.004      859.619
09/19/2014  19:15:00       45.959       24.554       11.231       27.788       26.393       16.164      772.194      696.613      261.279        0.229        0.087       52.107       14.001        0.072      347.141       25.896      859.617
09/19/2014  19:16:00       50.035       47.067       11.426       19.713       15.723       13.053      388.620      247.202      170.377        0.283        0.040       68.693        7.861        0.013      347.236       26.060      859.621
09/19/2014  19:17:00       29.334       38.354        2.001       19.161       20.135       11.417      367.151      405.399      130.359        0.162        0.045       48.285        9.036        0.035      347.167       25.940      859.626
09/19/2014  19:18:00       38.229       38.483        2.836       20.888       20.915       15.357      436.293      437.455      235.844        0.203        0.055       54.244       14.727        0.074      347.220       26.030      859.633
09/19/2014  19:19:00       31.686       37.756       -0.211       17.486       18.213       15.098      305.754      331.720      227.954        0.165        0.043       49.290       10.828        0.048      347.153       25.916      859.634
09/19/2014  19:20:00       34.110       45.217       -1.715       20.632       22.080       18.528      425.678      487.506      343.297        0.223        0.063       56.640       14.836        0.069      347.093       25.813      859.642
09/19/2014  19:21:00       20.411       41.833        4.673       18.223       19.696       14.937      332.086      387.916      223.114        0.157        0.047       46.547        7.724        0.028      347.010       25.670      859.650
09/19/2014  19:22:00       19.742       43.016        3.646       24.863       27.688       19.507      618.191      766.601      380.528        0.201        0.088       47.330       17.113        0.131      346.999       25.650      859.662
09/19/2014  19:23:00       26.982       88.473      -11.587       25.380       25.525       16.708      644.132      651.548      279.155        0.513        0.079       92.496       17.394        0.035      347.066       25.765      859.680
09/19/2014  19:24:00       17.325      105.251      -18.333       16.873       18.009        8.375      284.701      324.321       70.139        0.620        0.034      106.668        7.337        0.005      347.159       25.927      859.686
09/19/2014  19:25:00        7.244      114.735      -15.411       12.968       18.623        7.485      168.158      346.828       56.031        0.701        0.029      114.963        8.041        0.005      347.159       25.927      859.691
09/19/2014  19:26:00      -10.640      105.620      -15.003       15.855       16.994        8.889      251.392      288.781       79.019        0.606        0.031      106.155        6.315        0.004      347.131       25.878      859.695
09/19/2014  19:27:00      -31.738       81.551      -14.234       16.548       25.615       10.618      273.822      656.105      112.739        0.445        0.052       87.509        9.445        0.012      346.962       25.588      859.710
09/19/2014  19:28:00      -30.794       95.242      -16.911       15.338       18.916       10.038      235.259      357.818      100.758        0.550        0.035      100.096        4.045        0.002      347.011       25.671      859.717
09/19/2014  19:29:00      -23.572       70.825       -9.668       19.964       20.263       12.697      398.548      410.606      161.220        0.332        0.049       74.645        7.660        0.011      346.935       25.542      859.730
09/19/2014  19:30:00      -18.954      109.132      -14.658       21.144       24.104       13.266      447.059      581.002      175.985        0.684        0.060      110.766       12.824        0.013      347.014       25.678      859.734
09/19/2014  19:31:00       -4.459      117.499      -15.335       22.138       18.242        8.551      490.099      332.766       73.113        0.748        0.045      117.583        8.455        0.005      347.064       25.763      859.745
09/19/2014  19:32:00      -12.456      104.994      -15.413       19.519       21.171       10.563      380.976      448.199      111.586        0.618        0.047      105.731        5.756        0.003      346.991       25.636      859.753
09/19/2014  19:33:00       -2.400      108.975      -18.016       24.060       25.073       14.515      578.900      628.655      210.686        0.681        0.071      109.001       13.891        0.016      346.995       25.644      859.773
09/19/2014  19:34:00      -12.442      123.340      -17.556       21.978       26.722       11.693      483.039      714.040      136.724        0.850        0.067      123.966       12.466        0.010      346.937       25.544      859.771
09/19/2014  19:35:00        0.806      151.593      -23.405       17.951       27.233       12.492      322.222      741.622      156.053        1.237        0.061      151.595       11.780        0.006      346.995       25.642      859.793
09/19/2014  19:36:00       11.719      135.303      -18.459       24.588       35.764       16.878      604.552     1279.094      284.866        1.048        0.108      135.809       14.875        0.012      346.917       25.508      859.804
09/19/2014  19:37:00       18.292      141.356      -11.100       34.265       28.308       22.633     1174.109      801.347      512.272        1.146        0.124      142.534       16.163        0.013      346.863       25.416      859.827
09/19/2014  19:38:00      -15.449      123.955      -18.801       28.146       23.611       13.205      792.196      557.488      174.381        0.874        0.076      124.914       11.168        0.008      346.859       25.410      859.836
09/19/2014  19:39:00      -33.958      140.561      -22.322       20.528       22.462       12.338      421.396      504.555      152.226        1.124        0.054      144.605        6.688        0.002      346.865       25.420      859.850
09/19/2014  19:40:00       -4.673      128.872      -19.367       36.693       39.477       19.902     1346.345     1558.432      396.071        1.015        0.165      128.957       16.727        0.017      346.849       25.393      859.849
09/19/2014  19:41:00       18.248      145.678      -27.756       30.356       33.294       15.079      921.489     1108.512      227.371        1.229        0.113      146.817       15.872        0.012      346.898       25.477      859.856
09/19/2014  19:42:00       32.762       53.414        1.416       46.063       31.663       29.406     2121.827     1002.549      864.715        0.396        0.199       62.662       21.892        0.122      346.784       25.280      859.851
09/19/2014  19:43:00       18.057      109.956      -12.087       25.565       42.852       18.945      653.591     1836.262      358.896        0.771        0.142      111.429       15.739        0.020      346.789       25.288      859.861
09/19/2014  19:44:00       28.877      185.536      -24.298       62.244       64.493       39.096     3874.289     4159.353     1528.479        2.270        0.478      187.770       30.269        0.026      346.756       25.231      859.884
09/19/2014  19:45:00       51.374      190.161      -17.709       65.683      117.940       47.982     4314.296    13909.808     2302.303        2.982        1.026      196.979       64.360        0.107      346.820       25.338      859.890
09/19/2014  19:46:00       48.405      144.509        0.202       60.416       80.504       61.625     3650.142     6480.847     3797.606        1.857        0.696      152.401       54.568        0.128      346.721       25.170      859.908
09/19/2014  19:47:00       93.520      111.366       12.375       93.164       64.683       54.217     8679.487     4183.849     2939.468        1.855        0.790      145.425       32.525        0.050      346.857       25.406      859.903
09/19/2014  19:48:00       41.627      129.676      -20.896       41.439       55.541       34.029     1717.167     3084.786     1157.996        1.247        0.298      136.193       32.268        0.056      346.787       25.285      859.922
09/19/2014  19:49:00       56.817      118.004      -13.191       46.042       90.661       44.486     2119.904     8219.414     1979.043        1.482        0.616      130.970       46.975        0.129      346.743       25.208      859.934
09/19/2014  19:50:00      181.406      118.040       16.619       77.166       44.360       48.971     5954.627     1967.782     2398.185        2.872        0.516      216.429       39.796        0.034      346.894       25.466      859.932
09/19/2014  19:51:00      122.284       78.932        3.571       85.453       71.294       56.948     7302.224     5082.780     3243.021        1.841        0.781      145.546       27.340        0.035      346.929       25.527      859.931
09/19/2014  19:52:00       67.804      144.422      -12.148       59.482       81.835       44.961     3538.148     6697.011     2021.498        1.893        0.613      159.547       39.201        0.060      346.805       25.316      859.947
09/19/2014  19:53:00       51.969      106.913       -0.384       60.416       87.111       52.239     3650.152     7588.252     2728.869        1.405        0.698      118.875       52.768        0.197      346.718       25.166      859.957
09/19/2014  19:54:00       36.165      101.417        7.830       59.175       87.015       49.349     3501.727     7571.658     2435.336        1.258        0.675      107.672       52.397        0.237      346.682       25.105      859.961
09/19/2014  19:55:00       35.081      127.720       -6.184       52.848       73.763       52.423     2792.888     5440.977     2748.143        1.428        0.549      132.451       50.203        0.144      346.757       25.233      859.960
09/19/2014  19:56:00       30.854      126.253       -4.589       48.769       83.925       47.280     2378.446     7043.448     2235.429        1.428        0.583      129.968       54.528        0.176      346.719       25.167      859.966
09/19/2014  19:57:00       20.459      194.213      -24.785       45.922       56.348       36.741     2108.869     3175.049     1349.885        2.269        0.332      195.287       34.640        0.031      346.810       25.323      859.967
09/19/2014  19:58:00       11.307      113.661       -4.015       43.250       93.598       43.239     1870.605     8760.517     1869.570        1.278        0.625      114.223       48.096        0.177      346.647       25.044      859.981
09/19/2014  19:59:00       30.338      167.787      -22.760       39.695       74.146       39.472     1575.675     5497.598     1558.075        1.911        0.432      170.508       46.088        0.073      346.771       25.255      859.978
09/19/2014  20:00:00       23.743      137.731      -22.564       27.850       43.182       28.676      775.601     1864.728      822.292        1.175        0.173      139.763       17.958        0.017      346.689       25.118      859.981
09/19/2014  20:01:00       21.123      100.032      -13.209       37.095       29.039       22.928     1376.032      843.283      525.698        0.669        0.137      102.238       15.237        0.022      346.641       25.034      859.997
09/19/2014  20:02:00       38.168      100.358       -3.121       35.377       54.006       33.948     1251.506     2916.595     1152.445        0.843        0.266      107.371       28.428        0.070      346.659       25.067      860.005
09/19/2014  20:03:00       40.068      101.529       -4.487       47.117       71.024       39.934     2219.967     5044.348     1594.728        1.039        0.443      109.149       38.125        0.122      346.657       25.062      860.014
09/19/2014  20:04:00       22.728       86.241       -7.613       36.863       41.481       34.460     1358.883     1720.693     1187.473        0.614        0.213       89.185       26.923        0.091      346.659       25.065      860.015
09/19/2014  20:05:00       42.474       99.537      -13.856       30.275       35.377       28.630      916.546     1251.505      819.696        0.745        0.149      108.220       18.868        0.030      346.620       24.998      860.022
09/19/2014  20:06:00       46.851       67.113        1.512       37.692       61.090       32.360     1420.659     3731.964     1047.192        0.645        0.310       81.848       33.247        0.165      346.593       24.951      860.028
09/19/2014  20:07:00       33.209       62.135       -1.454       33.815       38.966       25.799     1143.429     1518.327      665.569        0.415        0.166       70.453       23.565        0.112      346.543       24.866      860.026
09/19/2014  20:08:00       39.949       78.542       -7.723       28.450       40.007       25.269      809.417     1600.527      638.528        0.544        0.152       88.117       21.821        0.061      346.567       24.907      860.039
09/19/2014  20:09:00       14.216       41.329       -1.344       24.335       49.178       21.556      592.193     2418.461      464.649        0.269        0.174       43.706       22.172        0.257      346.491       24.777      860.038
09/19/2014  20:10:00       37.263      123.593       -6.208       33.742       59.410       41.323     1138.514     3529.575     1707.582        1.154        0.319      129.088       39.581        0.094      346.581       24.931      860.036
09/19/2014  20:11:00       62.127       60.765        3.645       41.412       29.314       36.785     1714.922      859.290     1353.125        0.575        0.196       86.903       25.710        0.088      346.534       24.849      860.042
09/19/2014  20:12:00       50.063      142.431      -15.885       45.345       77.910       38.832     2056.150     6069.900     1507.888        1.634        0.482      150.973       45.205        0.090      346.570       24.910      860.054
09/19/2014  20:13:00       41.450      104.868      -10.628       38.279       39.715       30.555     1465.292     1577.261      933.625        0.840        0.199      112.763       24.396        0.047      346.502       24.796      860.065
09/19/2014  20:14:00       32.711      121.299      -10.220       45.140       65.257       35.215     2037.616     4258.433     1240.061        1.171        0.377      125.632       38.533        0.094      346.556       24.888      860.071
09/19/2014  20:15:00       20.863      142.913      -16.707       47.061       98.110       39.777     2214.730     9625.487     1582.233        1.728        0.671      144.428       52.198        0.131      346.588       24.941      860.072
09/19/2014  20:16:00       11.024       83.433      -12.981       27.444       23.450       17.826      753.198      549.903      317.767        0.444        0.081       84.158        8.298        0.010      346.497       24.786      860.083
09/19/2014  20:17:00       26.575       52.823        7.697       35.196       37.106       25.467     1238.791     1376.837      648.578        0.341        0.163       59.132       20.149        0.116      346.467       24.735      860.093
09/19/2014  20:18:00       31.822      101.772      -16.448       29.782       26.217       16.290      886.944      687.343      265.359        0.674        0.092      106.631       16.103        0.023      346.518       24.823      860.088
09/19/2014  20:19:00       29.181       88.058       -5.112       36.385       45.900       29.450     1323.832     2106.784      867.315        0.646        0.215       92.767       29.587        0.102      346.529       24.842      860.100
09/19/2014  20:20:00       37.337      109.267       -0.846       35.526       55.657       34.084     1262.085     3097.667     1161.715        0.943        0.276      115.470       34.704        0.090      346.554       24.885      860.101
09/19/2014  20:21:00       19.056      114.796      -15.427       25.129       58.627       25.917      631.483     3437.147      671.677        0.926        0.237      116.367       31.883        0.075      346.565       24.904      860.096
09/19/2014  20:22:00       22.870       75.377        4.246       32.251       54.664       34.696     1040.146     2988.133     1203.796        0.573        0.262       78.770       33.838        0.185      346.415       24.647      860.111
09/19/2014  20:23:00       -2.124      136.282      -12.295       35.670       79.525       39.841     1272.379     6324.204     1587.310        1.395        0.459      136.298       48.049        0.124      346.573       24.917      860.112
09/19/2014  20:24:00       12.651      110.332      -14.591       35.611       39.240       25.439     1268.113     1539.809      647.123        0.800        0.173      111.055       12.461        0.013      346.534       24.850      860.124
09/19/2014  20:25:00       19.619      111.477       -6.838       43.525       42.135       33.181     1894.422     1775.387     1100.956        0.881        0.239      113.190       29.508        0.068      346.527       24.838      860.144
09/19/2014  20:26:00       28.341       50.133       18.513       34.947       40.852       31.483     1221.288     1668.924      991.169        0.377        0.194       57.589       23.068        0.160      346.456       24.717      860.147
09/19/2014  20:27:00       35.751       97.159        4.025       37.989       56.577       31.137     1443.139     3200.915      969.528        0.817        0.281      103.527       32.268        0.097      346.545       24.870      860.160
09/19/2014  20:28:00       26.975       72.654        0.104       46.531       53.229       29.699     2165.089     2833.321      882.018        0.594        0.294       77.500       34.533        0.199      346.509       24.807      860.175
09/19/2014  20:29:00       28.172      162.819      -23.148       43.934       42.466       32.106     1930.225     1803.387     1030.773        1.630        0.238      165.238       22.377        0.018      346.614       24.989      860.179
09/19/2014  20:30:00       43.787       53.330       11.517       59.101       36.192       32.115     3492.920     1309.872     1031.349        0.536        0.292       69.003       31.259        0.205      346.450       24.708      860.194
09/19/2014  20:31:00       62.630       59.842        4.613       41.533       40.248       25.108     1725.029     1619.913      630.399        0.575        0.199       86.623       19.703        0.052      346.417       24.650      860.202
09/19/2014  20:32:00       51.444       98.571       -6.283       36.185       50.805       25.216     1309.363     2581.182      635.856        0.846        0.226      111.187       25.444        0.052      346.466       24.733      860.205
09/19/2014  20:33:00       61.934       82.594        8.473       64.565       48.438       48.162     4168.591     2346.245     2319.536        0.978        0.442      103.236       24.937        0.058      346.534       24.849      860.217
09/19/2014  20:34:00       33.147       98.108       -7.179       34.361       51.077       36.133     1180.647     2608.897     1305.600        0.793        0.255      103.556       33.359        0.104      346.610       24.982      860.216
09/19/2014  20:35:00       16.703       84.139      -13.564       24.693       61.458       24.283      609.763     3777.106      589.687        0.626        0.249       85.781       26.895        0.098      346.481       24.757      860.212
09/19/2014  20:36:00       38.415       96.238       -2.705       34.109       83.120       37.528     1163.420     6908.952     1408.367        1.011        0.474      103.622       47.367        0.209      346.614       24.988      860.230
09/19/2014  20:37:00       16.557       99.365       -2.467       40.818       84.338       36.350     1666.078     7112.903     1321.294        1.012        0.505      100.735       43.490        0.186      346.562       24.897      860.229
09/19/2014  20:38:00       21.848      175.148      -21.709       48.926       65.672       28.678     2393.798     4312.766      822.400        1.958        0.376      176.506       24.974        0.020      346.622       25.000      860.232
09/19/2014  20:39:00       48.878       79.135        5.530       38.691       64.511       44.948     1497.003     4161.648     2020.353        0.818        0.384       93.013       44.223        0.226      346.548       24.875      860.239
09/19/2014  20:40:00       51.960      132.259      -11.896       61.435       64.792       39.968     3774.198     4197.971     1597.451        1.495        0.478      142.099       28.810        0.041      346.556       24.889      860.241
09/19/2014  20:41:00       30.102      129.588       -2.086       39.833       60.914       44.114     1586.672     3710.559     1946.053        1.247        0.362      133.039       43.753        0.108      346.585       24.938      860.231
09/19/2014  20:42:00       22.196      127.661       -3.624       43.113       57.531       33.267     1858.768     3309.779     1106.717        1.154        0.314      129.577       33.251        0.066      346.546       24.870      860.233
09/19/2014  20:43:00       67.697       63.857       10.388       55.106       31.396       38.048     3036.663      985.679     1447.640        0.712        0.273       93.062       30.222        0.105      346.548       24.875      860.252
09/19/2014  20:44:00       62.731       95.587        8.014       47.973       59.030       41.404     2301.448     3484.577     1714.281        1.032        0.375      114.333       33.449        0.086      346.589       24.947      860.255
09/19/2014  20:45:00       76.314       62.092      -10.232       41.974       36.323       22.659     1761.822     1319.392      513.450        0.669        0.180       98.383       24.173        0.060      346.475       24.750      860.268
09/19/2014  20:46:00       71.630       45.778       -0.640       27.621       21.157       16.519      762.924      447.616      272.863        0.435        0.074       85.009       15.115        0.032      346.359       24.548      860.288
09/19/2014  20:47:00       65.646       64.352        2.053       34.444       33.813       24.831     1186.379     1143.349      616.585        0.570        0.147       91.927       20.005        0.047      346.464       24.730      860.307
09/19/2014  20:48:00       17.393       56.679       -5.366       26.907       37.675       20.689      723.986     1419.431      428.015        0.306        0.129       59.288       19.680        0.110      346.379       24.585      860.317
09/19/2014  20:49:00       14.798      118.022      -15.305       45.411       48.836       23.729     2062.131     2384.949      563.049        0.970        0.251      118.946       21.690        0.033      346.430       24.670      860.328
09/19/2014  20:50:00       33.113       82.619        3.760       29.141       49.102       28.007      849.203     2410.993      784.389        0.599        0.202       89.008       32.798        0.136      346.421       24.656      860.341
09/19/2014  20:51:00       21.239       77.710       -3.050       31.057       76.623       38.602      964.543     5871.126     1490.104        0.741        0.416       80.560       44.896        0.311      346.404       24.627      860.347
09/19/2014  20:52:00       28.548       95.720       -5.222       28.385       75.838       26.482      805.697     5751.478      701.322        0.863        0.363       99.886       34.221        0.117      346.446       24.699      860.350
09/19/2014  20:53:00       34.172       61.235        6.898       29.587       41.379       24.361      875.400     1712.193      593.456        0.407        0.159       70.125       26.205        0.140      346.409       24.636      860.350
09/19/2014  20:54:00       23.275       42.305        4.526       25.373       30.266       17.804      643.774      916.057      316.983        0.211        0.094       48.285       14.668        0.092      346.285       24.423      860.364
09/19/2014  20:55:00       28.177       46.938        9.062       36.123       26.247       17.446     1304.868      688.882      304.372        0.269        0.115       54.746       16.145        0.087      346.303       24.454      860.372
09/19/2014  20:56:00        0.175       38.375        8.275       24.552       33.489       22.277      602.795     1121.520      496.253        0.188        0.111       38.375       20.812        0.294      346.156       24.201      860.385
09/19/2014  20:57:00       -6.924       22.708        5.347       28.421       21.193       19.315      807.730      449.129      373.077        0.111        0.081       23.740       12.189        0.264      346.047       24.012      860.396
09/19/2014  20:58:00       -8.945        3.845        2.953       27.248        9.115       15.667      742.435       83.083      245.464        0.059        0.054        9.736       15.563        2.555      346.145       24.183      860.416
09/19/2014  20:59:00      -65.325      -28.142      -12.201       24.145       17.142        9.245      582.970      293.863       85.475        0.309        0.048       71.129       10.433        0.022      345.635       23.303      860.429
09/19/2014  21:00:00      -66.456      -40.123       -2.476       33.330       37.319       18.444     1110.883     1392.691      340.182        0.444        0.142       77.629       13.685        0.031      345.510       23.092      860.434
09/19/2014  21:01:00      -73.710      -64.324       -2.382       18.857       26.039       18.046      355.605      678.004      325.644        0.547        0.068       97.831        7.209        0.005      345.560       23.177      860.447
09/19/2014  21:02:00      -85.491      -56.732       -4.765       24.697       18.586       14.775      609.932      345.443      218.310        0.586        0.059      102.602        9.140        0.008      345.486       23.050      860.458
09/19/2014  21:03:00      -81.714      -54.778       -6.948       33.147       25.482       15.248     1098.716      649.325      232.503        0.585        0.099       98.376       19.654        0.040      345.455       22.996      860.473
09/19/2014  21:04:00      -93.165      -41.092       -6.188       30.906       18.593       19.089      955.210      345.717      364.390        0.604        0.083      101.825       17.477        0.029      345.539       23.140      860.474
09/19/2014  21:05:00      -62.807      -30.709       -1.067       40.772       30.491       17.047     1662.392      929.724      290.612        0.389        0.144       69.912       17.158        0.060      345.578       23.208      860.472
09/19/2014  21:06:00      -82.125       25.298      -17.032       22.390       45.592       13.718      501.314     2078.658      188.190        0.522        0.138       85.934       12.381        0.021      345.701       23.419      860.481
09/19/2014  21:07:00      -56.913      -19.796       -6.587       24.929       29.593       11.864      621.448      875.741      140.746        0.266        0.082       60.257        6.816        0.013      345.599       23.244      860.482
09/19/2014  21:08:00      -41.381       15.226       -8.527       21.929       21.493       18.400      480.865      461.939      338.576        0.165        0.064       44.093       14.956        0.115      345.585       23.221      860.470
09/19/2014  21:09:00      -70.186      -18.356       -1.386       34.568       23.323       15.625     1194.940      543.967      244.136        0.362        0.099       72.547       18.309        0.064      345.780       23.554      860.466
09/19/2014  21:10:00      -59.952      -13.452       -4.816       19.861       29.305       13.548      394.444      858.776      183.546        0.262        0.072       61.443        7.704        0.016      345.621       23.281      860.471
09/19/2014  21:11:00      -61.214       34.588      -11.150       29.277       22.822       16.154      857.154      520.832      260.945        0.335        0.082       70.310       11.585        0.027      345.718       23.449      860.477
09/19/2014  21:12:00      -71.681       44.793      -19.947       24.272       44.591       16.734      589.131     1988.348      280.040        0.520        0.143       84.526        8.726        0.011      345.742       23.492      860.488
09/19/2014  21:13:00      -31.821        8.123       -5.620       19.490       28.455       12.221      379.848      809.687      149.345        0.122        0.067       32.841        6.804        0.043      345.612       23.266      860.509
09/19/2014  21:14:00      -47.725        0.793        1.844       29.145       18.116       15.813      849.445      328.197      250.061        0.185        0.071       47.732       12.610        0.070      345.676       23.377      860.522
09/19/2014  21:15:00      -69.145       38.146      -13.393       30.185       30.306       20.498      911.153      918.473      420.185        0.433        0.112       78.969       12.573        0.025      345.791       23.574      860.544
09/19/2014  21:16:00      -93.119       25.259      -19.340       27.468       32.810       19.792      754.499     1076.467      391.725        0.595        0.111       96.484        4.854        0.003      345.649       23.330      860.560
09/19/2014  21:17:00      -36.107      -20.658        0.129       38.684       19.447       15.870     1496.467      378.201      251.872        0.193        0.106       41.599       18.075        0.189      345.542       23.147      860.572
09/19/2014  21:18:00      -68.373        2.771       -6.058       39.361       37.579       22.228     1549.277     1412.181      494.078        0.409        0.173       68.429       23.998        0.123      345.661       23.351      860.596
09/19/2014  21:19:00      -39.227        7.221      -14.874       22.372       37.638       12.843      500.527     1416.609      164.942        0.195        0.104       39.886       14.838        0.138      345.777       23.548      860.602
09/19/2014  21:20:00      -56.134       29.209      -13.275       30.015       41.112       19.629      900.897     1690.222      385.300        0.358        0.149       63.278       16.966        0.072      345.812       23.610      860.614
09/19/2014  21:21:00      -92.560       66.563      -17.972       39.393       37.701       24.983     1551.817     1421.361      624.148        0.846        0.180      114.009       17.386        0.023      345.979       23.896      860.632
09/19/2014  21:22:00      -59.220       12.449      -13.402       36.634       23.907       15.697     1342.079      571.524      246.402        0.300        0.108       60.515       14.594        0.058      345.897       23.755      860.632
09/19/2014  21:23:00      -67.566       27.990       -9.552       32.778       54.325       20.778     1074.405     2951.255      431.730        0.495        0.223       73.134       20.306        0.077      345.784       23.561      860.639
09/19/2014  21:24:00      -35.536       -4.745        2.186       42.998       21.665       25.296     1848.840      469.384      639.903        0.212        0.148       35.852       23.058        0.414      345.651       23.335      860.653
09/19/2014  21:25:00      -15.528       -5.717       -6.912       17.365       24.211       13.926      301.531      586.195      193.946        0.070        0.054       16.547       11.012        0.443      345.646       23.326      860.650
09/19/2014  21:26:00      -50.508      -13.835       -2.339       35.997       18.850       14.033     1295.752      355.315      196.924        0.230        0.092       52.368       13.995        0.071      345.599       23.246      860.656
09/19/2014  21:27:00      -72.367       13.290       -4.373       33.887       39.685       21.667     1148.334     1574.903      469.464        0.431        0.160       73.577       15.007        0.042      345.703       23.424      860.671
09/19/2014  21:28:00      -27.631       -1.431        1.418       23.137       24.766       22.549      535.338      613.334      508.475        0.121        0.083       27.668       15.809        0.326      345.550       23.161      860.674
09/19/2014  21:29:00      -14.430        0.494       -3.747       19.650        9.106        8.811      386.132       82.911       77.638        0.038        0.027       14.438        7.223        0.250      345.399       22.901      860.682
09/19/2014  21:30:00      -47.215        8.270      -11.479       31.544       46.007       23.082      995.036     2116.652      532.783        0.304        0.182       47.934       21.631        0.204      345.549       23.158      860.698
09/19/2014  21:31:00      -71.091      -30.002       -2.700       29.879       26.145       16.097      892.772      683.569      259.101        0.390        0.092       77.162       13.663        0.031      345.386       22.879      860.687
09/19/2014  21:32:00      -70.980      -15.478        0.049       39.075       30.057       19.060     1526.828      903.414      363.298        0.404        0.140       72.648       21.054        0.084      345.238       22.625      860.698
09/19/2014  21:33:00      -78.696      -41.361       -6.189       35.305       30.176       18.833     1246.475      910.619      354.701        0.523        0.126       88.904       21.187        0.057      345.242       22.634      860.712
09/19/2014  21:34:00      -65.258      -45.768        0.609       35.517       36.512       29.541     1261.470     1333.106      872.648        0.491        0.173       79.707       26.214        0.108      345.288       22.711      860.708
09/19/2014  21:35:00      -86.357      -19.373       -8.535       37.619       23.933       18.674     1415.166      572.768      348.717        0.512        0.117       88.503       20.211        0.052      345.258       22.657      860.717
09/19/2014  21:36:00      -89.731      -10.584      -10.843       38.184       36.388       21.085     1458.006     1324.070      444.584        0.575        0.161       90.353       19.307        0.046      345.504       23.080      860.716
09/19/2014  21:37:00      -65.892       45.660       -5.350       46.066       72.018       32.269     2122.114     5186.536     1041.289        0.740        0.417       80.166       19.314        0.058      345.434       22.962      860.725
09/19/2014  21:38:00      -84.881      -45.838       -7.968       28.057       29.879       22.383      787.198      892.730      500.990        0.577        0.109       96.467       14.229        0.022      345.108       22.403      860.730
09/19/2014  21:39:00     -109.355      -61.298      -11.221       38.716       17.862       14.792     1498.917      319.036      218.795        0.894        0.102      125.363        6.968        0.003      345.092       22.379      860.733
09/19/2014  21:40:00      -97.966      -66.322       -0.982       31.386       29.171       20.340      985.090      850.947      413.706        0.812        0.112      118.304       14.287        0.015      344.978       22.182      860.749
09/19/2014  21:41:00      -94.260      -31.991       -9.745       24.156       29.022       15.194      583.516      842.261      230.843        0.583        0.083       99.541        8.592        0.007      345.030       22.271      860.747
09/19/2014  21:42:00      -90.308      -48.391       -7.015       26.598       21.632       13.096      707.457      467.957      171.513        0.595        0.067      102.456        8.967        0.008      344.985       22.192      860.749
09/19/2014  21:43:00      -65.591       -3.929      -10.587       17.930       27.989       12.878      321.493      783.386      165.841        0.285        0.064       65.708        9.080        0.019      345.113       22.413      860.761
09/19/2014  21:44:00      -71.965      -29.951       -6.402       35.115       30.042       16.549     1233.033      902.544      273.871        0.426        0.120       77.949       18.109        0.054      345.030       22.269      860.760
09/19/2014  21:45:00      -89.749       -1.528      -19.440       23.258       37.099       20.795      540.929     1376.347      432.423        0.539        0.117       89.762       12.761        0.020      345.116       22.419      860.774
09/19/2014  21:46:00      -66.979       37.631      -10.237       49.847       97.160       39.653     2484.692     9440.057     1572.352        0.975        0.675       76.826       52.035        0.459      345.331       22.786      860.776
09/19/2014  21:47:00     -124.800        8.126      -17.087       48.935       41.269       20.212     2394.677     1703.104      408.542        1.022        0.225      125.064       19.528        0.024      345.154       22.482      860.771
09/19/2014  21:48:00      -75.585       12.270       -6.576       31.583       40.726       21.883      997.502     1658.617      478.866        0.452        0.157       76.574       16.873        0.049      345.481       23.042      860.779
09/19/2014  21:49:00     -101.711       -7.108      -16.311       29.438       43.850       25.523      866.587     1922.857      651.430        0.705        0.172      101.959       18.130        0.032      345.138       22.456      860.780
09/19/2014  21:50:00      -85.293      -22.844      -15.809       25.893       28.230       12.759      670.468      796.943      162.783        0.484        0.082       88.299       10.634        0.015      345.022       22.257      860.774
09/19/2014  21:51:00     -101.723      -50.585       -7.211       32.467       21.014       13.899     1054.116      441.592      193.188        0.732        0.084      113.606        9.497        0.007      344.981       22.185      860.777
09/19/2014  21:52:00      -50.809      -41.814       -1.042       31.290       15.576       12.978      979.087      242.625      168.431        0.286        0.070       65.802        9.946        0.023      344.982       22.187      860.786
09/19/2014  21:53:00      -68.389      -31.797       -8.412       32.371       21.608       12.383     1047.873      466.909      153.336        0.371        0.083       75.420       15.871        0.044      345.056       22.316      860.795
09/19/2014  21:54:00      -74.885      -46.601       -9.436       36.887       27.521       14.988     1360.628      757.431      224.643        0.511        0.117       88.201       13.792        0.024      344.978       22.180      860.803
09/19/2014  21:55:00      -53.123      -29.948       -5.350       27.563       26.168       12.653      759.729      684.740      160.101        0.268        0.080       60.983        9.231        0.023      345.045       22.296      860.814
09/19/2014  21:56:00      -92.627      -46.694       -6.059       16.604       20.035       11.603      275.707      401.421      134.637        0.580        0.041      103.731        6.750        0.004      345.066       22.332      860.823
09/19/2014  21:57:00      -94.490      -30.334       -1.153       30.369       32.944       16.972      922.254     1085.328      288.055        0.607        0.115       99.240       16.699        0.028      345.042       22.291      860.843
09/19/2014  21:58:00      -91.736      -13.764      -15.397       22.917       36.492       15.052      525.177     1331.702      226.555        0.546        0.104       92.763       10.891        0.014      345.071       22.340      860.848
09/19/2014  21:59:00     -107.068      -38.875      -16.498       24.354       39.122       18.375      593.099     1530.528      337.657        0.785        0.123      113.907       13.463        0.014      345.027       22.263      860.849
09/19/2014  22:00:00      -43.472       -0.177      -11.560       32.815       38.715       15.306     1076.829     1498.876      234.271        0.242        0.140       43.473        3.406        0.006      345.060       22.320      860.876
09/19/2014  22:01:00      -59.755      -31.567      -10.010       41.183       35.787       17.852     1696.022     1280.680      318.681        0.398        0.165       67.580       21.954        0.106      345.071       22.339      860.886
09/19/2014  22:02:00      -74.290      -32.368       -3.824       17.098       17.979        8.522      292.348      323.254       72.629        0.363        0.034       81.035        3.160        0.002      345.199       22.559      860.896
09/19/2014  22:03:00      -43.818      -13.435        4.152       29.371       24.891       14.814      862.632      619.566      219.449        0.191        0.085       45.831        9.858        0.046      345.139       22.456      860.925
09/19/2014  22:04:00       -4.795       -1.322        4.633       12.054       15.124       12.243      145.308      228.722      149.896        0.028        0.026        4.974       11.353        5.209      345.132       22.445      860.946
09/19/2014  22:05:00        1.935        0.550        3.672       15.615        7.376        8.159      243.822       54.408       66.563        0.019        0.018        2.012        9.386       21.769      345.197       22.554      860.973
09/19/2014  22:06:00      -75.338      -34.122       -9.486       27.339       16.521       12.696      747.420      272.938      161.183        0.406        0.059       82.705       13.123        0.025      345.223       22.600      860.985
09/19/2014  22:07:00       14.428      -33.441        1.351       26.709       21.906       14.473      713.364      479.869      209.478        0.137        0.070       36.421        8.532        0.055      345.045       22.296      860.981
09/19/2014  22:08:00      -19.966      -25.400        2.996       30.589       21.147       21.266      935.714      447.200      452.224        0.144        0.092       32.308       22.928        0.504      345.104       22.396      860.990
09/19/2014  22:09:00      -24.035      -30.865       -6.424       13.985       13.327        9.278      195.594      177.610       86.084        0.102        0.023       39.119        6.745        0.030      345.111       22.409      860.998
09/19/2014  22:10:00      -31.512      -31.570       -1.587       25.406       26.415       18.310      645.464      697.763      335.272        0.183        0.084       44.605       18.479        0.172      345.203       22.564      861.001
09/19/2014  22:11:00      -47.060      -21.165       -4.817       26.492       20.147       10.049      701.823      405.895      100.975        0.195        0.060       51.600       11.116        0.046      345.080       22.357      861.004
09/19/2014  22:12:00      -39.693       -7.913       -3.541       11.260        9.154       10.133      126.778       83.800      102.670        0.098        0.016       40.474        8.995        0.049      345.016       22.244      861.014
09/19/2014  22:13:00      -35.510      -22.485       -1.655       20.571       21.889        7.991      423.172      479.137       63.858        0.137        0.048       42.031        7.142        0.029      345.103       22.395      861.017
09/19/2014  22:14:00      -36.014      -22.793       -9.617       14.475       12.464        5.438      209.512      155.351       29.573        0.115        0.020       42.620        3.857        0.008      345.148       22.472      861.021
09/19/2014  22:15:00      -56.501      -10.412       -1.911       23.528       19.225       10.405      553.544      369.601      108.256        0.217        0.052       57.452       13.095        0.052      345.212       22.582      861.010
09/19/2014  22:16:00      -55.804      -13.179       -2.557       37.827       28.937       15.504     1430.879      837.337      240.380        0.290        0.125       57.339       21.800        0.145      345.249       22.645      861.004
09/19/2014  22:17:00      -27.250        2.574        3.890       35.487       31.783       19.151     1259.341     1010.164      366.773        0.170        0.132       27.371       18.010        0.433      345.025       22.262      861.015
09/19/2014  22:18:00      -32.790      -13.190       -3.052       29.325       30.686       16.206      859.943      941.619      262.646        0.166        0.103       35.343       14.526        0.169      345.277       22.692      861.021
09/19/2014  22:19:00      -46.696       -6.220       -6.687       18.016       17.772       11.357      324.563      315.833      128.972        0.152        0.038       47.109        6.027        0.016      345.086       22.368      861.024
09/19/2014  22:20:00      -93.907      -10.405      -15.021       19.635       17.346       12.668      385.526      300.897      160.473        0.500        0.042       94.482        8.776        0.009      345.123       22.429      861.014
09/19/2014  22:21:00      -77.027       30.311       -9.536       31.708       37.304       25.950     1005.416     1391.553      673.418        0.501        0.154       82.776       13.511        0.027      345.328       22.779      861.007
09/19/2014  22:22:00      -81.982       15.902      -13.421       43.558       35.047       17.922     1897.272     1228.290      321.183        0.530        0.172       83.510       19.554        0.055      345.234       22.619      861.013
09/19/2014  22:23:00      -89.644       14.994      -11.011       36.166       57.076       25.870     1307.993     3257.722      669.243        0.681        0.262       90.889       28.318        0.097      345.218       22.592      861.022
09/19/2014  22:24:00      -66.719       32.242      -17.871       20.672       34.300       17.443      427.328     1176.495      304.260        0.386        0.095       74.101       13.687        0.034      345.299       22.730      861.031
09/19/2014  22:25:00      -91.302       25.458       -5.007       38.906       33.153       25.867     1513.700     1099.121      669.095        0.614        0.164       94.785       24.565        0.067      345.405       22.911      861.034
09/19/2014  22:26:00      -66.362      105.418      -13.863       56.232       42.871       34.120     3161.991     1837.918     1164.148        1.094        0.308      124.567       30.343        0.059      345.576       23.205      861.040
09/19/2014  22:27:00      -36.905        3.818       -1.797       23.846       29.856       13.511      568.653      891.384      182.542        0.151        0.082       37.101       14.401        0.151      345.342       22.805      861.062
09/19/2014  22:28:00      -98.467       84.522      -21.520       57.306       51.093       32.945     3283.940     2610.460     1085.358        1.214        0.349      129.768       34.163        0.069      345.743       23.490      861.057
09/19/2014  22:29:00      -69.200       61.803      -15.844       40.580       37.120       21.995     1646.720     1377.869      483.788        0.618        0.175       92.780       19.673        0.045      345.659       23.347      861.055
09/19/2014  22:30:00     -102.335       62.790      -12.358       27.176       47.344       23.477      738.521     2241.457      551.149        0.905        0.177      120.062       12.762        0.011      345.592       23.233      861.054
09/19/2014  22:31:00     -100.764       18.161      -18.040       32.848       42.968       29.107     1079.012     1846.231      847.204        0.729        0.189      102.388       21.494        0.044      345.609       23.262      861.058
09/19/2014  22:32:00      -39.814       37.492       -7.680       31.487       31.351       18.008      991.436      982.879      324.289        0.267        0.115       54.688       10.371        0.036      345.665       23.358      861.057
09/19/2014  22:33:00      -67.377      -22.779      -14.438       31.214       22.559       15.901      974.294      508.888      252.836        0.350        0.087       71.124        6.188        0.008      345.408       22.916      861.054
09/19/2014  22:34:00      -60.900       21.606       -7.825       29.936       30.725       23.076      896.135      944.011      532.512        0.330        0.119       64.620       17.487        0.073      345.414       22.926      861.051
09/19/2014  22:35:00      -99.121       34.317      -22.259       41.858       59.289       26.259     1752.070     3515.202      689.545        0.873        0.298      104.894       28.073        0.072      345.575       23.203      861.045
09/19/2014  22:36:00      -80.866      -24.008       -5.261       38.883       26.673       19.239     1511.921      711.437      370.147        0.487        0.130       84.355       14.443        0.029      345.369       22.849      861.051
09/19/2014  22:37:00      -45.548       -2.586       -5.286       19.013       21.226       12.760      361.511      450.522      162.805        0.154        0.049       45.621       10.437        0.052      345.381       22.869      861.058
09/19/2014  22:38:00      -57.674      -14.907      -11.347       36.410       17.928       15.745     1325.656      321.416      247.907        0.279        0.095       59.569       16.471        0.076      345.456       22.999      861.057
09/19/2014  22:39:00      -75.888       -4.714       -7.179       39.141       42.532       23.231     1532.023     1808.931      539.660        0.486        0.194       76.034       22.585        0.088      345.606       23.257      861.052
09/19/2014  22:40:00     -124.277       55.251      -16.474       47.023       60.192       31.642     2211.159     3623.119     1001.201        1.280        0.342      136.005       23.132        0.029      345.563       23.181      861.048
09/19/2014  22:41:00     -128.340       77.316      -26.597       48.966       75.302       31.676     2397.669     5670.453     1003.393        1.611        0.454      149.830       40.055        0.071      345.752       23.506      861.045
09/19/2014  22:42:00      -88.350       92.746      -20.355       47.561       75.612       30.958     2262.076     5717.172      958.372        1.288        0.447      128.092       24.170        0.036      345.640       23.313      861.053
09/19/2014  22:43:00      -73.292       39.472      -15.374       42.298       33.511       22.814     1789.082     1122.987      520.466        0.530        0.172       83.246       23.358        0.079      345.362       22.838      861.061
09/19/2014  22:44:00      -41.213        4.641       -3.732       28.725       25.942       19.086      825.123      672.976      364.275        0.180        0.093       41.473       13.055        0.099      345.186       22.537      861.051
09/19/2014  22:45:00      -67.877       55.276      -10.683       29.657       48.845       20.169      879.534     2385.875      406.787        0.572        0.184       87.537       18.242        0.043      345.511       23.094      861.058
09/19/2014  22:46:00      -85.225       48.505      -10.497       22.798       46.969       21.029      519.728     2206.087      442.213        0.645        0.158       98.062       16.770        0.029      345.382       22.872      861.050
09/19/2014  22:47:00      -74.082       26.345       -2.439       41.800       34.929       27.951     1747.256     1220.035      781.239        0.497        0.187       78.626       29.692        0.143      345.043       22.291      861.059
09/19/2014  22:48:00      -75.244       58.711      -18.866       31.684       35.449       20.679     1003.902     1256.633      427.625        0.608        0.134       95.439        8.292        0.008      345.477       23.036      861.070
09/19/2014  22:49:00      -59.234      118.117      -13.833       45.965       60.549       29.801     2112.749     3666.125      888.080        1.216        0.333      132.137       17.704        0.018      345.671       23.369      861.070
09/19/2014  22:50:00      -96.915       89.555      -11.195       54.808       61.267       29.326     3003.958     3753.592      860.009        1.258        0.381      131.957       25.212        0.037      345.555       23.167      861.072
09/19/2014  22:51:00     -121.310       76.662      -22.455       36.630       47.297       28.792     1341.770     2237.029      828.967        1.275        0.220      143.503       22.761        0.025      345.631       23.298      861.067
09/19/2014  22:52:00     -149.745       85.308      -21.940       42.465       56.233       30.751     1803.308     3162.152      945.612        1.805        0.296      172.340       28.145        0.027      345.656       23.341      861.071
09/19/2014  22:53:00     -143.575      158.448      -39.875       55.160       88.404       37.442     3042.577     7815.293     1401.899        2.978        0.613      213.821       45.090        0.044      345.745       23.493      861.090
09/19/2014  22:54:00     -144.968      170.999      -38.280       62.814       75.788       42.075     3945.612     5743.866     1770.303        3.159        0.573      224.179       41.081        0.034      345.810       23.603      861.104
09/19/2014  22:55:00     -155.232      108.511      -31.169       55.770       71.519       40.728     3110.258     5114.948     1658.757        2.336        0.494      189.398       38.726        0.042      345.662       23.350      861.107
09/19/2014  22:56:00     -156.022       80.416      -23.687       66.385       53.226       40.345     4406.986     2833.047     1627.725        2.012        0.443      175.527       39.083        0.050      345.731       23.469      861.097
09/19/2014  22:57:00     -147.696      136.399      -31.527       60.662       69.763       39.650     3679.902     4866.843     1572.111        2.576        0.506      201.044       44.487        0.049      345.694       23.405      861.092
09/19/2014  22:58:00     -163.391      148.285      -40.503       50.384       41.285       33.264     2538.516     1704.438     1106.505        2.784        0.267      220.647       28.495        0.017      345.741       23.484      861.087
09/19/2014  22:59:00     -159.364      183.137      -42.062       49.141       69.422       37.099     2414.854     4819.482     1376.347        3.466        0.431      242.767       32.534        0.018      345.707       23.425      861.081
09/19/2014  23:00:00     -166.447      187.729      -44.982       44.283       80.127       31.790     1960.974     6420.412     1010.606        3.718        0.470      250.892       21.886        0.008      345.701       23.417      861.070
09/19/2014  23:01:00     -201.001      163.600      -42.080       54.071       71.880       43.470     2923.637     5166.716     1889.609        3.946        0.499      259.164       32.969        0.016      345.698       23.411      861.075
09/19/2014  23:02:00     -151.308      145.877      -16.991       83.701       77.088       52.324     7005.922     5942.601     2737.763        3.007        0.784      210.177       48.647        0.054      345.571       23.195      861.081
09/19/2014  23:03:00     -136.140      171.507      -33.782       49.260       49.795       33.041     2426.511     2479.529     1091.729        2.754        0.300      218.972       20.148        0.008      345.539       23.137      861.086
09/19/2014  23:04:00     -124.429      131.239      -32.008       52.162       66.536       32.906     2720.827     4427.042     1082.774        2.098        0.412      180.849       35.453        0.038      345.462       23.007      861.087
09/19/2014  23:05:00     -133.360      115.742      -34.155       69.433       55.820       38.160     4821.010     3115.859     1456.200        2.087        0.470      176.581       38.317        0.047      345.454       22.994      861.075
09/19/2014  23:06:00     -123.047      134.565      -22.809       63.232       78.196       42.511     3998.248     6114.612     1807.185        2.284        0.596      182.341       39.433        0.047      345.634       23.303      861.061
09/19/2014  23:07:00     -148.182      165.201      -36.511       59.635       69.530       40.780     3556.284     4834.451     1663.036        3.032        0.503      221.922       38.257        0.030      345.710       23.431      861.069
09/19/2014  23:08:00     -136.148      135.995      -39.462       49.085       46.248       22.820     2409.324     2138.917      520.731        2.183        0.253      192.435       27.817        0.021      345.587       23.221      861.068
09/19/2014  23:09:00     -110.750      128.377      -25.430       46.324       74.031       34.656     2145.958     5480.572     1201.005        1.911        0.441      169.547       37.054        0.048      345.533       23.129      861.081
09/19/2014  23:10:00     -117.030      111.976      -22.349       53.578       58.402       34.460     2870.643     3410.760     1187.504        1.710        0.373      161.971       29.933        0.034      345.412       22.922      861.099
09/19/2014  23:11:00     -127.673      133.310      -17.599       57.363       76.864       42.003     3290.564     5908.119     1764.214        2.267        0.548      184.586       41.024        0.049      345.348       22.811      861.107
09/19/2014  23:12:00     -109.863       99.850      -22.758       63.723       40.099       32.862     4060.676     1607.965     1079.916        1.465        0.337      148.458       36.368        0.060      345.347       22.811      861.107
09/19/2014  23:13:00     -116.856       77.611      -20.913       45.046       46.363       27.249     2029.119     2149.526      742.522        1.252        0.246      140.281       29.570        0.044      345.364       22.840      861.108
09/19/2014  23:14:00     -155.746      121.809      -32.771       51.606       54.539       35.698     2663.135     2974.509     1274.314        2.354        0.346      197.723       29.164        0.022      345.451       22.987      861.113
09/19/2014  23:15:00     -106.914      100.768      -24.673       53.120       58.725       28.916     2821.755     3448.598      836.121        1.465        0.355      146.918       26.428        0.032      345.334       22.790      861.132
09/19/2014  23:16:00     -100.310      119.900      -16.916       45.825       90.696       35.873     2099.962     8225.844     1286.862        1.817        0.581      156.327       33.626        0.046      345.293       22.719      861.130
09/19/2014  23:17:00     -106.924       85.682      -13.218       60.600       50.743       29.271     3672.303     2574.810      856.774        1.303        0.355      137.019       21.519        0.025      345.267       22.674      861.136
09/19/2014  23:18:00      -78.188       72.742      -13.837       28.776       39.338       21.027      828.076     1547.449      442.146        0.721        0.141      106.793       14.478        0.018      345.148       22.471      861.133
09/19/2014  23:19:00      -65.186       27.552       -1.802       42.831       39.832       23.082     1834.516     1586.556      532.769        0.448        0.198       70.769       20.028        0.080      345.119       22.421      861.128
09/19/2014  23:20:00     -123.473       41.496      -17.127       31.070       53.528       24.507      965.367     2865.194      600.617        1.085        0.222      130.259       24.271        0.035      345.146       22.469      861.120
09/19/2014  23:21:00      -73.618       25.940      -19.793       23.739       34.039       16.349      563.532     1158.628      267.304        0.424        0.099       78.054        7.071        0.008      345.057       22.315      861.123
09/19/2014  23:22:00      -71.758        0.259      -10.394       20.399       26.283       17.358      416.130      690.796      301.287        0.333        0.070       71.758       10.906        0.023      344.955       22.142      861.111
09/19/2014  23:23:00      -91.082        4.971      -11.934       35.495       43.805       14.979     1259.929     1918.909      224.370        0.593        0.170       91.217       16.746        0.034      344.890       22.030      861.111
09/19/2014  23:24:00      -60.771        5.037      -12.277       34.237       38.115       21.337     1172.156     1452.774      455.278        0.347        0.154       60.980       20.296        0.111      344.860       21.978      861.121
09/19/2014  23:25:00      -62.896      -14.970       -8.666       19.266       22.904       13.721      371.163      524.581      188.260        0.267        0.054       64.653        6.032        0.009      344.815       21.901      861.114
09/19/2014  23:26:00      -39.692       18.171       -4.126       31.440       24.121       11.501      988.465      581.845      132.276        0.181        0.085       43.653       13.026        0.089      344.814       21.899      861.113
09/19/2014  23:27:00      -42.797      -18.927       -2.043       14.852       20.268       16.025      220.577      410.796      256.790        0.154        0.044       46.796       10.651        0.052      344.774       21.831      861.107
09/19/2014  23:28:00      -64.066      -26.538       -2.258       22.993       23.734       17.506      528.676      563.306      306.459        0.311        0.070       69.345       17.506        0.064      344.720       21.739      861.096
09/19/2014  23:29:00      -75.057      -39.752      -11.352       29.758       26.802       16.127      885.532      718.340      260.091        0.460        0.093       84.934        8.110        0.009      344.575       21.491      861.091
09/19/2014  23:30:00      -77.019      -29.777       -8.219       18.773       24.496       15.064      352.427      600.047      226.920        0.403        0.059       82.574       13.831        0.028      344.510       21.379      861.098
09/19/2014  23:31:00      -28.439      -16.524        5.333       29.682       33.282       16.987      880.995     1107.673      288.543        0.169        0.114       32.891       16.936        0.265      344.303       21.025      861.099
09/19/2014  23:32:00      -19.274       -6.253        4.807       27.337       12.751       12.241      747.334      162.593      149.849        0.075        0.053       20.263       13.362        0.435      344.211       20.869      861.097
09/19/2014  23:33:00      -60.260      -30.482       -2.704       29.136       39.153       14.253      848.929     1532.983      203.140        0.358        0.129       67.531       12.078        0.032      344.420       21.227      861.100
09/19/2014  23:34:00      -50.893      -33.304        3.474       33.010       27.598       12.756     1089.643      761.674      162.710        0.286        0.101       60.822       14.503        0.057      344.246       20.929      861.095
09/19/2014  23:35:00      -50.897      -39.506        0.816       29.665       26.852       18.488      880.033      721.057      341.801        0.305        0.097       64.430       18.165        0.079      344.266       20.963      861.092
09/19/2014  23:36:00      -65.031      -23.262       -7.779       25.515       28.733       19.096      650.992      825.570      364.663        0.334        0.092       69.066       15.636        0.051      344.270       20.970      861.093
09/19/2014  23:37:00      -56.419      -19.946       -9.669       18.746       17.840       11.291      351.412      318.254      127.480        0.224        0.040       59.841        9.953        0.028      344.378       21.156      861.096
09/19/2014  23:38:00      -16.267      -25.342       -8.255       45.551       20.499       19.215     2074.906      420.220      369.227        0.192        0.143       30.114       15.526        0.266      344.099       20.677      861.108
09/19/2014  23:39:00        6.378      -24.612      -14.933       24.064       21.722       18.622      579.053      471.831      346.792        0.113        0.070       25.425       16.518        0.422      343.970       20.458      861.116
09/19/2014  23:40:00        5.990      -37.753        9.722       19.738       32.859       14.135      389.574     1079.712      199.784        0.161        0.083       38.225       11.080        0.084      344.030       20.559      861.127
09/19/2014  23:41:00      -10.710      -56.616       11.520       34.556       30.755       23.866     1194.140      945.844      569.607        0.308        0.135       57.620       27.304        0.225      344.061       20.612      861.124
09/19/2014  23:42:00      -32.340      -80.073       -1.526       25.551       30.872       19.199      652.858      953.106      368.594        0.472        0.099       86.357       16.618        0.037      344.093       20.668      861.120
09/19/2014  23:43:00      -15.389      -59.258        3.256       36.285       26.434       18.734     1316.624      698.772      350.966        0.306        0.118       61.224       10.534        0.030      344.017       20.537      861.119
09/19/2014  23:44:00      -28.901      -54.016        2.133       40.559       18.568       19.924     1645.066      344.777      396.971        0.307        0.119       61.261       19.152        0.098      344.009       20.524      861.133
09/19/2014  23:45:00       -4.598     -106.231      -16.219       31.940       26.046       19.417     1020.179      678.377      377.012        0.682        0.104      106.331        9.895        0.009      344.047       20.588      861.139
09/19/2014  23:46:00      -22.082      -70.952      -11.670       27.261       33.337       17.196      743.158     1111.352      295.696        0.390        0.108       74.309        9.452        0.016      344.107       20.691      861.126
09/19/2014  23:47:00       -1.681      -88.288       -0.469       30.084       31.292       18.716      905.058      979.187      350.279        0.502        0.112       88.304        8.954        0.010      344.003       20.514      861.128
09/19/2014  23:48:00      -66.386      -59.851       -8.909       31.670       37.171       21.247     1003.011     1381.714      451.449        0.545        0.142       89.383       15.750        0.031      344.040       20.576      861.134
09/19/2014  23:49:00      -63.816      -62.055        2.989       51.759       37.007       22.661     2679.044     1369.503      513.530        0.625        0.228       89.013       24.004        0.073      343.931       20.390      861.139
09/19/2014  23:50:00      -85.445      -61.325       -3.450       58.327       42.893       27.006     3402.040     1839.821      729.336        0.852        0.299      105.174       26.359        0.063      343.887       20.315      861.131
09/19/2014  23:51:00      -91.905      -72.639        1.478       48.162       30.691       26.530     2319.543      941.940      703.853        0.884        0.198      117.145       24.569        0.044      343.868       20.284      861.138
09/19/2014  23:52:00     -107.559      -75.051       -4.662       40.316       25.568       19.307     1625.411      653.746      372.754        0.994        0.133      131.155       11.492        0.008      343.936       20.399      861.132
09/19/2014  23:53:00     -109.795      -60.005       -0.417       48.227       35.945       24.255     2325.799     1292.021      588.320        0.993        0.210      125.122       29.276        0.055      343.845       20.243      861.129
09/19/2014  23:54:00      -95.575      -62.947        0.940       46.524       33.279       25.713     2164.521     1107.481      661.153        0.851        0.197      114.442       22.685        0.039      343.816       20.193      861.126
09/19/2014  23:55:00     -124.901      -52.007       -5.790       33.382       30.477       21.702     1114.345      928.821      470.976        1.043        0.126      135.296       17.523        0.017      343.900       20.339      861.119
09/19/2014  23:56:00     -118.627      -33.795       -5.818       38.072       28.640       19.008     1449.471      820.266      361.320        0.894        0.132      123.347       19.321        0.025      343.824       20.208      861.120
09/19/2014  23:57:00     -134.192      -38.872       -5.279       29.941       26.521       17.605      896.472      703.383      309.942        1.073        0.095      139.709       16.256        0.014      343.792       20.155      861.123
09/19/2014  23:58:00      -63.215      -21.695       -2.613       31.795       18.276       12.909     1010.953      334.002      166.635        0.299        0.076       66.834       10.503        0.025      343.742       20.067      861.127
09/19/2014  23:59:00      -38.804      -27.719       -6.678       27.312       18.651       13.133      745.927      347.859      172.469        0.179        0.063       47.687       11.076        0.054      343.867       20.281      861.138
